[[{"header":{"parameterUnit":"m.s-1","parameterCategory":1,"la1":30.6,"la2":29.2853,"lo1":-89.7004,"lo2":-87.6739,"dy":0.0162,"dx":0.0183,"nx":112,"ny":82,"refTime":"2024-03-02T18:00:00:Z","depth":0,"parameterNumber":2,"parameterNumberName":"U-component_of_WINDS"},"data":[0.0,0.0,0.0,0.0,0.0,0.0,0.0,0.0,0.0,0.0,0.0,0.0,0.0,0.0,0.0,0.0,0.0,0.0,0.0,0.0,0.0,0.0,0.0,0.0,0.0,0.0,0.0,0.0,0.0,0.0,0.0,0.0,0.0,0.0,0.0,0.0,0.0,0.0,0.0,0.0,0.0,0.0,0.0,0.0,0.0,0.0,0.0,0.0,0.0,0.0,0.0,0.0,0.0,0.0,0.0,0.0,0.0,0.0,0.0,0.0,0.0,0.0,0.0,0.0,0.0,0.0,0.0,0.0,0.0,0.0,0.0,0.0,0.0,0.0,0.0,0.0,0.0,0.0,0.0,0.0,0.0,0.0,0.0,0.0,0.0,0.0,0.0,0.0,0.0,0.0,-0.6016,-0.7046,-0.7257,-0.7135,-0.6622,-0.6497,-0.6049,-0.5112,0.0,0.0,0.0,0.0,0.0,0.0,0.0,0.0,0.0,0.0,0.0,0.0,0.0,0.0,0.0,0.0,0.0,0.0,0.0,0.0,0.0,0.0,0.0,0.0,0.0,0.0,0.0,0.0,0.0,0.0,0.0,0.0,0.0,0.0,0.0,0.0,0.0,0.0,0.0,0.0,0.0,0.0,0.0,0.0,0.0,0.0,0.0,0.0,0.0,0.0,0.0,0.0,0.0,0.0,0.0,0.0,0.0,0.0,0.0,0.0,0.0,0.0,0.0,0.0,0.0,0.0,0.0,0.0,0.0,0.0,0.0,0.0,0.0,0.0,0.0,0.0,0.0,0.0,0.0,0.0,0.0,0.0,0.0,0.0,0.0,0.0,0.0,0.0,0.0,0.0,0.0,0.0,0.0,0.0,0.0,0.0,0.0,0.0,0.0,0.0,0.0,0.0,0.0,0.0,-0.6371,-0.6889,-0.6714,-0.6302,-0.5664,-0.5394,-0.5143,-0.4857,0.0,0.0,0.0,0.0,0.0,0.0,0.0,0.0,0.0,0.0,0.0,0.0,0.0,0.0,0.0,0.0,0.0,0.0,0.0,0.0,0.0,0.0,0.0,0.0,0.0,0.0,0.0,0.0,0.0,0.0,0.0,0.0,0.0,0.0,0.0,0.0,0.0,0.0,0.0,0.0,0.0,0.0,0.0,0.0,0.0,0.0,0.0,0.0,0.0,0.0,0.0,0.0,0.0,0.0,0.0,0.0,0.0,0.0,0.0,0.0,0.0,0.0,0.0,0.0,0.0,0.0,0.0,0.0,0.0,0.0,0.0,0.0,0.0,0.0,0.0,0.0,0.0,0.0,0.0,0.0,0.0,0.0,0.0,0.0,0.0,0.0,0.0,0.0,0.0,0.0,0.0,0.0,0.0,0.0,0.0,0.0,0.0,0.0,0.0,0.0,0.0,0.0,0.0,-0.67,-0.7016,-0.7061,-0.6632,-0.6078,-0.5405,-0.4997,-0.482,-0.4908,-0.4912,0.0,0.0,0.0,0.0,0.0,0.0,0.0,0.0,0.0,0.0,0.0,0.0,0.0,0.0,0.0,0.0,0.0,0.0,0.0,0.0,0.0,0.0,0.0,0.0,0.0,0.0,0.0,0.0,0.0,0.0,0.0,0.0,0.0,0.0,0.0,0.0,0.0,0.0,0.0,0.0,0.0,0.0,0.0,0.0,0.0,0.0,0.0,0.0,0.0,0.0,0.0,0.0,0.0,0.0,0.0,0.0,0.0,0.0,0.0,0.0,0.0,0.0,0.0,0.0,0.0,0.0,0.0,0.0,0.0,0.0,0.0,0.0,0.0,0.0,0.0,0.0,0.0,0.0,0.0,0.0,0.0,0.0,0.0,0.0,0.0,0.0,0.0,0.0,0.0,0.0,0.0,0.0,0.0,0.0,0.0,0.0,0.0,0.0,0.0,0.0,0.0,0.0,-0.733,-0.7142,-0.7191,-0.6539,-0.5867,-0.5351,-0.4674,-0.4469,-0.4882,-0.4435,0.0,0.0,0.0,0.0,0.0,0.0,0.0,0.0,0.0,0.0,0.0,0.0,0.0,0.0,0.0,0.0,0.0,0.0,0.0,0.0,0.0,0.0,0.0,0.0,0.0,0.0,0.0,0.0,0.0,0.0,0.0,0.0,0.0,0.0,0.0,0.0,0.0,0.0,0.0,0.0,0.0,0.0,0.0,0.0,0.0,0.0,0.0,0.0,0.0,0.0,0.0,0.0,0.0,0.0,0.0,0.0,0.0,0.0,0.0,0.0,0.0,0.0,0.0,0.0,0.0,0.0,0.0,0.0,0.0,0.0,0.0,0.0,0.0,0.0,0.0,0.0,0.0,0.0,0.0,0.0,0.0,0.0,0.0,0.0,0.0,0.0,0.0,0.0,0.0,0.0,0.0,0.0,0.0,0.0,0.0,0.0,0.0,0.0,0.0,0.0,0.0,0.0,-0.6505,-0.6117,-0.7093,-0.616,-0.5427,-0.5311,-0.4133,-0.3747,-0.4577,-0.4811,0.0,0.0,0.0,0.0,0.0,0.0,0.0,0.0,0.0,0.0,0.0,0.0,0.0,0.0,0.0,0.0,0.0,0.0,0.0,0.0,0.0,0.0,0.0,0.0,0.0,0.0,0.0,0.0,0.0,0.0,0.0,0.0,0.0,0.0,0.0,0.0,0.0,0.0,0.0,0.0,0.0,0.0,0.0,0.0,0.0,0.0,0.0,0.0,0.0,0.0,0.0,0.0,0.0,0.0,0.0,0.0,0.0,0.0,0.0,0.0,0.0,0.0,0.0,0.0,0.0,0.0,0.0,0.0,0.0,0.0,0.0,0.0,0.0,0.0,0.0,0.0,0.0,0.0,0.0,0.0,0.0,0.0,0.0,0.0,0.0,0.0,0.0,0.0,0.0,0.0,0.0,0.0,0.0,0.0,0.0,0.0,0.0,0.0,0.0,0.0,0.0,0.0,-0.727,-0.7188,-0.7592,-0.648,-0.578,-0.5969,-0.4456,-0.3572,-0.3785,0.0,0.0,0.0,0.0,0.0,0.0,0.0,0.0,0.0,0.0,0.0,0.0,0.0,0.0,0.0,0.0,0.0,0.0,0.0,0.0,0.0,0.0,0.0,0.0,0.0,0.0,0.0,0.0,0.0,0.0,0.0,0.0,0.0,0.0,0.0,0.0,0.0,0.0,0.0,0.0,0.0,0.0,0.0,0.0,0.0,0.0,0.0,0.0,0.0,0.0,0.0,0.0,0.0,0.0,0.0,0.0,0.0,0.0,0.0,0.0,0.0,0.0,0.0,0.0,0.0,0.0,0.0,0.0,0.0,0.0,0.0,0.0,0.0,0.0,0.0,0.0,0.0,0.0,0.0,0.0,0.0,0.0,0.0,0.0,0.0,0.0,0.0,0.0,0.0,0.0,0.0,0.0,0.0,0.0,0.0,0.0,0.0,0.0,0.0,0.0,0.0,0.0,-0.7519,-0.7598,-0.7624,-0.7869,-0.6697,-0.6043,-0.6365,-0.4374,-0.3108,-0.3144,0.0,0.0,0.0,0.0,0.0,0.0,0.0,0.0,0.0,0.0,0.0,0.0,0.0,0.0,0.0,0.0,0.0,0.0,0.0,0.0,0.0,0.0,0.0,0.0,0.0,0.0,0.0,0.0,0.0,0.0,0.0,0.0,0.0,0.0,0.0,0.0,0.0,0.0,0.0,0.0,0.0,0.0,0.0,0.0,0.0,0.0,0.0,0.0,0.0,0.0,0.0,0.0,0.0,0.0,0.0,0.0,0.0,0.0,0.0,0.0,0.0,0.0,0.0,0.0,0.0,0.0,0.0,0.0,0.0,0.0,0.0,0.0,0.0,0.0,0.0,0.0,0.0,0.0,0.0,0.0,0.0,0.0,0.0,0.0,0.0,0.0,0.0,0.0,0.0,0.0,0.0,0.0,0.0,0.0,0.0,0.0,0.0,0.0,0.0,0.0,0.0,0.0,-0.7684,-0.7198,-0.7023,-0.7817,-0.6712,-0.6043,-0.6365,-0.37,-0.2225,0.0,0.0,0.0,0.0,0.0,0.0,0.0,0.0,0.0,0.0,0.0,0.0,0.0,0.0,0.0,0.0,0.0,0.0,0.0,0.0,0.0,0.0,0.0,0.0,0.0,0.0,0.0,0.0,0.0,0.0,0.0,0.0,0.0,0.0,0.0,0.0,0.0,0.0,0.0,0.0,0.0,0.0,0.0,0.0,0.0,0.0,0.0,0.0,0.0,0.0,0.0,0.0,0.0,0.0,0.0,0.0,0.0,0.0,0.0,0.0,0.0,0.0,0.0,0.0,0.0,0.0,0.0,0.0,0.0,0.0,0.0,0.0,0.0,0.0,0.0,0.0,0.0,0.0,0.0,0.0,0.0,0.0,0.0,0.0,0.0,0.0,0.0,0.0,0.0,0.0,0.0,0.0,0.0,0.0,0.0,0.0,0.0,0.0,0.0,0.0,0.0,0.0,0.0,-0.7254,-0.749,-0.7639,-0.7884,-0.7122,-0.6455,-0.6072,-0.3558,-0.2332,-0.3104,0.0,0.0,0.0,0.0,0.0,0.0,0.0,0.0,0.0,0.0,0.0,0.0,0.0,0.0,0.0,0.0,0.0,0.0,0.0,0.0,0.0,0.0,0.0,0.0,0.0,0.0,0.0,0.0,0.0,0.0,0.0,0.0,0.0,0.0,0.0,0.0,0.0,0.0,0.0,0.0,0.0,0.0,0.0,0.0,0.0,0.0,0.0,0.0,0.0,0.0,0.0,0.0,0.0,0.0,0.0,0.0,0.0,0.0,0.0,0.0,0.0,0.0,0.0,0.0,0.0,0.0,0.0,0.0,0.0,0.0,0.0,0.0,0.0,0.0,0.0,0.0,0.0,0.0,0.0,0.0,0.0,0.0,0.0,0.0,0.0,0.0,0.0,0.0,0.0,0.0,0.0,0.0,0.0,0.0,0.0,0.0,0.0,0.0,0.0,0.0,0.0,0.0,-0.7209,-0.7672,-0.7899,-0.7899,-0.7301,-0.6846,-0.6712,-0.3805,-0.1988,-0.1981,0.0,0.0,0.0,0.0,0.0,0.0,0.0,0.0,0.0,0.0,0.0,0.0,0.0,0.0,0.0,0.0,0.0,0.0,0.0,0.0,0.0,0.0,0.0,0.0,0.0,0.0,0.0,0.0,0.0,0.0,0.0,0.0,0.0,0.0,0.0,0.0,0.0,0.0,0.0,0.0,0.0,0.0,0.0,0.0,0.0,0.0,0.0,0.0,0.0,0.0,0.0,0.0,0.0,0.0,0.0,0.0,0.0,0.0,0.0,0.0,0.0,0.0,0.0,0.0,0.0,0.0,0.0,0.0,0.0,0.0,0.0,0.0,0.0,0.0,0.0,0.0,0.0,0.0,0.0,0.0,0.0,0.0,0.0,0.0,0.0,0.0,0.0,0.0,0.0,0.0,0.0,0.0,0.0,0.0,0.0,0.0,0.0,0.0,0.0,0.0,0.0,0.0,-0.735,-0.7717,-0.7827,-0.7827,-0.7239,-0.7134,-0.7832,-0.4384,-0.1547,-0.0089,0.0,0.0,0.0,0.0,0.0,0.0,0.0,0.0,0.0,0.0,0.0,0.0,0.0,0.0,0.0,0.0,0.0,0.0,0.0,0.0,0.0,0.0,0.0,0.0,0.0,0.0,0.0,0.0,0.0,0.0,0.0,0.0,0.0,0.0,0.0,0.0,0.0,0.0,0.0,0.0,0.0,0.0,0.0,0.0,0.0,0.0,0.0,0.0,0.0,0.0,0.0,0.0,0.0,0.0,0.0,0.0,0.0,0.0,0.0,0.0,-0.1204,0.0,0.0,0.0,0.0,0.0,0.0,0.0,0.0,0.0,0.0,0.0,0.0,0.0,0.0,0.0,0.0,0.0,0.0,0.0,0.0,0.0,0.0,0.0,0.0,0.0,0.0,0.0,0.0,0.0,0.0,0.0,0.0,0.0,0.0,0.0,0.0,0.0,0.0,0.0,0.0,0.0,-0.6895,-0.7223,-0.7349,-0.7349,-0.6843,-0.6883,-0.7818,-0.5192,-0.2489,-0.0149,-0.0617,0.0,0.0,0.0,0.0,0.0,0.0,0.0,0.0,0.0,0.0,0.0,0.0,0.0,0.0,0.0,0.0,0.0,0.0,0.0,0.0,0.0,0.0,0.0,0.0,0.0,0.0,0.0,0.0,0.0,0.0,0.0,0.0,0.0,0.0,0.0,0.0,0.0,0.0,0.0,0.0,0.0,0.0,0.0,0.0,0.0,0.0,0.0,0.0,0.0,0.0,0.0,0.0,0.0,0.0,0.0,0.0,0.0,0.0,0.0,0.0,-0.1432,0.0,0.0,0.0,0.0,0.0,0.0,0.0,0.0,0.0,0.0,0.0,0.0,0.0,0.0,0.0,0.0,0.0,0.0,0.0,0.0,0.0,0.0,0.0,0.0,0.0,0.0,0.0,0.0,0.0,0.0,0.0,0.0,0.0,0.0,0.0,0.0,0.0,0.0,0.0,0.0,-0.6637,-0.701,-0.7195,-0.7195,-0.6948,-0.6681,-0.643,-0.486,-0.2788,-0.0164,0.0,0.0,0.0,0.0,0.0,0.0,0.0,0.0,0.0,0.0,0.0,0.0,0.0,0.0,0.0,0.0,0.0,0.0,0.0,0.0,0.0,0.0,0.0,0.0,0.0,0.0,0.0,0.0,0.0,0.0,0.0,0.0,0.0,0.0,0.0,0.0,0.0,0.0,0.0,0.0,0.0,0.0,0.0,0.0,0.0,0.0,0.0,0.0,0.0,0.0,0.0,0.0,0.0,0.0,-0.1156,-0.1223,-0.1477,-0.1199,-0.0958,-0.0764,-0.103,-0.1356,-0.173,-0.1948,0.0,0.0,0.0,0.0,0.0,0.0,0.0,0.0,0.0,0.0,0.0,0.0,0.0,0.0,0.0,0.0,0.0,0.0,0.0,0.0,0.0,0.0,0.0,0.0,-0.5156,-0.4981,0.0,0.0,0.0,0.0,0.0,0.0,0.0,0.0,0.0,0.0,0.0,0.0,-0.6503,-0.6888,-0.7098,-0.7098,-0.7011,-0.6459,-0.5219,-0.4304,-0.2705,-0.016,0.0,0.0,0.0,0.0,0.0,0.0,0.0,0.0,0.0,0.0,0.0,0.0,0.0,0.0,0.0,0.0,0.0,0.0,0.0,0.0,0.0,0.0,0.0,0.0,0.0,0.0,0.0,0.0,0.0,0.0,0.0,0.0,0.0,0.0,-0.2179,-0.2604,0.0,0.0,0.0,0.0,0.0,0.0,0.0,0.0,0.0,0.0,0.0,0.0,0.0,-0.2594,-0.2635,-0.1747,-0.1362,-0.1459,-0.0589,-0.0197,-0.0236,-0.0197,-0.0153,-0.0132,-0.0405,0.0,-0.1369,-0.1409,0.0,0.0,0.0,0.0,0.0,0.0,0.0,0.0,0.0,0.0,0.0,0.0,0.0,0.0,0.0,0.0,0.0,0.0,0.0,0.0,0.0,0.0,-0.5413,-0.565,-0.539,-0.5078,0.0,-0.4834,-0.4598,-0.4327,-0.4192,0.0,0.0,0.0,0.0,0.0,0.0,0.0,-0.649,-0.6646,-0.6681,-0.6681,-0.6265,-0.6079,-0.6339,-0.4525,-0.2407,-0.0142,0.0,0.0,0.0,-0.0396,0.0,0.0,0.0,0.0,0.0,0.0,0.0,0.0,0.0,0.0,0.0,0.0,0.0,0.0,0.0,0.0,0.0,0.0,0.0,0.0,0.0,0.0,0.0,0.0,0.0,0.0,0.0,0.0,0.0,-0.267,-0.2446,-0.2821,-0.2474,-0.2204,0.0,0.0,0.0,0.0,0.0,0.0,0.0,0.0,0.0,-0.2437,-0.2416,-0.2284,-0.2002,-0.1538,-0.1335,-0.1386,-0.0948,-0.0729,-0.0733,-0.0655,-0.0619,-0.0622,-0.0661,-0.1024,-0.1585,-0.1585,-0.201,-0.2655,0.0,0.0,0.0,0.0,-0.3537,-0.3874,-0.4137,-0.413,0.0,-0.4219,0.0,0.0,0.0,0.0,0.0,0.0,0.0,0.0,0.0,0.0,-0.538,-0.5714,-0.5348,-0.5037,-0.5405,-0.5071,-0.471,0.0,-0.5284,-0.5513,-0.483,0.0,0.0,0.0,0.0,-0.5522,-0.5923,-0.612,-0.6242,-0.6362,-0.6066,-0.5936,-0.614,-0.5536,-0.3955,-0.1136,-0.0354,0.0,0.0,0.0,-0.0914,0.0,0.0,0.0,0.0,0.0,0.0,0.0,0.0,0.0,0.0,0.0,0.0,0.0,0.0,0.0,0.0,0.0,0.0,0.0,0.0,0.0,0.0,0.0,0.0,0.0,0.0,0.0,0.0,-0.29,-0.2776,-0.2999,-0.2539,-0.2192,0.0,0.0,0.0,0.0,0.0,0.0,-0.2906,-0.3018,-0.287,-0.2337,-0.2326,-0.2105,-0.1667,-0.1575,-0.1516,-0.148,-0.1414,-0.1356,-0.1295,-0.116,-0.114,-0.12,-0.1155,-0.1424,-0.1898,-0.1825,-0.2198,-0.2816,-0.2874,-0.3352,-0.3981,-0.3798,-0.4019,-0.4422,-0.4621,-0.4569,-0.4429,-0.4603,0.0,-0.4451,-0.4264,0.0,0.0,0.0,0.0,-0.4614,-0.5122,-0.5171,-0.5214,-0.5702,-0.5361,-0.5069,-0.5668,-0.5532,-0.5234,0.0,-0.5761,-0.6154,-0.5333,0.0,0.0,0.0,0.0,-0.5454,-0.5576,-0.5782,-0.5954,-0.6103,-0.5979,-0.5878,-0.5828,-0.6303,-0.5316,-0.2297,-0.0783,0.0,0.0,0.0,0.0,0.0,0.0,0.0,0.0,0.0,0.0,0.0,0.0,0.0,0.0,0.0,0.0,0.0,0.0,0.0,0.0,0.0,0.0,0.0,0.0,0.0,0.0,0.0,0.0,0.0,0.0,0.0,0.0,0.0,0.0,-0.3071,-0.2559,0.0,0.0,0.0,0.0,-0.2672,-0.2816,-0.2903,-0.2903,-0.3031,-0.2967,-0.2692,-0.2675,-0.2659,-0.2623,-0.2307,-0.2098,-0.1966,-0.17,-0.1479,-0.1293,-0.116,-0.1233,-0.1496,-0.167,-0.1916,-0.2166,-0.1909,-0.2307,-0.3102,-0.3359,-0.368,-0.4025,-0.4269,-0.4376,-0.4409,-0.4422,-0.4416,-0.4509,-0.5144,-0.5548,-0.568,-0.4969,-0.4945,0.0,0.0,-0.4585,-0.4871,-0.5277,-0.5108,-0.4998,-0.5729,-0.5527,-0.5293,-0.5711,-0.6378,-0.6448,0.0,-0.4772,-0.472,-0.4414,0.0,-0.4518,-0.504,-0.5117,-0.5308,-0.5817,-0.5893,-0.5911,-0.5909,-0.59,-0.59,-0.5893,-0.6331,-0.563,-0.3365,-0.1199,0.0,0.0,0.0,0.0,0.0,-0.4345,0.0,0.0,0.0,0.0,0.0,0.0,0.0,0.0,0.0,0.0,0.0,0.0,0.0,0.0,0.0,0.0,0.0,0.0,0.0,0.0,0.0,0.0,0.0,0.0,0.0,0.0,0.0,0.0,-0.3101,-0.2908,0.0,-0.2476,-0.2493,-0.2567,-0.2688,-0.2823,-0.2896,-0.2896,-0.3025,-0.3052,-0.2964,-0.2964,-0.2964,-0.2964,-0.2847,-0.2854,-0.3027,-0.3111,-0.3107,-0.3047,-0.3076,-0.3052,-0.2976,-0.2924,-0.3213,-0.3731,-0.3639,-0.3662,-0.3764,-0.3997,-0.4761,-0.5736,-0.5755,-0.5922,-0.6143,-0.6143,-0.5656,-0.5017,-0.4822,-0.4955,-0.5111,-0.4678,-0.4733,-0.4906,-0.4711,-0.4725,-0.4885,-0.5248,-0.5232,-0.5251,-0.577,-0.5413,-0.5183,-0.6061,-0.6105,-0.5888,-0.5588,-0.6092,-0.6275,-0.5357,-0.5094,-0.4962,-0.4863,-0.4698,-0.4717,-0.5088,-0.4972,-0.5011,-0.5346,-0.5232,-0.5261,-0.5621,-0.5639,-0.4964,-0.3405,-0.1224,0.0,0.0,0.0,0.0,0.0,-0.2954,-0.3746,0.0,0.0,0.0,0.0,0.0,0.0,0.0,0.0,0.0,0.0,0.0,0.0,0.0,0.0,0.0,0.0,0.0,0.0,0.0,0.0,0.0,0.0,0.0,0.0,0.0,-0.3384,-0.3259,-0.3327,-0.3228,-0.3079,-0.2853,-0.2942,-0.2983,-0.291,-0.3093,-0.3185,-0.3137,-0.3269,-0.3324,-0.3276,-0.3451,-0.3426,-0.3198,-0.3623,-0.3812,-0.3744,-0.4176,-0.4341,-0.4297,-0.4331,-0.4306,-0.4262,-0.3932,-0.4228,-0.4927,-0.4889,-0.4905,-0.4973,-0.4975,-0.5678,-0.6727,-0.6908,-0.7124,-0.7299,-0.6991,-0.6317,-0.548,-0.4884,-0.483,-0.4935,-0.4756,-0.483,-0.4968,-0.4968,-0.4968,-0.5015,-0.5246,-0.5293,-0.5372,-0.5625,-0.5323,-0.5244,-0.6276,-0.6123,-0.5931,-0.6467,-0.6836,-0.6689,-0.5531,-0.522,-0.5099,-0.4995,-0.4514,-0.4387,-0.502,-0.4635,-0.4436,-0.4796,-0.4667,-0.4716,-0.5059,-0.5204,-0.4641,-0.3153,-0.1134,-0.0664,-0.2166,-0.2229,-0.2229,-0.2229,-0.258,-0.2587,-0.2237,0.0,0.0,0.0,0.0,0.0,0.0,0.0,0.0,0.0,0.0,0.0,0.0,0.0,0.0,0.0,0.0,0.0,0.0,0.0,0.0,0.0,0.0,0.0,-0.3693,-0.3381,-0.328,-0.3731,-0.3516,-0.3269,-0.3135,-0.3415,-0.3531,-0.3333,-0.361,-0.3737,-0.3617,-0.374,-0.375,-0.3633,-0.4114,-0.4079,-0.3448,-0.4679,-0.4867,-0.406,-0.4814,-0.5082,-0.4939,-0.4763,-0.487,-0.5203,-0.4683,-0.4914,-0.566,-0.5522,-0.5979,-0.673,-0.6299,-0.6395,-0.6868,-0.7641,-0.7903,-0.7737,-0.6836,-0.6264,-0.5874,-0.5449,-0.5306,-0.5293,-0.5293,-0.5306,-0.5313,-0.5313,-0.532,-0.532,-0.5313,-0.5313,-0.5306,-0.53,-0.5293,-0.5522,-0.6305,-0.6496,-0.6732,-0.7514,-0.6773,-0.5737,-0.4802,-0.4653,-0.4837,-0.5364,-0.4569,0.0,-0.5666,-0.4921,-0.4293,-0.4332,-0.4332,-0.4332,-0.4332,-0.5088,-0.4738,-0.2825,-0.1005,-0.1928,-0.6211,-0.6524,-0.6599,-0.6599,-0.3344,-0.2199,-0.3306,0.0,0.0,0.0,0.0,0.0,0.0,0.0,0.0,0.0,0.0,0.0,0.0,0.0,0.0,0.0,0.0,0.0,0.0,0.0,0.0,0.0,-0.3277,-0.2832,-0.266,-0.311,-0.3464,-0.3432,-0.3657,-0.3751,-0.3622,-0.3785,-0.3836,-0.368,-0.3849,-0.389,-0.3741,-0.3771,-0.4024,-0.4527,-0.4073,-0.4047,-0.4494,-0.4834,-0.498,-0.4959,-0.603,-0.6405,-0.6136,-0.6282,-0.6188,-0.5916,-0.5773,-0.621,-0.7057,-0.7007,-0.7538,-0.8252,-0.7121,-0.737,-0.8385,-0.8502,-0.8793,-0.8938,-0.772,-0.7072,-0.6634,-0.5851,-0.5451,-0.5293,-0.5293,-0.5431,-0.5591,-0.5591,-0.5769,-0.59,-0.5651,-0.5591,-0.5538,-0.5347,-0.5293,-0.5435,-0.596,-0.6229,-0.6504,-0.702,-0.6867,-0.6447,-0.5797,-0.5681,-0.5404,-0.4544,-0.4166,0.0,-0.4406,-0.4018,-0.409,-0.5065,-0.5176,-0.5176,-0.5176,-0.4859,-0.4753,-0.4983,-0.1847,-0.0551,-0.1766,-0.4896,-0.6599,-0.6599,-0.2558,-0.1401,0.0,0.0,0.0,0.0,0.0,0.0,0.0,0.0,0.0,0.0,0.0,0.0,0.0,0.0,0.0,0.0,0.0,0.0,0.0,0.0,0.0,0.0,-0.3354,-0.3013,-0.2635,-0.3172,-0.3615,-0.3668,-0.3906,-0.4177,-0.4403,-0.4542,-0.4696,-0.4865,-0.5002,-0.5022,-0.4885,-0.4901,-0.5057,-0.5443,-0.5195,-0.519,-0.5438,-0.5914,-0.613,-0.6067,-0.6995,-0.7327,-0.7161,-0.7299,-0.7233,0.0,-0.6827,-0.718,-0.7905,-0.8018,-0.8311,0.0,0.0,0.0,0.0,0.0,-0.9301,-0.9389,-0.8003,-0.7277,-0.6863,-0.6138,-0.5802,-0.5685,-0.5685,-0.5782,-0.5916,-0.5916,-0.6043,-0.6101,-0.5659,-0.5526,-0.5429,-0.5021,-0.4917,-0.5031,-0.5436,-0.5848,-0.625,-0.6651,-0.6831,0.0,-0.6259,-0.5976,-0.5585,-0.4937,-0.4454,-0.427,-0.457,-0.4082,-0.3947,-0.4593,-0.4657,-0.4657,-0.4657,-0.4443,0.0,0.0,0.0,-0.1575,-0.1916,-0.4536,0.0,0.0,0.0,-0.2483,-0.1918,0.0,0.0,0.0,-0.2349,-0.2522,0.0,0.0,0.0,0.0,0.0,0.0,0.0,0.0,0.0,0.0,0.0,0.0,0.0,0.0,0.0,0.0,-0.3475,-0.3478,-0.3271,-0.3569,-0.3916,-0.4277,-0.4339,-0.4628,-0.5358,-0.5543,-0.5842,-0.637,-0.6516,-0.6541,-0.6422,0.0,0.0,0.0,0.0,-0.6791,-0.6347,-0.7357,-0.761,-0.7164,-0.7714,-0.7985,-0.7959,-0.7959,-0.8003,-0.8067,-0.7702,-0.7852,-0.8372,-0.8593,-0.8593,-0.8467,-0.8848,-0.9171,-0.943,-0.9438,-0.9474,-0.9309,-0.7934,0.0,0.0,-0.6385,-0.6216,-0.6196,-0.6196,-0.6216,-0.6243,-0.6243,-0.6233,-0.6077,-0.55,-0.5305,-0.5104,-0.4537,-0.4399,-0.4508,-0.4864,-0.5373,-0.5888,-0.6244,-0.6512,-0.6552,-0.6166,-0.5751,-0.5547,-0.5827,-0.5054,-0.4686,-0.5382,-0.4637,-0.3961,-0.3756,0.0,0.0,-0.3684,-0.4156,-0.3875,-0.252,-0.3043,-0.3763,-0.4545,-0.4793,-0.4381,-0.3249,-0.4961,-0.3919,-0.0,-0.1012,-0.1709,-0.2097,-0.1699,-0.2022,0.0,0.0,0.0,0.0,0.0,0.0,0.0,0.0,0.0,0.0,0.0,0.0,0.0,0.0,0.0,-0.3935,-0.3556,-0.3411,-0.405,-0.4626,-0.5009,-0.5086,-0.5194,-0.5486,-0.6113,-0.632,-0.6386,-0.6396,-0.6516,-0.6541,-0.6422,-0.6406,-0.6666,-0.7228,-0.6681,-0.6646,-0.7253,-0.746,-0.7535,-0.7435,0.0,0.0,-0.8315,-0.8315,-0.8172,-0.7936,-0.7866,-0.8122,-0.8632,-0.867,-0.8913,-0.9247,-0.9021,-0.8665,-0.8377,-0.8969,-0.9039,-0.8779,-0.8051,-0.7581,-0.7193,-0.6694,-0.6365,-0.6196,-0.6196,-0.6357,0.0,-0.6526,-0.6373,-0.6109,-0.5713,-0.5298,-0.4888,-0.45,-0.4399,-0.4418,-0.4508,-0.4821,-0.5108,-0.5202,-0.5243,-0.5203,-0.4968,-0.5411,-0.5628,-0.5103,-0.4855,-0.4705,-0.4647,-0.4453,-0.455,-0.5127,-0.5191,-0.5087,-0.4821,-0.5181,-0.4803,-0.336,-0.3402,-0.377,-0.4408,-0.4037,-0.3473,-0.2751,-0.1776,-0.0851,-0.0,-0.0215,-0.18,-0.4538,-0.1665,-0.0442,0.0,0.0,0.0,0.0,0.0,0.0,0.0,0.0,0.0,0.0,0.0,-0.3907,-0.4406,0.0,-0.3774,-0.4136,-0.3885,-0.3964,-0.4832,-0.5216,-0.5544,-0.592,-0.6008,-0.6318,-0.6986,-0.711,-0.7266,-0.7587,-0.7673,-0.7664,-0.7613,-0.7607,-0.7763,-0.8132,-0.7738,-0.7701,-0.8132,-0.8158,-0.8158,-0.8158,-0.86,-0.8731,-0.8591,-0.8591,-0.851,-0.8345,-0.8345,-0.8514,-0.8749,-0.8749,-0.9019,-0.9407,-0.9017,-0.8815,-0.877,-0.8868,-0.8817,-0.8611,-0.7932,-0.7681,-0.756,-0.6983,-0.6827,-0.6854,-0.6854,-0.6955,-0.6985,-0.6689,-0.6511,-0.6199,-0.5281,-0.4843,-0.4547,-0.4107,-0.4008,-0.3925,-0.362,-0.3885,-0.4206,-0.4188,-0.4337,-0.4506,-0.4705,-0.4965,-0.497,-0.4483,-0.4394,-0.4286,-0.3991,-0.3943,-0.4051,-0.4329,-0.4348,-0.4288,-0.4116,-0.4467,-0.4387,-0.3645,-0.3701,-0.3948,-0.4382,-0.4202,-0.3869,-0.3363,-0.2892,-0.2211,-0.1299,-0.0426,-0.1363,-0.3928,-0.3062,-0.1695,0.0,0.0,0.0,0.0,0.0,0.0,0.0,-0.3977,-0.3947,-0.4021,-0.4088,-0.4169,-0.4299,-0.434,-0.434,-0.4272,-0.4264,-0.4538,-0.5385,-0.5624,-0.5982,-0.6723,-0.6804,-0.7101,-0.783,-0.791,-0.8156,-0.8752,-0.8804,-0.8804,-0.8804,-0.8804,-0.8804,-0.8804,-0.8804,-0.8804,-0.8804,-0.8804,-0.8804,-0.8804,-0.8804,-0.8725,-0.8593,-0.8725,-0.8725,-0.8593,-0.8725,-0.8804,-0.8804,-0.8804,-0.8994,-0.9255,-0.8912,-0.903,-0.9298,-0.882,-0.8596,-0.8463,-0.7795,-0.7682,-0.7732,-0.7246,-0.7268,-0.7513,-0.7513,-0.7434,-0.727,-0.6768,-0.647,-0.5961,-0.4623,-0.4201,-0.3961,-0.3384,-0.3251,-0.3118,-0.2619,-0.2866,-0.3166,-0.3175,-0.3392,-0.3713,-0.419,-0.403,-0.3915,-0.4056,-0.4046,-0.3935,-0.3668,-0.3609,-0.3487,-0.3203,-0.3179,-0.3165,-0.3108,-0.3464,-0.3704,-0.3704,-0.3943,-0.4194,-0.4462,-0.4583,-0.4542,-0.4342,-0.4898,-0.4509,-0.3122,-0.1713,-0.175,-0.3164,-0.4623,-0.339,-0.6017,-0.5195,-0.4426,-0.5039,-0.4323,-0.3792,0.0,-0.4439,-0.3744,-0.4105,-0.3987,-0.3888,-0.401,-0.4133,-0.4276,-0.444,-0.4467,-0.4714,-0.5406,-0.6064,-0.6745,-0.7482,-0.7584,-0.7857,-0.8613,-0.8672,-0.8725,-0.8804,-0.8804,-0.8804,-0.8804,-0.8804,-0.8804,-0.8804,-0.8804,-0.8804,-0.8804,-0.8804,-0.8804,-0.8804,-0.8804,-0.8454,-0.7857,-0.8507,-0.8454,-0.7857,-0.8507,-0.8804,-0.8804,-0.8804,-0.8837,-0.8862,-0.8817,-0.8843,-0.8852,-0.8543,-0.8254,-0.797,-0.7889,-0.7722,-0.7531,-0.7464,-0.7464,-0.7513,-0.7513,-0.7222,-0.686,-0.6788,-0.5954,-0.489,-0.4077,-0.3461,-0.2901,-0.216,-0.2011,-0.1988,-0.192,-0.194,-0.1987,-0.1995,-0.2025,-0.2033,-0.198,-0.1945,-0.2465,-0.4116,-0.4254,-0.4157,-0.4133,-0.402,-0.3815,-0.3491,-0.3452,-0.3361,-0.3123,-0.3464,-0.3704,-0.3704,-0.4119,-0.4476,-0.4748,-0.4549,-0.4663,-0.5159,-0.4904,-0.4851,-0.4998,-0.4797,-0.4804,-0.5005,-0.5199,-0.339,-0.6147,-0.5782,-0.5343,-0.521,-0.4762,-0.4412,-0.4692,-0.4398,-0.406,-0.4089,-0.4049,-0.4078,-0.425,-0.4328,-0.4392,-0.4481,-0.4491,-0.4732,-0.5406,-0.5694,-0.613,-0.6864,-0.7307,-0.7898,-0.8712,-0.8401,-0.8156,-0.8156,-0.775,-0.7509,-0.7509,-0.7509,-0.7509,-0.7509,-0.7509,-0.7509,-0.7509,-0.7937,-0.7937,-0.7536,-0.7963,-0.7777,-0.7074,-0.7369,-0.7348,-0.7074,-0.7375,-0.7777,-0.8129,-0.7696,-0.8023,-0.8752,-0.8321,-0.8427,-0.8791,-0.8671,-0.855,-0.8341,-0.7766,-0.7523,-0.7368,-0.6585,-0.647,-0.6613,-0.6613,-0.6544,-0.6377,-0.6032,-0.5225,-0.4314,-0.3502,-0.2761,-0.2186,-0.1885,-0.181,-0.1694,-0.1345,-0.1279,-0.1267,-0.1269,-0.1287,-0.137,-0.1658,-0.1726,-0.1983,-0.2772,-0.2979,-0.3034,-0.3034,-0.3232,-0.3276,-0.3059,-0.3039,-0.2991,-0.2877,-0.3483,-0.3876,-0.3876,-0.4357,-0.4775,-0.5084,-0.4802,-0.4835,-0.5286,-0.5132,-0.5132,-0.5293,-0.5293,-0.5293,-0.5293,-0.5293,-0.3941,-0.6153,-0.5926,-0.5567,-0.5045,-0.4829,-0.4638,-0.4287,-0.4266,-0.4293,-0.4085,-0.4146,-0.424,-0.4328,-0.4561,-0.4644,-0.4457,-0.4625,-0.4869,-0.5191,-0.5412,-0.5782,-0.639,-0.7223,-0.7954,-0.8455,-0.8017,-0.7616,-0.7396,-0.6912,-0.6588,-0.6588,-0.6588,-0.6588,-0.6588,-0.6588,-0.6588,-0.6588,-0.7128,-0.7128,-0.6615,-0.7128,-0.702,-0.6285,-0.6285,-0.6421,-0.6588,-0.6588,-0.6912,-0.7343,-0.6831,-0.7235,-0.8129,-0.7616,-0.7723,-0.8182,-0.8182,-0.8321,-0.8396,-0.7668,-0.7271,-0.6936,-0.5957,-0.5756,-0.5903,-0.5903,-0.5928,-0.5862,-0.5431,-0.4673,-0.3782,-0.2916,-0.2149,-0.1555,-0.1348,-0.1296,-0.1176,-0.0752,-0.0662,-0.0655,-0.0645,-0.0656,-0.0793,-0.1226,-0.1291,-0.1296,-0.131,-0.1791,-0.2183,-0.2262,-0.2644,-0.2866,-0.2774,-0.2723,-0.2696,-0.2696,-0.3504,-0.3993,-0.3993,-0.4596,-0.5057,-0.5286,-0.507,-0.5048,-0.5293,-0.5166,-0.5103,-0.5103,-0.4992,-0.4944,-0.4944,-0.5017,-0.4256,-0.6106,-0.5245,-0.4455,-0.4429,-0.4128,-0.3911,-0.4132,-0.4206,-0.421,-0.4187,-0.419,-0.4153,-0.4035,-0.4711,-0.5054,-0.4332,-0.4927,-0.5246,-0.4625,-0.5487,-0.6271,-0.6553,-0.765,-0.8203,-0.778,-0.7723,-0.7396,-0.6696,-0.6615,-0.6588,-0.6588,-0.6588,-0.6588,-0.6588,-0.6588,-0.6588,-0.6588,-0.6615,-0.6615,-0.6588,-0.6615,-0.6253,-0.5538,-0.5538,-0.5923,-0.6588,-0.6588,-0.6615,-0.6642,-0.6615,-0.6615,-0.6669,-0.6642,-0.6642,-0.6669,-0.6669,-0.7128,-0.7723,-0.7685,-0.6967,-0.6034,-0.5994,-0.5866,-0.571,-0.571,-0.5542,-0.5328,-0.5302,-0.4385,-0.3226,-0.2419,-0.167,-0.0948,-0.0223,-0.0056,-0.0056,-0.0028,-0.0028,-0.0028,-0.0028,-0.0027,-0.0027,-0.0053,-0.0052,-0.005,-0.005,-0.1179,-0.2112,-0.2446,-0.2723,-0.2889,-0.2903,-0.2785,-0.2696,-0.2696,-0.3504,-0.3993,-0.3993,-0.4804,-0.5286,-0.5293,-0.5286,-0.5286,-0.5293,-0.4858,-0.4612,-0.4612,-0.4231,-0.4042,-0.4042,-0.4301,-0.4086,-0.5587,-0.5074,-0.4709,-0.4626,-0.4338,-0.4122,-0.4345,-0.4291,-0.4167,-0.4092,-0.4072,-0.4055,-0.4004,-0.4557,-0.4898,-0.4466,-0.4873,-0.506,-0.4556,-0.4706,-0.4913,-0.4998,-0.5809,-0.6081,-0.5444,-0.6796,-0.7203,-0.595,-0.5869,-0.5683,-0.5226,-0.5199,-0.5199,-0.5199,-0.5286,-0.5345,-0.5345,-0.5921,-0.5956,-0.5463,-0.5375,-0.5264,-0.5104,-0.4913,-0.5076,-0.5451,-0.5274,-0.5539,-0.6033,-0.544,-0.5746,-0.6561,-0.6064,-0.6172,-0.6588,-0.6588,-0.6443,-0.6249,-0.6249,-0.5941,-0.5463,-0.4957,-0.4711,-0.4589,-0.4682,-0.4646,-0.4606,-0.4735,-0.3726,-0.2538,-0.2258,-0.1284,-0.0308,-0.0056,0.0,0.0,0.0,0.0,0.0,0.0,0.0,0.0,0.0,0.0,-0.0296,-0.118,-0.1627,-0.2198,-0.3115,-0.32,-0.3122,-0.304,-0.2983,-0.2971,-0.2971,-0.343,-0.3729,-0.3729,-0.4169,-0.4447,-0.4447,-0.4447,-0.4447,-0.4447,-0.428,-0.4199,-0.4199,-0.4075,-0.3993,-0.3999,-0.4003,-0.3897,-0.5223,-0.4872,-0.4564,-0.428,-0.4033,-0.3845,-0.3713,-0.3708,-0.3682,-0.3497,-0.3819,-0.4106,-0.4016,-0.4617,-0.509,-0.5036,-0.5302,-0.5332,-0.4918,-0.4889,-0.488,-0.4795,-0.5309,-0.5481,-0.4912,-0.6434,-0.6832,-0.5258,-0.5136,-0.4974,-0.4597,-0.4573,-0.4597,-0.4651,-0.4721,-0.4772,-0.4772,-0.5314,-0.5211,-0.4424,-0.4001,-0.3854,-0.3956,-0.4095,-0.4259,-0.4442,-0.4535,-0.488,-0.5362,-0.4748,-0.5034,-0.58,-0.5328,-0.5437,-0.5855,-0.5855,-0.555,-0.5164,-0.5406,-0.5241,-0.4841,-0.4351,-0.4119,-0.4011,-0.4112,-0.4153,-0.4214,-0.4362,-0.3536,-0.2565,-0.2286,-0.1312,-0.0336,-0.0056,0.0,0.0,0.0,0.0,0.0,0.0,0.0,0.0,0.0,-0.0224,-0.0778,-0.19,-0.2186,-0.2595,-0.3543,-0.3524,-0.335,-0.3179,-0.3135,-0.3101,-0.3101,-0.3408,-0.3597,-0.3597,-0.3846,-0.3993,-0.3993,-0.3993,-0.3993,-0.3993,-0.3842,-0.3782,-0.3858,-0.369,-0.3624,-0.3677,-0.359,-0.3641,-0.5008,-0.4625,-0.4044,-0.3467,-0.3269,-0.3072,-0.2397,-0.2566,-0.2831,-0.2623,-0.3549,-0.4303,-0.4078,-0.4841,-0.5577,-0.5875,-0.6043,-0.5972,-0.5527,-0.5853,-0.604,-0.5784,-0.6105,-0.622,-0.5972,-0.6593,-0.6312,-0.4647,0.0,-0.4604,-0.4694,-0.4704,-0.4769,-0.4884,-0.4864,-0.4836,-0.4836,-0.4813,-0.4384,-0.3548,-0.2649,-0.2219,-0.2251,-0.3142,-0.3543,-0.3602,-0.4269,-0.4565,-0.4581,-0.4426,-0.439,-0.4387,-0.438,-0.4377,-0.4377,-0.4377,-0.4405,-0.4515,-0.5132,-0.4846,-0.4207,-0.4207,-0.4129,-0.4008,-0.4014,-0.4112,-0.4197,-0.4204,-0.3812,-0.3231,-0.2454,-0.1675,-0.0923,-0.0224,-0.0028,0.0,0.0,0.0,0.0,0.0,0.0,0.0,0.0,-0.0615,-0.134,-0.2035,-0.2661,-0.3242,-0.3757,-0.3706,-0.3534,-0.3346,-0.3216,-0.3125,-0.3125,-0.3405,-0.3573,-0.3573,-0.38,-0.3928,-0.3928,-0.3928,-0.3928,-0.3896,-0.3487,-0.3361,-0.3521,-0.3111,-0.2969,-0.3101,-0.3111,-0.3347,-0.4701,-0.4226,-0.372,-0.3574,-0.3009,-0.252,-0.2676,-0.2663,-0.283,-0.3598,-0.3947,-0.4216,-0.4604,-0.5032,-0.5272,-0.5055,-0.5144,-0.5153,-0.4935,-0.5018,-0.5139,-0.5256,-0.5276,-0.5288,-0.5335,-0.5406,-0.5272,0.0,-0.5299,-0.5407,-0.4887,-0.486,-0.4877,-0.4887,-0.436,-0.409,-0.409,-0.3531,-0.3144,-0.2916,-0.2601,-0.2474,-0.2587,-0.2565,-0.2699,-0.2912,-0.2862,-0.2921,-0.3034,-0.2871,-0.2777,-0.2799,-0.2787,-0.2788,-0.2788,-0.2788,-0.3121,-0.3566,-0.3171,-0.3655,-0.4433,-0.4433,-0.4311,-0.4183,-0.4317,-0.43,-0.4244,-0.4379,-0.3932,-0.3345,-0.3093,-0.2063,-0.1062,-0.0866,-0.0392,0.0,0.0,0.0,0.0,0.0,0.0,0.0,0.0,-0.0615,-0.1174,-0.1341,-0.1966,-0.2846,-0.3949,-0.39,-0.3724,-0.3683,-0.3551,-0.3463,-0.3463,-0.3318,-0.3233,-0.3233,-0.3101,-0.3027,-0.3027,-0.3027,-0.2858,-0.251,-0.284,-0.2862,-0.2549,-0.2878,-0.3067,-0.3104,-0.3199,-0.331,-0.4784,-0.4198,-0.3537,-0.3191,-0.2407,-0.1852,-0.2303,-0.2431,-0.2738,-0.37,-0.4295,-0.4696,-0.4827,-0.4894,-0.5018,-0.5386,-0.509,-0.4886,-0.5142,-0.5239,-0.5078,-0.4589,-0.4509,-0.4368,-0.4075,-0.437,-0.4405,-0.3961,-0.4917,-0.5369,-0.5009,-0.4982,-0.4853,-0.45,-0.4116,-0.3689,-0.3331,-0.249,-0.2075,-0.2075,-0.1618,-0.1431,-0.1536,-0.1714,-0.1916,-0.2112,0.0,-0.2406,-0.2496,-0.2287,-0.2198,-0.219,-0.2204,-0.2202,-0.2202,-0.2202,-0.2454,-0.276,-0.2343,-0.276,-0.3539,-0.3901,-0.416,-0.4358,-0.4464,-0.4433,-0.4358,-0.4467,-0.4211,-0.379,-0.34,-0.2454,-0.1507,-0.1174,-0.0532,0.0,0.0,0.0,0.0,0.0,0.0,0.0,0.0,-0.0615,-0.109,-0.109,-0.173,-0.2465,-0.3234,-0.3135,-0.2995,-0.2921,-0.3089,-0.3214,-0.3214,-0.3188,-0.3202,-0.3222,-0.3002,-0.2754,-0.2482,-0.2479,-0.2238,-0.1703,-0.202,-0.2244,-0.2322,-0.2663,-0.3014,-0.3324,-0.3387,-0.3428,-0.4907,-0.4242,-0.3314,-0.2534,-0.1642,-0.1129,-0.1743,-0.2112,-0.2589,-0.3557,-0.4601,-0.5222,-0.4899,-0.4575,-0.4761,-0.5925,-0.5261,-0.4812,-0.5426,-0.5612,-0.5181,-0.3828,-0.3765,-0.3551,-0.281,-0.3618,-0.376,-0.2783,-0.3998,-0.4777,-0.4766,-0.4887,-0.4567,-0.3684,-0.3641,-0.3236,-0.2335,-0.1519,-0.1115,-0.1118,-0.0373,0.0,-0.0035,-0.0777,-0.1128,-0.1158,-0.1851,0.0,-0.2171,-0.1981,-0.1901,-0.1894,-0.192,-0.1894,-0.1894,-0.1894,-0.1979,-0.2035,-0.195,-0.2029,-0.2327,-0.3125,-0.3818,-0.4349,-0.446,-0.4491,-0.4491,-0.4491,-0.4491,-0.4349,-0.3649,-0.2899,-0.2147,-0.1424,-0.0671,-0.0112,-0.0028,0.0,0.0,0.0,0.0,0.0,0.0,-0.0532,-0.095,-0.095,-0.1507,-0.1898,-0.1898,-0.1954,-0.1949,-0.185,-0.2282,-0.2578,-0.2586,-0.2873,-0.3099,-0.3164,-0.2967,-0.262,-0.2106,-0.2086,-0.1813,-0.1228,-0.1384,-0.1777,-0.2409,-0.2571,-0.2976,-0.3604,-0.3604,-0.3604,-0.4246,-0.3539,-0.2787,-0.1774,-0.0836,-0.0565,-0.1968,-0.2086,-0.2517,-0.4702,-0.476,-0.4549,-0.4962,-0.4609,-0.4307,-0.4552,-0.433,-0.4078,-0.4005,-0.3998,-0.3768,-0.3139,-0.2963,-0.2901,-0.2865,-0.3558,-0.3655,-0.2783,-0.3614,-0.3866,-0.3154,-0.3804,-0.3446,-0.1826,-0.1754,-0.1367,-0.0467,-0.0317,-0.0211,-0.0216,-0.007,0.0,0.0,-0.0148,-0.0222,-0.0217,-0.036,0.0,-0.0448,-0.039,-0.0381,-0.038,-0.0368,-0.0394,-0.0394,-0.0394,-0.0758,-0.1211,-0.0607,-0.1191,-0.2342,-0.3151,-0.3456,-0.3622,-0.4294,-0.4491,-0.4491,-0.4491,-0.4491,-0.446,-0.4322,-0.3707,-0.2926,-0.2174,-0.1452,-0.0755,-0.014,0.0,0.0,0.0,0.0,0.0,0.0,-0.0112,-0.0196,-0.0196,-0.0308,-0.0392,-0.0392,-0.1323,-0.1999,-0.1975,-0.1972,-0.1946,-0.1945,-0.1912,-0.1908,-0.1908,-0.1727,-0.1558,-0.1467,-0.1448,-0.1254,-0.081,-0.1785,-0.2163,-0.1924,-0.2932,-0.3463,-0.3604,-0.3604,-0.3604,-0.412,-0.3042,-0.1951,-0.1416,-0.0822,-0.0788,-0.2391,-0.2769,-0.3271,-0.4944,-0.4952,-0.4644,-0.4537,-0.4179,-0.393,-0.4081,-0.3862,-0.3639,-0.3457,-0.3447,-0.3305,-0.2959,-0.2914,-0.2728,-0.2254,-0.3016,-0.2897,-0.141,-0.2637,-0.3223,-0.2716,-0.2646,-0.219,-0.1344,-0.0863,-0.0431,0.0,0.0,0.0,0.0,0.0,0.0,0.0,0.0,0.0,0.0,0.0,0.0,0.0,0.0,0.0,0.0,0.0,0.0,0.0,0.0,-0.0216,-0.0462,-0.0123,-0.0458,-0.1168,-0.194,-0.2431,-0.2788,-0.3176,-0.3314,-0.3372,-0.3763,-0.3901,-0.403,-0.4474,-0.4036,-0.3261,-0.252,-0.1415,-0.042,-0.0084,0.0,0.0,0.0,0.0,0.0,0.0,0.0,0.0,0.0,0.0,0.0,0.0,-0.0552,-0.097,-0.0962,-0.1182,-0.1343,-0.1341,-0.1555,-0.1713,-0.1713,-0.1614,-0.1413,-0.1096,-0.1096,-0.0852,-0.0346,-0.1222,-0.1715,-0.1796,-0.2695,-0.3284,-0.3604,-0.3604,-0.3604,-0.3791,-0.263,-0.1337,-0.1291,-0.097,-0.1161,-0.2931,-0.342,-0.3795,-0.4876,-0.4888,-0.4531,-0.3953,-0.3625,-0.3498,-0.3655,-0.3566,-0.3329,-0.2884,-0.2953,-0.2877,-0.2354,-0.2379,-0.2135,-0.1323,-0.2126,-0.1965,-0.0142,-0.1423,-0.232,-0.2393,-0.1524,-0.1029,-0.1026,-0.0367,0.0,0.0,0.0,0.0,0.0,0.0,0.0,0.0,0.0,0.0,0.0,0.0,0.0,0.0,0.0,0.0,0.0,0.0,0.0,0.0,0.0,0.0,0.0,0.0,0.0,-0.0093,-0.0666,-0.1371,-0.1999,-0.2151,-0.2202,-0.2313,-0.2899,-0.3093,-0.3314,-0.3981,-0.3719,-0.3112,-0.2366,-0.1071,0.0,0.0,0.0,0.0,0.0,0.0,0.0,0.0,0.0,0.0,0.0,0.0,0.0,0.0,0.0,0.0,0.0,-0.0432,-0.0703,-0.0715,-0.1131,-0.1403,-0.1403,-0.1403,-0.1205,-0.0734,-0.0712,-0.0495,0.0,-0.0723,-0.1317,-0.1808,-0.2563,-0.3187,-0.3648,-0.3648,-0.3648,-0.2705,-0.2119,-0.1508,-0.1196,-0.0897,-0.1299,-0.3577,-0.3413,-0.324,-0.479,-0.4235,-0.3442,-0.3376,-0.3144,-0.289,-0.2683,-0.3262,-0.3186,-0.1546,-0.1881,-0.1801,-0.0418,-0.0294,-0.0265,-0.0151,-0.0943,-0.1046,-0.0073,-0.0179,-0.0604,-0.137,-0.0603,-0.0108,-0.0113,-0.0038,0.0,0.0,0.0,0.0,0.0,0.0,0.0,0.0,0.0,0.0,0.0,0.0,0.0,0.0,0.0,0.0,0.0,0.0,0.0,0.0,0.0,0.0,0.0,0.0,0.0,0.0,-0.0064,-0.0615,-0.1336,-0.1999,-0.2202,-0.2204,-0.2286,-0.2313,-0.2333,-0.241,-0.2373,-0.2155,-0.14,-0.0599,0.0,0.0,0.0,0.0,0.0,0.0,0.0,0.0,0.0,0.0,0.0,0.0,0.0,0.0,0.0,0.0,0.0,-0.0054,-0.0077,-0.0072,-0.0143,-0.0166,-0.0166,-0.0166,-0.0142,-0.0094,-0.0094,-0.0046,0.0,-0.1134,-0.1734,-0.1808,-0.3078,-0.3725,-0.3771,-0.3771,-0.3771,-0.2374,-0.1582,-0.0685,-0.0923,-0.1111,-0.162,-0.3081,-0.3319,-0.3396,-0.3916,-0.3643,-0.3229,-0.299,-0.2926,-0.2882,-0.2863,-0.3143,-0.2948,-0.17,-0.1717,-0.1626,-0.1045,-0.0967,-0.0972,-0.0963,-0.1275,-0.1078,-0.0076,0.0,-0.0143,-0.0483,-0.0182,0.0,0.0,0.0,0.0,0.0,0.0,0.0,0.0,0.0,0.0,0.0,0.0,0.0,0.0,0.0,0.0,0.0,0.0,0.0,0.0,0.0,0.0,0.0,0.0,0.0342,0.0706,0.0168,0.0334,0.0692,0.0162,0.0159,0.0185,-0.0615,-0.0881,-0.0978,-0.1424,-0.1529,-0.1681,-0.2244,-0.2019,-0.1588,-0.1293,-0.0588,0.0,0.0,0.0,0.0,0.0,0.0,0.0,0.0,0.0,0.0,0.0,0.0,0.0,0.0,0.0,0.0,0.0,0.0,0.0,0.0,0.0,0.0,0.0,0.0,0.0,0.0,0.0,0.0,0.0,-0.0818,-0.1466,-0.1922,-0.2827,-0.3444,-0.3792,-0.3792,-0.3792,-0.2394,-0.1642,-0.07,-0.132,-0.1683,-0.2101,-0.2959,-0.3285,-0.3367,-0.3315,-0.3212,-0.3035,-0.2746,-0.2768,-0.2831,-0.2838,-0.3021,-0.2777,-0.1674,-0.1804,-0.1783,-0.1195,-0.1476,-0.1564,-0.1171,-0.1123,-0.0821,-0.0039,0.0221,0.0288,0.0,0.0257,0.0258,0.0,0.0,0.0,0.0,0.0,0.0,0.0,0.0,0.0,0.0,0.0,0.0,0.0,0.0,0.0,0.0,0.0459,0.064,0.092,0.092,0.0906,0.0922,0.0922,0.1294,0.1752,0.1136,0.13,0.1657,0.1063,0.124,0.1595,0.098,0.0591,0.0231,-0.0547,-0.0767,-0.0942,-0.1581,-0.134,-0.0914,-0.0914,-0.0447,0.0,0.0,0.0,0.0,0.0,0.0,0.0,0.0,0.0,0.0,0.0,0.0,0.0,0.0,0.0,0.0,0.0,0.0,-0.0081,-0.0319,-0.033,-0.0321,-0.0321,-0.0321,-0.0222,0.0,0.0,0.0,0.0,-0.0605,-0.1159,-0.1686,-0.2313,-0.2971,-0.3581,-0.3581,-0.3683,-0.2684,-0.2458,-0.1972,-0.2704,-0.2691,-0.2713,-0.3589,-0.3328,-0.2986,-0.3249,-0.299,-0.2696,-0.2696,-0.2699,-0.2588,-0.2266,-0.2823,-0.274,-0.113,-0.2054,-0.2178,-0.0252,-0.1186,-0.1467,-0.014,0.0,0.0,0.0,0.0812,0.0,0.0036,0.08,0.0883,0.0038,0.0,0.0,0.0,0.0,0.0,0.0,0.0,0.0,0.0,0.0,0.0,0.0,0.0,0.0,0.0,0.1567,0.2161,0.3056,0.3056,0.3083,0.3087,0.3087,0.3085,0.3085,0.3085,0.2997,0.2894,0.286,0.2788,0.2691,0.269,0.2011,0.1107,0.0246,0.0,0.0,-0.0032,-0.0033,0.0,0.0,0.0,0.0,0.0,0.0,0.0,0.0,0.0,0.0,0.0,0.0,0.0,0.0,0.0,0.0,0.0,0.0,0.0,0.0,0.0,-0.0304,-0.1037,-0.1087,-0.1086,-0.1086,-0.1086,-0.0769,-0.0027,0.0,0.0,0.0,-0.0605,-0.0908,-0.0908,-0.1646,-0.2389,-0.3102,-0.3102,-0.3433,-0.2442,-0.2187,-0.1778,-0.2286,-0.2359,-0.2444,-0.3042,-0.3035,-0.2901,-0.2894,-0.2795,-0.2696,-0.2696,-0.2696,-0.2777,-0.2993,-0.2756,-0.233,-0.1737,-0.1139,-0.0574,-0.0059,-0.0372,-0.0477,-0.0037,0.0,0.0,0.0,0.0261,0.0293,0.0,0.0253,0.0285,0.0,0.0,0.0,0.0,0.0,0.0,0.0,0.0,0.0,0.0,0.0,0.0392,0.0,0.0,0.0,0.0,0.2676,0.2868,0.3242,0.3149,0.3085,0.3096,0.3096,0.3499,0.3952,0.334,0.35,0.389,0.3122,0.3275,0.359,0.2924,0.2046,0.1113,0.0253,0.0,0.0,0.0,0.0,0.0,0.0,0.0,0.0,0.0,0.0,0.0,0.0,0.0,0.0,0.0,-0.0426,-0.0588,-0.0084,-0.042,-0.056,-0.0056,0.0,0.0,0.0,0.0,-0.0084,-0.0331,-0.0808,-0.1087,-0.1087,-0.1087,-0.1008,-0.077,-0.0272,0.0,0.0,-0.019,-0.0542,-0.1029,-0.1259,-0.1982,-0.3105,-0.3105,-0.3484,-0.2445,-0.2374,-0.2227,-0.2481,-0.2549,-0.2587,-0.2782,-0.2866,-0.2866,-0.273,-0.2696,-0.2696,-0.2696,-0.2696,-0.2809,-0.315,-0.2642,-0.2126,-0.1879,-0.0792,-0.0081,-0.0239,-0.0103,-0.0111,0.0,-0.0153,0.0,0.0,0.03,0.033,0.0,0.0323,0.0349,0.0,0.0,0.0,0.0,0.0416,0.0614,0.0614,0.0972,0.1175,0.1175,0.1175,0.1574,0.0,0.0,0.0,0.0,0.3746,0.3979,0.4426,0.4321,0.4298,0.432,0.432,0.4693,0.5069,0.4431,0.4562,0.4944,0.4212,0.4324,0.4556,0.3555,0.2341,0.1182,0.0651,0.0262,0.0,0.0,0.0,0.0,0.0,0.0,0.0,0.0,0.0,0.0,0.0,0.0,-0.009,-0.0354,-0.0578,-0.0625,-0.0449,-0.056,-0.0532,-0.0056,0.0,0.0,0.0,0.0,0.0,0.0,-0.0932,-0.1406,-0.111,-0.1352,-0.1271,-0.0705,-0.0249,0.0,0.0,0.0,-0.0224,-0.0699,-0.0978,-0.152,-0.2354,-0.292,-0.3433,0.0,-0.2808,-0.3084,-0.3074,-0.3071,-0.2996,-0.2761,-0.2791,0.0,-0.2727,-0.2696,-0.2699,-0.2713,-0.2703,-0.274,-0.2869,-0.2474,-0.1976,-0.1555,-0.0797,-0.0369,-0.055,-0.0224,-0.0274,-0.0944,-0.0338,0.0078,0.0,0.0823,0.0945,0.0145,0.0849,0.0967,0.0237,0.0218,0.0191,0.0117,0.1093,0.1641,0.172,0.2655,0.3085,0.3085,0.3085,0.3202,0.0,0.0,0.0,0.0,0.4852,0.5398,0.6313,0.6303,0.63,0.63,0.63,0.63,0.6279,0.6095,0.601,0.5983,0.5867,0.5722,0.5464,0.4584,0.2982,0.1474,0.134,0.0706,0.0067,0.0,0.0,0.0,0.0,0.0,0.0,0.0,0.0,0.0,0.0,0.0,-0.0215,-0.0891,-0.0502,-0.032,-0.0986,-0.0561,-0.0168,-0.0168,-0.0168,-0.0168,-0.0168,-0.0112,-0.0084,-0.0084,-0.134,-0.184,-0.1146,-0.1786,-0.1591,-0.0224,-0.0168,-0.014,-0.0084,-0.0028,0.0,0.0,-0.0699,-0.1062,-0.1146,-0.2565,-0.3259,-0.1147,0.0,-0.293,-0.2812,-0.2802,-0.2781,0.0,-0.2727,-0.274,-0.2703,-0.2696,-0.2733,-0.2832,-0.2778,-0.2716,-0.2747,-0.2045,-0.1251,-0.0483,0.0273,0.0741,0.0697,0.0274,-0.0073,-0.0247,0.0639,0.0895,0.0076,0.0963,0.1369,0.1024,0.1202,0.1582,0.221,0.2216,0.1895,0.1222,0.1458,0.1981,0.2741,0.2982,0.3085,0.3085,0.3085,0.3563,0.0,0.0,0.0,0.6098,0.596,0.6126,0.6453,0.634,0.63,0.63,0.63,0.63,0.6293,0.6259,0.6245,0.6179,0.6027,0.5874,0.5716,0.55,0.445,0.3078,0.1675,0.114,0.0839,0.0168,0.0,0.0,0.0,0.0,0.0,0.0,0.0,0.0,0.0,0.0,-0.0064,-0.0221,-0.0577,-0.0908,-0.1076,-0.1419,-0.1675,-0.1675,-0.1675,-0.1675,-0.1675,-0.1174,-0.0838,-0.0838,-0.1146,-0.1284,-0.1118,-0.1786,-0.2035,-0.1703,-0.1675,-0.1424,-0.0838,-0.028,0.0,0.0,-0.0168,-0.056,-0.1118,-0.2037,-0.2788,-0.0701,-0.1413,-0.2218,-0.2414,-0.243,-0.2451,-0.2733,-0.2747,-0.2696,-0.2696,-0.2696,-0.2659,-0.2514,-0.2421,-0.2427,-0.2573,-0.1727,-0.0643,0.0443,0.06,0.0914,0.175,0.1089,0.0787,0.0,0.1812,0.1892,0.136,0.1824,0.2056,0.1955,0.1938,0.2254,0.2885,0.2887,0.2699,0.2282,0.2761,0.3297,0.3834,0.4349,0.4569,0.4569,0.4569,0.4912,0.0,0.0,0.0,0.6508,0.6429,0.6405,0.6412,0.6402,0.6358,0.63,0.63,0.63,0.6289,0.6179,0.6156,0.6152,0.6139,0.6034,0.5908,0.5908,0.5383,0.4505,0.3046,0.2048,0.1295,0.0741,0.0306,0.0,0.0,0.0,0.0,0.0,0.0,0.0,0.0,0.0,-0.0098,-0.0452,-0.0558,-0.0837,-0.1499,-0.1655,-0.1813,-0.2147,-0.2202,-0.2202,-0.2202,-0.1842,-0.148,-0.1118,-0.109,-0.095,-0.0615,-0.1284,-0.1535,-0.1202,-0.1507,-0.1507,-0.1118,-0.0699,-0.0336,0.0,0.0,-0.0196,-0.0615,-0.1703,-0.2426,-0.0585,-0.0901,-0.1389,-0.2014,-0.2088,-0.2149,-0.2734,-0.2774,-0.2696,-0.2696,-0.2646,-0.2481,-0.2105,-0.2061,-0.2109,-0.2225,-0.1089,0.0231,0.14,0.1041,0.1169,0.2569,0.2029,0.0,0.2788,0.289,0.2926,0.2868,0.0,0.2926,0.2911,0.2883,0.3023,0.333,0.3337,0.342,0.3589,0.4334,0.4766,0.496,0.5867,0.63,0.63,0.63,0.6364,0.6474,0.0,0.0,0.6511,0.6511,0.6443,0.6344,0.6463,0.6426,0.63,0.63,0.63,0.6279,0.6108,0.6027,0.6088,0.6255,0.6173,0.6027,0.6027,0.5973,0.5696,0.4732,0.3196,0.1738,0.1425,0.0674,0.0,0.0,0.0,0.0,0.0,0.0,0.0,0.0,0.0,-0.0201,-0.0814,-0.041,-0.0458,-0.1839,-0.1488,-0.1424,-0.2286,-0.2369,-0.2425,-0.2538,-0.2454,-0.212,-0.148,-0.134,-0.1006,-0.0364,-0.0811,-0.0923,-0.0532,-0.1006,-0.1256,-0.1256,-0.1146,-0.0727,0.0,0.0,0.0,-0.0028,-0.1507,-0.2202,-0.0105,-0.0522,-0.1137,-0.1861,-0.2018,-0.2129,-0.2622,-0.2716,-0.2696,-0.2696,-0.2379,-0.2125,-0.2161,-0.2309,-0.2152,-0.1291,0.0733,0.2319,0.2765,0.3258,0.3385,0.2932,0.0,0.2686,0.2722,0.3499,0.3638,0.2794,0.0,0.3937,0.3809,0.3789,0.428,0.5325,0.5356,0.55,0.5822,0.5079,0.5157,0.6064,0.6219,0.63,0.63,0.63,0.6313,0.633,0.0,0.6381,0.6511,0.6511,0.6501,0.648,0.6504,0.6426,0.63,0.63,0.63,0.6296,0.6272,0.6265,0.6269,0.6293,0.6282,0.6265,0.6265,0.6248,0.6156,0.5817,0.426,0.251,0.1738,0.0787,0.0,0.0,0.0,0.0,0.0,0.0,0.0,0.0,0.0,-0.0034,-0.0134,-0.0064,-0.0277,-0.1132,-0.1162,-0.1619,-0.3037,-0.3178,-0.34,-0.407,-0.3539,-0.3093,-0.2982,-0.2397,-0.1981,-0.187,-0.1396,-0.1619,-0.276,-0.2313,-0.2037,-0.2037,-0.1424,-0.0727,0.0,0.0,0.0,-0.0028,-0.1507,-0.2202,0.0,-0.0381,-0.087,-0.1216,-0.155,-0.1837,-0.2066,-0.2017,-0.2033,-0.2355,-0.2262,-0.205,-0.1897,-0.1962,-0.1483,0.0189,0.0969,0.1768,0.2943,0.3261,0.3451,0.0,0.0,0.3714,0.4209,0.4634,0.47,0.0,0.0,0.0,0.4758,0.4755,0.5048,0.5681,0.5762,0.5908,0.6135,0.5748,0.5825,0.63,0.63,0.63,0.63,0.63,0.63,0.63,0.0,0.6337,0.6405,0.648,0.6467,0.6405,0.648,0.6426,0.63,0.63,0.63,0.63,0.63,0.63,0.63,0.63,0.63,0.63,0.63,0.63,0.6286,0.6176,0.4646,0.2896,0.2426,0.1144,0.0,0.0,0.0,0.0,0.0,0.0,0.0,0.0,0.0,0.0,0.0,0.0,-0.0247,-0.0985,-0.1108,-0.1647,-0.3206,-0.3345,-0.3622,-0.4405,-0.4181,-0.379,-0.34,-0.3037,-0.2676,-0.2232,-0.1507,-0.1758,-0.3234,-0.2202,-0.1786,-0.2202,-0.148,-0.0727,0.0,0.0,-0.0196,-0.0615,-0.1703,-0.2425,0.0,-0.0446,-0.0848,-0.0606,-0.1124,-0.1671,-0.1545,-0.1486,-0.1556,-0.1928,-0.1908,-0.1745,-0.144,-0.1141,-0.0365,0.1366,0.1407,0.1783,0.3502,0.3577,0.3731,0.4448,0.4443,0.4683,0.5481,0.5463,0.0,0.0,0.0,0.0,0.5395,0.5395,0.5467,0.5586,0.5694,0.584,0.599,0.6146,0.6262,0.63,0.63,0.63,0.63,0.63,0.63,0.63,0.63,0.632,0.6358,0.6467,0.645,0.6361,0.647,0.6426,0.63,0.63,0.63,0.63,0.63,0.63,0.63,0.63,0.63,0.63,0.63,0.6141,0.5944,0.5944,0.4399,0.2789,0.2916,0.149,0.0,0.0,0.0,0.0,0.0,0.0,0.0,0.0,0.0,0.0,0.0,0.0,-0.0187,-0.0747,-0.0856,-0.1385,-0.2934,-0.3081,-0.3355,-0.4141,-0.4231,-0.3929,-0.3178,-0.3289,-0.3037,-0.2259,-0.1507,-0.1675,-0.2982,-0.1786,-0.1452,-0.2174,-0.148,-0.0727,0.0,-0.0168,-0.056,-0.1118,-0.2037,-0.2788,0.0,-0.0752,-0.1289,-0.0308,-0.1018,-0.1854,-0.142,-0.165,-0.1831,-0.1446,-0.1057,-0.0802,-0.0781,0.0258,0.1257,0.1725,0.3141,0.4517,0.5461,0.0,0.5709,0.553,0.5493,0.5474,0.5423,0.0,0.0,0.0,0.0,0.0,0.5395,0.5395,0.5467,0.5586,0.5599,0.5742,0.599,0.6003,0.6118,0.63,0.63,0.63,0.63,0.63,0.63,0.63,0.63,0.6375,0.6497,0.6508,0.6508,0.6497,0.6508,0.6426,0.63,0.63,0.63,0.63,0.63,0.63,0.63,0.63,0.63,0.63,0.63,0.5589,0.4805,0.4805,0.3318,0.1903,0.2835,0.155,0.0,0.0,0.0,0.0,0.0,0.0,0.0,0.0,0.0,0.0,0.0,0.0,-0.0032,-0.0064,-0.0092,-0.0615,-0.2102,-0.2274,-0.2567,-0.3314,-0.3378,-0.3093,-0.2343,-0.2926,-0.2982,-0.2259,-0.1507,-0.1452,-0.2259,-0.1507,-0.1452,-0.2174,-0.148,-0.0727,0.0,-0.0699,-0.1062,-0.1146,-0.2621,-0.3314,-0.0403,-0.0846,-0.1235,-0.1035,-0.1655,-0.2001,-0.0765,-0.0635,-0.082,-0.1019,-0.0927,-0.0812,-0.0821,0.0278,0.145,0.235,0.3379,0.4454,0.5623,0.5694,0.5606,0.5593,0.5539,0.5457,0.5399,0.0,0.0,0.0,0.0,0.0,0.5395,0.5395,0.5423,0.5481,0.5542,0.5644,0.5755,0.5844,0.5918,0.5979,0.6207,0.63,0.63,0.63,0.63,0.63,0.63,0.633,0.6378,0.6378,0.6378,0.6378,0.6378,0.6347,0.63,0.63,0.63,0.6286,0.6149,0.6115,0.6101,0.6006,0.604,0.6001,0.5386,0.4939,0.4569,0.3904,0.2707,0.1682,0.2081,0.1076,0.0,0.0,0.0,0.0,0.0,0.0,0.0,0.0,0.0,0.0,0.0,0.0,0.0,0.0,-0.0398,-0.1095,-0.2228,-0.2278,-0.2535,-0.3391,-0.2961,-0.2502,-0.2215,-0.2454,-0.2313,-0.1563,-0.1257,-0.1424,-0.2174,-0.1062,-0.0755,-0.1507,-0.0783,-0.028,0.0,-0.0727,-0.109,-0.1146,-0.2676,-0.3372,-0.0551,-0.0925,-0.1235,-0.1126,-0.1663,-0.1822,-0.0348,-0.03,-0.0589,-0.0602,-0.0616,-0.0538,-0.0252,0.0795,0.1955,0.3064,0.3871,0.4659,0.5567,0.5566,0.5487,0.5545,0.5416,0.532,0.0,0.0,0.0,0.0,0.0,0.0,0.0,0.532,0.5344,0.5392,0.5498,0.5542,0.5589,0.5688,0.5755,0.5803,0.6064,0.6186,0.619,0.6276,0.63,0.63,0.63,0.63,0.63,0.63,0.63,0.63,0.63,0.63,0.63,0.63,0.63,0.6279,0.6084,0.5993,0.5929,0.5521,0.5468,0.5359,0.4353,0.3902,0.3588,0.2832,0.1899,0.1094,0.1085,0.0557,0.0,0.0,0.0,0.0,0.0,-0.0203,-0.0337,-0.0067,-0.0471,-0.0773,-0.0471,-0.0397,-0.0425,-0.0425,-0.0845,-0.1493,-0.2394,-0.2621,-0.2944,-0.353,-0.2815,-0.2163,-0.1877,-0.1849,-0.1542,-0.0795,-0.0759,-0.109,-0.1813,-0.0671,-0.0336,-0.109,-0.0364,0.0,0.0,-0.0978,-0.134,-0.1146,-0.2676,-0.3234,-0.0341,-0.0995,-0.1345,-0.0291,-0.0812,-0.1324,-0.0248,-0.0932,-0.1437,-0.0232,0.0,0.0268,0.1132,0.2061,0.2979,0.3861,0.4913,0.5532,0.5416,0.5525,0.5528,0.5409,0.522,0.5096,0.0,0.0,0.0,0.0,0.0,0.0,0.0,0.5096,0.5199,0.5388,0.5392,0.5467,0.5586,0.5589,0.5657,0.58,0.5915,0.599,0.5996,0.619,0.63,0.6296,0.63,0.63,0.63,0.63,0.63,0.63,0.63,0.63,0.63,0.63,0.6296,0.6276,0.6043,0.599,0.5811,0.482,0.4488,0.4308,0.3374,0.2403,0.1578,0.1575,0.0815,0.0,-0.0037,-0.0037,-0.0038,0.0,-0.0036,-0.0036,-0.0035,-0.0719,-0.1074,-0.0202,-0.1477,-0.241,-0.1474,-0.1307,-0.1307,-0.1307,-0.131,-0.1609,-0.241,-0.3257,-0.3739,-0.3589,-0.2927,-0.2096,-0.1178,-0.1084,-0.0766,-0.0059,0.0,-0.0336,-0.1062,-0.0392,-0.0336,-0.1062,-0.0364,0.0,0.0,-0.148,-0.1814,-0.1118,-0.2676,-0.2954,-0.1394,-0.132,-0.1292,-0.1503,-0.1402,-0.1142,-0.0721,-0.0574,-0.0422,-0.006,0.0,0.0275,0.1137,0.1999,0.2884,0.3829,0.4719,0.5218,0.5206,0.5237,0.5213,0.5067,0.5009,0.0,0.0,0.0,0.0,0.0,0.0,0.0,0.0,0.4951,0.5015,0.5196,0.5199,0.5274,0.5463,0.5463,0.5484,0.5528,0.5647,0.5772,0.5878,0.618,0.6242,0.6105,0.6252,0.63,0.63,0.63,0.63,0.63,0.63,0.63,0.63,0.63,0.6193,0.5962,0.5215,0.4856,0.455,0.3563,0.3299,0.3176,0.2154,0.1715,0.1315,-0.0073,-0.0658,-0.106,-0.1743,-0.1884,-0.1749,-0.1063,-0.1428,-0.1884,-0.1904,-0.2089,-0.221,-0.1944,-0.2344,-0.2611,-0.2344,-0.2277,-0.2277,-0.2277,-0.2711,-0.3153,-0.3372,-0.3714,-0.3425,-0.2136,-0.1801,-0.1298,-0.0409,-0.0329,-0.0235,0.0,0.0,-0.0112,-0.0308,-0.0112,-0.0112,-0.0308,-0.0112,0.0,0.0,-0.095,-0.1034,-0.0364,-0.187,-0.2148,-0.1074,-0.1155,-0.1303,-0.1038,-0.0779,-0.0418,0.0193,0.0173,0.009,0.0443,0.0506,0.0878,0.2064,0.2693,0.0,0.4276,0.4766,0.5032,0.5093,0.5049,0.4982,0.4897,0.4863,0.0,0.0,0.0,0.0,0.0,0.0,0.0,0.0,0.4826,0.4894,0.5012,0.5069,0.5148,0.5218,0.524,0.527,0.527,0.546,0.5579,0.5637,0.5975,0.6061,0.5996,0.6129,0.6242,0.6293,0.6196,0.6245,0.63,0.63,0.63,0.6254,0.5841,0.5572,0.5321,0.4229,0.3782,0.3507,0.2466,0.2201,0.2026,0.0687,0.0285,0.0,-0.1513,-0.1945,-0.2057,-0.2635,-0.3009,-0.2993,-0.2089,-0.2275,-0.2688,-0.2688,-0.2967,-0.3111,-0.2778,-0.328,-0.3647,-0.328,-0.3211,-0.3211,-0.3211,-0.3593,-0.4019,-0.4402,-0.4197,-0.3574,-0.2415,-0.1704,-0.1063,-0.0484,-0.0154,0.0,0.0,0.0,0.0,0.0,0.0,0.0,0.0,0.0,0.0,0.0,-0.0727,-0.0727,-0.0028,-0.1202,-0.1369,-0.0078,-0.065,-0.1188,0.0358,0.0518,0.0594,0.1808,0.1115,0.042,0.1221,0.1368,0.1889,0.348,0.3781,0.4061,0.493,0.4972,0.4928,0.5042,0.4948,0.4864,0.4877,0.4755,0.0,0.0,0.0,0.0,0.0,0.0,0.0,0.0,0.467,0.4741,0.4894,0.4992,0.5005,0.4891,0.5015,0.5079,0.5079,0.5267,0.5375,0.5385,0.5661,0.5878,0.5973,0.5895,0.5975,0.613,0.5855,0.5844,0.6005,0.6018,0.6022,0.5886,0.4903,0.4557,0.4375,0.3197,0.2757,0.257,0.1522,0.1139,0.077,-0.0804,-0.1498,-0.1914,-0.277,-0.3018,-0.3029,-0.3118,-0.3617,-0.394,-0.3143,-0.2953,-0.2953,-0.2953,-0.3576,-0.3882,-0.3111,-0.4284,-0.5123,-0.4284,-0.4115,-0.4115,-0.4115,-0.4115,-0.4453,-0.5292,-0.4577,-0.3931,-0.3707,-0.2251,-0.1225,-0.1002,-0.0378,0.0,0.0,0.0,0.0,0.0,0.0,0.0,0.0,0.0,0.0,0.0,-0.0671,-0.0643,-0.0028,-0.0673,-0.0646,-0.1367,-0.0529,0.0216,-0.025,0.0287,0.0979,0.1275,0.1533,0.1791,0.197,0.1992,0.2356,0.3442,0.364,0.3939,0.4805,0.4908,0.4887,0.4799,0.4758,0.4697,0.4604,0.4559,0.0,0.0,0.0,0.0,0.0,0.0,0.0,0.4539,0.4539,0.461,0.4735,0.4769,0.4826,0.4887,0.4918,0.4935,0.0,0.5079,0.5179,0.5192,0.561,0.582,0.5814,0.5116,0.4837,0.4831,0.4047,0.3745,0.377,0.3799,0.3787,0.3777,0.3537,0.3394,0.3144,0.2204,0.1781,0.1495,0.0577,-0.0168,-0.0804,-0.1173,-0.1915,-0.2768,-0.3562,-0.3848,-0.4058,-0.4688,-0.4979,-0.5063,-0.4858,-0.4831,-0.4831,-0.4831,-0.4976,-0.5057,-0.4855,-0.5126,-0.5326,-0.5126,-0.509,-0.509,-0.509,-0.509,-0.516,-0.5362,-0.4596,-0.3711,-0.3012,-0.1954,-0.1008,-0.03,-0.0098,0.0,0.0,0.0,0.0,0.0,0.0,0.0,0.0,0.0,0.0,0.0,-0.0168,-0.0168,0.0,-0.0173,-0.0146,-0.0985,-0.0371,0.0202,0.0847,0.1327,0.1832,0.2546,0.2725,0.2832,0.3216,0.3061,0.3116,0.3977,0.4115,0.4267,0.472,0.4748,0.4697,0.4694,0.4655,0.458,0.4498,0.4491,0.0,0.0,0.0,0.0,0.0,0.0,0.4491,0.4491,0.4491,0.4528,0.4607,0.4682,0.4694,0.4701,0.4772,0.4809,0.4809,0.4884,0.4771,0.4506,0.5324,0.5448,0.5021,0.4556,0.4158,0.3772,0.3234,0.3041,0.3117,0.3117,0.3095,0.3052,0.2569,0.2354,0.2139,0.1166,0.0764,0.0548,-0.0338,-0.094,-0.1474,-0.2342,-0.3034,-0.3684,-0.4546,-0.4812,-0.4959,-0.5375,-0.545,-0.5395,-0.5395,-0.5395,-0.5395,-0.5395,-0.5395,-0.5395,-0.5395,-0.5395,-0.5395,-0.5395,-0.5395,-0.5395,-0.5395,-0.533,-0.5277,-0.5385,-0.4455,-0.3512,-0.2765,-0.1809,-0.0867,-0.0067,0.0,0.0,0.0,0.0,0.0,0.0,0.0,0.0,0.0,0.0,0.0,0.0,0.0,0.0,0.0,0.0,0.0,-0.0303,-0.0216,-0.0043,0.2297,0.2602,0.2686,0.4009,0.3873,0.3707,0.4349,0.4105,0.3927,0.4558,0.4653,0.4653,0.4653,0.4573,0.4535,0.4662,0.4569,0.4491,0.4491,0.4491,0.0,0.0,0.0,0.0,0.0,0.0,0.4491,0.4491,0.4491,0.4491,0.4491,0.4469,0.4418,0.4322,0.427,0.4272,0.4272,0.4297,0.4083,0.3635,0.4629,0.4668,0.3932,0.3778,0.3346,0.2775,0.2493,0.2478,0.2564,0.2575,0.2578,0.2469,0.1628,0.1322,0.1196,0.0315,-0.0103,-0.0339,-0.1075,-0.1507,-0.2041,-0.3547,-0.4199,-0.4602,-0.5346,-0.5569,-0.5586,-0.5555,-0.5491,-0.5395,-0.5395,-0.5395,-0.5395,-0.5395,-0.5395,-0.5395,-0.5395,-0.5395,-0.5395,-0.5395,-0.5395,-0.5395,-0.5395,-0.5254,-0.5216,-0.5378,-0.4385,-0.3467,-0.2942,-0.185,-0.0887,-0.0233,-0.0066,0.0,0.0,0.0,0.0,0.0,0.0,0.0,0.0,0.0,0.0,0.0,0.0,0.0,0.0,0.0,0.0,-0.0966,-0.0144,0.0985,0.2383,0.286,0.3069,0.3377,0.3929,0.4377,0.4487,0.4438,0.4402,0.4497,0.4522,0.4522,0.4522,0.4505,0.4498,0.4518,0.4501,0.4491,0.4491,0.4491,0.0,0.0,0.0,0.0,0.0,0.4491,0.4491,0.4491,0.4491,0.4491,0.4491,0.3836,0.3499,0.3541,0.2884,0.2527,0.2527,0.2717,0.2803,0.2862,0.2999,0.3011,0.2853,0.2027,0.1631,0.1479,0.0723,0.0387,0.0424,0.0397,0.0401,0.04,0.0249,0.0214,0.018,0.0034,-0.048,-0.1143,-0.125,-0.2376,-0.368,-0.3915,-0.4679,-0.5421,-0.543,-0.5521,-0.5559,-0.546,-0.5409,-0.5395,-0.5395,-0.5395,-0.5395,-0.5395,-0.5395,-0.5395,-0.5395,-0.5395,-0.5395,-0.5395,-0.5395,-0.5395,-0.5395,-0.5378,-0.5371,-0.5392,-0.4555,-0.3869,-0.367,-0.2213,-0.1188,-0.0971,-0.0364,0.0,0.0,0.0,0.0,0.0,0.0,0.0,0.0,0.0,0.0,0.0,0.0,0.0,0.0,0.0,0.0,-0.0872,-0.0053,0.096,0.2355,0.29,0.3218,0.3699,0.4069,0.4365,0.4474,0.4491,0.4491,0.4491,0.4814,0.4948,0.457,0.4814,0.4921,0.4543,0.4392,0.4372,0.4481,0.4392,0.0,0.0,0.0,0.0,0.0,0.4491,0.4491,0.4491,0.407,0.3846,0.3876,0.3093,0.2704,0.2732,0.2371,0.2202,0.2202,0.2294,0.2156,0.181,0.1804,0.1838,0.188,0.1493,0.1031,0.0549,0.0166,0.0,0.0,0.0,0.0,0.0,0.0,0.0,-0.007,-0.0552,-0.0994,-0.1464,-0.2487,-0.3347,-0.4082,-0.4619,-0.5102,-0.5481,-0.5416,-0.5443,-0.5481,-0.5412,-0.5395,-0.5395,-0.5395,-0.5395,-0.5395,-0.5395,-0.5395,-0.5395,-0.5395,-0.5395,-0.5395,-0.5395,-0.5395,-0.5395,-0.5395,-0.532,-0.5264,-0.5385,-0.4443,-0.3612,-0.324,-0.1983,-0.1012,-0.0515,-0.0193,0.0,0.0,0.0,0.0,0.0,0.0,0.0,0.0,0.0,0.0,0.0,0.0,0.0,0.0,0.0,0.0,-0.0721,-0.005,0.0728,0.2072,0.2705,0.3152,0.3783,0.4003,0.4159,0.4368,0.4406,0.4389,0.4426,0.5,0.5324,0.4842,0.5155,0.529,0.4783,0.4386,0.4203,0.4365,0.4264,0.0,0.0,0.0,0.0,0.0,0.4457,0.4368,0.4208,0.3594,0.3207,0.3093,0.2343,0.1925,0.1925,0.173,0.1647,0.1647,0.1647,0.1341,0.0811,0.0818,0.0869,0.0965,0.0964,0.0601,0.0,0.0,0.0,0.0,0.0,0.0,0.0,0.0,-0.0137,-0.0439,-0.1065,-0.1602,-0.2209,-0.3547,-0.4151,-0.4486,-0.5193,-0.5395,-0.5395,-0.5395,-0.5395,-0.5395,-0.5395,-0.5395,-0.5395,-0.5395,-0.5395,-0.5395,-0.5395,-0.5395,-0.5395,-0.5395,-0.5395,-0.5395,-0.5395,-0.5193,-0.5057,-0.5057,-0.4733,-0.454,-0.4707,-0.3937,-0.3185,-0.2706,-0.1735,-0.0916,-0.0319,-0.0095,0.0,0.0,0.0,0.0,0.0,0.0,0.0,0.0,0.0,0.0,0.0,0.0,0.0,0.0,0.0,0.0,-0.0807,-0.0147,0.0606,0.1444,0.2189,0.2786,0.3097,0.3505,0.39,0.4173,0.4119,0.4062,0.418,0.4923,0.5483,0.546,0.5376,0.5293,0.5267,0.4528,0.4008,0.4018,0.4139,0.0,0.0,0.0,0.0,0.0,0.4334,0.3967,0.3392,0.3194,0.2862,0.2284,0.1535,0.1146,0.1146,0.0476,0.0112,0.0112,0.0112,0.0084,0.0056,0.0058,0.0058,0.0056,0.0058,0.003,0.0,0.0,0.0,0.0,0.0,0.0,0.0,0.0,-0.0539,-0.124,-0.1276,-0.2412,-0.3882,-0.3982,-0.4586,-0.5326,-0.5395,-0.5395,-0.5395,-0.5395,-0.5395,-0.5395,-0.5395,-0.5395,-0.5395,-0.5395,-0.5395,-0.5395,-0.5395,-0.5395,-0.5395,-0.5395,-0.5395,-0.5395,-0.5395,-0.4652,-0.4082,-0.4082,-0.3376,-0.2839,-0.2843,-0.2771,-0.2677,-0.2518,-0.1776,-0.121,-0.1054,-0.039,0.0,0.0,0.0,0.0,0.0,0.0,0.0,0.0,0.0,0.0,0.0,0.0,0.0,0.0,0.0,0.0,-0.1226,-0.089,-0.0441,0.0579,0.1419,0.2143,0.2713,0.3181,0.3569,0.3869,0.391,0.3921,0.4048,0.5026,0.5548,0.4683,0.5216,0.5449,0.4574,0.4115,0.391,0.3984,0.3957,0.0,0.0,0.0,0.0,0.0,0.0,0.3447,0.3309,0.2349,0.1707,0.1512,0.0785,0.0383,0.0392,0.0137,0.0,0.0,0.0,0.0,0.0,0.0,0.0,0.0,0.0,0.0,0.0,0.0,0.0,0.0,0.0,0.0,0.0,0.0,-0.0562,-0.1374,-0.1976,-0.2978,-0.4115,-0.4688,-0.5123,-0.5395,-0.5395,-0.5395,-0.5395,-0.5395,-0.5395,-0.5395,-0.5395,-0.5395,-0.5395,-0.5395,-0.5395,-0.5395,-0.5395,-0.5474,-0.5515,-0.5416,-0.5474,-0.5511,-0.5412,-0.4619,-0.4015,-0.4015,-0.3247,-0.2711,-0.2711,-0.2177,-0.1768,-0.1718,-0.0968,-0.0662,-0.1177,-0.0485,-0.0227,-0.0784,-0.0323,0.0,0.0,0.0,0.0,0.0,0.0,0.0,0.0,0.0,0.0,0.0,0.0,0.0,-0.1456,-0.1346,-0.1211,-0.038,0.039,0.1117,0.1853,0.2402,0.2911,0.3515,0.3602,0.3612,0.3768,0.4675,0.518,0.4481,0.5092,0.5308,0.4424,0.3977,0.3758,0.386,0.3826,0.0,0.0,0.0,0.0,0.0,0.0,0.0,0.288,0.1695,0.0932,0.0743,0.0266,0.0,0.0,0.0,0.0,0.0,0.0,0.0,0.0,0.0,0.0,0.0,0.0,0.0,0.0,0.0,0.0,0.0,0.0,0.0,0.0,0.0,-0.0743,-0.1848,-0.2474,-0.3487,-0.4586,-0.5193,-0.5395,-0.5395,-0.5395,-0.5395,-0.5395,-0.5395,-0.5395,-0.5395,-0.5395,-0.5395,-0.5395,-0.5395,-0.5395,-0.5395,-0.5395,-0.5474,-0.5518,-0.5416,-0.5477,-0.5515,-0.5412,-0.4619,-0.4015,-0.4015,-0.2978,-0.2242,-0.2242,-0.1441,-0.0973,-0.1273,-0.0772,-0.0798,-0.1707,-0.1233,-0.1032,-0.1284,-0.0772,-0.0295,0.0,0.0,0.0,0.0,0.0,-0.0133,-0.0425,-0.0134,0.0,0.0,-0.0303,-0.0642,0.0,0.0,0.0,-0.136,-0.0844,-0.0207,0.0523,0.1155,0.1928,0.3047,0.3179,0.3168,0.3358,0.3815,0.4359,0.4946,0.4957,0.4886,0.4863,0.4134,0.3604,0.3604,0.3723,0.0,0.0,0.0,0.0,0.0,0.3294,0.2606,0.2009,0.1263,0.0616,0.0026,0.0,0.0,0.0,0.0,0.0,0.0,0.0,0.0,0.0,0.0,0.0,0.0,0.0,0.0,0.0,0.0,0.0,0.0,0.0,0.0,0.0,0.0,-0.116,-0.2693,-0.2695,-0.3891,-0.5395,-0.5395,-0.5392,-0.5355,-0.5359,-0.5326,-0.5322,-0.5326,-0.5326,-0.5362,-0.5395,-0.5395,-0.5395,-0.5395,-0.5395,-0.5395,-0.5395,-0.5395,-0.5395,-0.5395,-0.5399,-0.5399,-0.5395,-0.4619,-0.4015,-0.4015,-0.2476,-0.134,-0.134,-0.0605,-0.0404,-0.124,-0.134,-0.1722,-0.267,-0.2701,-0.2318,-0.1455,-0.1356,-0.0975,-0.0135,-0.0101,-0.0101,-0.0101,-0.0067,-0.0505,-0.134,-0.0471,-0.0067,-0.0101,-0.0941,-0.1907,-0.1985,0.0,0.0,0.0,0.0,0.0,0.0242,0.1074,0.1895,0.2405,0.2825,0.3114,0.3178,0.3303,0.3461,0.3633,0.4156,0.4404,0.4014,0.3761,0.3604,0.3604,0.3638,0.0,0.0,0.0,0.0,0.0,0.2528,0.1884,0.1383,0.0657,0.0169,0.0,0.0,0.0,0.0,0.0,0.0,0.0,0.0,0.0,0.0,0.0,0.0,0.0,0.0,0.0,0.0,0.0,0.0,0.0,0.0,0.0,0.0,0.0,-0.116,-0.27,-0.2692,-0.3891,-0.5395,-0.5395,-0.4954,-0.4399,-0.4392,-0.3959,-0.3454,-0.346,-0.3915,-0.4553,-0.5226,-0.5395,-0.5395,-0.5395,-0.5395,-0.5395,-0.5395,-0.5395,-0.5395,-0.5395,-0.5484,-0.5525,-0.5416,-0.4619,-0.4015,-0.4015,-0.3045,-0.231,-0.231,-0.211,-0.2044,-0.2277,-0.231,-0.2669,-0.3572,-0.3064,-0.2894,-0.3377,-0.2818,-0.2403,-0.224,-0.2165,-0.2108,-0.2108,-0.1999,-0.2076,-0.231,-0.1374,-0.1275,-0.1945,-0.229,-0.3043,-0.2419,-0.2254,-0.2162,-0.2139,0.0,0.0,-0.0129,0.0601,0.1369,0.2235,0.2695,0.2937,0.2937,0.2969,0.3013,0.3013,0.3484,0.3753,0.343,0.3442,0.3483,0.3483,0.3541,0.0,0.0,0.3604,0.3385,0.286,0.2196,0.1451,0.0673,0.0236,0.0,0.0,0.0,0.0,0.0,0.0,0.0,0.0,0.0,0.0,0.0,0.0,0.0,0.0,0.0,0.0,0.0,0.0,0.0,0.0,0.0,0.0,0.0,0.0,-0.1147,-0.2693,-0.2645,-0.3841,-0.5385,-0.5287,-0.4681,-0.3988,-0.3988,-0.3378,-0.2702,-0.2716,-0.3315,-0.4204,-0.5049,-0.5267,-0.5267,-0.5267,-0.5267,-0.5284,-0.5382,-0.5395,-0.5395,-0.5395,-0.5467,-0.5501,-0.5409,-0.4954,-0.4586,-0.4586,-0.3816,-0.3245,-0.3245,-0.2911,-0.2845,-0.3211,-0.3245,-0.3632,-0.4594,-0.4191,-0.403,-0.4318,-0.3862,-0.3428,-0.3121,-0.3042,-0.2981,-0.2981,-0.29,-0.3049,-0.3462,-0.2466,-0.2467,-0.3464,-0.3595,-0.4176,-0.2751,-0.2647,-0.2751,-0.2856,-0.2565,0.0,-0.0647,-0.0099,0.0564,0.2101,0.2513,0.2566,0.255,0.2645,0.272,0.2722,0.2871,0.3004,0.3078,0.3199,0.3283,0.3283,0.3446,0.0,0.3549,0.3549,0.3268,0.2632,0.198,0.114,0.0067,0.0,0.0,0.0,0.0,0.0,0.0,0.0,0.0,0.0,0.0,0.0,0.0,0.0,0.0,0.0,0.0,0.0,0.0,0.0,0.0,0.0,0.0,0.0,0.0,0.0,-0.1131,-0.2672,-0.2552,-0.3697,-0.5189,-0.5021,-0.4394,-0.3685,-0.3697,-0.3088,-0.2446,-0.2614,-0.3233,-0.4053,-0.4861,-0.51,-0.512,-0.5103,-0.511,-0.5196,-0.5365,-0.5395,-0.5395,-0.5395,-0.5395,-0.5395,-0.5395,-0.5395,-0.5395,-0.5395,-0.4686,-0.4154,-0.4167,-0.3498,-0.3332,-0.4118,-0.4188,-0.4574,-0.553,-0.5613,-0.5355,-0.4723,-0.4656,-0.4302,-0.3479,-0.3433,-0.3427,-0.3427,-0.3419,-0.3815,-0.4656,-0.369,-0.3721,-0.464,-0.4813,-0.5286,-0.2861,-0.2927,-0.2842,-0.2768,-0.2675,0.0,-0.1525,-0.079,-0.0103,0.0553,0.1293,0.1765,0.1602,0.1593,0.161,0.1611,0.1955,0.2421,0.3007,0.3128,0.3145,0.3145,0.3172,0.0,0.3192,0.3192,0.2812,0.1884,0.0901,0.0247,0.0022,0.0,0.0,0.0,0.0,0.0,0.0,0.0,0.0,0.0,0.0,0.0,0.0,0.0,0.0,0.0,0.0,0.0,0.0,0.0,0.0,0.0,0.0,0.0,0.0,0.0,-0.1076,-0.2547,-0.2501,-0.3223,-0.4092,-0.4067,-0.3047,-0.1831,-0.1816,-0.122,-0.0812,-0.2156,-0.2736,-0.3273,-0.4587,-0.5138,-0.5284,-0.513,-0.5226,-0.5358,-0.5388,-0.5395,-0.5395,-0.5395,-0.5395,-0.5395,-0.5395,-0.5395,-0.5395,-0.5395,-0.5259,-0.5165,-0.5285,-0.5127,-0.5133,-0.5416,-0.5464,-0.5548,-0.5755,-0.5762,-0.5751,-0.5714,-0.5723,-0.5701,-0.5663,-0.5523,-0.5424,-0.5424,-0.5316,-0.5422,-0.572,-0.5394,-0.5337,-0.5551,-0.5855,-0.5993,-0.3046,-0.3142,0.0,-0.3013,-0.2846,0.0,0.0,-0.1102,-0.0434,0.0298,0.0881,0.1261,0.1298,0.1305,0.1305,0.1305,0.1695,0.2043,0.2185,0.2654,0.2969,0.291,0.3013,0.0,0.3101,0.3101,0.2688,0.1673,0.0601,0.0,0.0,0.0,0.0,0.0,0.0,0.0,0.0,0.0,0.0,0.0,0.0,0.0,0.0,0.0,0.0,0.0,0.0,0.0,0.0,0.0,0.0,0.0,0.0,0.0,0.0,0.0,-0.0821,-0.1907,-0.1814,-0.2429,-0.3249,-0.3167,-0.2317,-0.1296,-0.1287,-0.0952,-0.0831,-0.2143,-0.2827,-0.3412,-0.4584,-0.503,-0.5138,-0.51,-0.5189,-0.5267,-0.5378,-0.5395,-0.5395,-0.5395,-0.5457,-0.5511,-0.5511,-0.5511,-0.5532,-0.5607,-0.5617,-0.5606,-0.5684,-0.5694,-0.5722,-0.5793,-0.6262,-0.6578,-0.6626,-0.7138,-0.7547,-0.7833,-0.7727,-0.7574,-0.737,-0.7138,-0.6745,-0.6251,-0.6105,-0.6067,-0.6146,-0.6139,-0.6135,-0.6139,-0.6334,-0.6366,0.0,0.0,0.0,0.0,0.0,-0.2701,0.0,0.0,0.0,0.0154,0.0,0.0,0.0987,0.0,0.0,0.0,0.0,0.0,0.0,0.1972,0.0,0.2443,0.2781,0.0,0.2768,0.2594,0.2197,0.1486,0.046,-0.0086,0.0,0.0,0.0,0.0,0.0,0.0,0.0,0.0,0.0,0.0,0.0,0.0,0.0,0.0,0.0,0.0,0.0,0.0,0.0,0.0,0.0,0.0,0.0,0.0,0.0,0.0,-0.0538,-0.1246,-0.1126,-0.1665,-0.2375,-0.2256,-0.1803,-0.1251,-0.1251,-0.1286,-0.1511,-0.2413,-0.3146,-0.383,-0.4645,-0.4938,-0.5026,-0.5079,-0.512,-0.5216,-0.5405,-0.544,-0.5446,-0.5474,-0.5579,-0.5623,-0.5596,-0.5613,-0.5671,-0.5783,-0.58,-0.5813,-0.584,-0.5844,-0.5926,-0.6172,-0.6929,-0.7526,-0.7829,-0.8694,-0.9353,-0.9678,-0.9537,-0.915,-0.8429,-0.8176,-0.7701,-0.687,-0.6989,-0.6926,-0.6691,-0.6813,-0.6739,-0.6515,-0.6573,-0.661,0.0,0.0,0.0,0.0,-0.3703,0.0,0.0,0.0,-0.1827,-0.1048,0.0,0.0,0.0,0.0,0.0,0.0,0.0,0.0,0.0537,0.1064,0.1476,0.1467,0.2212,0.0,0.0,0.0803,0.0485,0.0785,-0.0082,-0.045,-0.0022,0.0,0.0,0.0,0.0,0.0,0.0,0.0,0.0,0.0,0.0,0.0,0.0,0.0,0.0,0.0,0.0,0.0,0.0,0.0,0.0,0.0,0.0,0.0,0.0,0.0,-0.0472,-0.1121,-0.1117,-0.1184,-0.1271,-0.1266,-0.1208,-0.1125,-0.1125,-0.1576,-0.2246,-0.3081,-0.3515,-0.3909,-0.4545,-0.5044,-0.5313,-0.5127,-0.5237,-0.5409,-0.5532,-0.5562,-0.5599,-0.5728,-0.5766,-0.5739,-0.561,-0.5694,-0.5783,-0.58,-0.58,-0.585,-0.5949,-0.5966,-0.6387,-0.7475,-0.7681,-0.8103,-0.903,-0.9438,-0.9647,-0.9698,-0.9946,-0.9575,-0.8438,-0.838,-0.8286,-0.8167,-0.9206,-0.9233,-0.8175,-0.8196,-0.7602,-0.6518,-0.6749,-0.6814,0.0,0.0,0.0,0.0,0.0,0.0,-0.2951,0.0,-0.2235,0.0,0.0,0.0,0.0,0.0,0.0,0.0,0.0387,0.0,0.0,0.0,0.1267,0.0,0.0,0.0,0.0,0.0,0.0,0.0,0.008,-0.0209,0.0,0.0,0.0,0.0,0.0,0.0,0.0,0.0,0.0,0.0,0.0,0.0,0.0,0.0,0.0,0.0,0.0,0.0,0.0,0.0,0.0,0.0,0.0,0.0,0.0,0.0,-0.02,-0.0457,-0.0457,-0.0453,-0.0532,-0.095,-0.109,-0.121,-0.1754,-0.2353,-0.2956,-0.3473,-0.3978,-0.4427,-0.484,-0.5084,-0.5233,-0.5257,-0.5382,-0.5545,-0.5576,-0.5654,-0.5732,-0.5789,-0.5874,-0.5915,-0.5854,-0.5895,-0.5966,-0.6091,-0.6105,-0.6129,-0.6156,-0.6688,-0.7243,-0.7736,-0.8836,-0.9701,-1.0115,-1.0992,-1.1564,-1.1727,-1.1542,-1.1106,-1.047,-0.9883,-0.9552,-0.9552,-0.9978,-0.9958,-0.9466,-0.9541,-0.9303,-0.8736,-0.7493,-0.7279,-0.5249,0.0,0.0,0.0,0.0,0.0,0.0,0.0,0.0,0.0,0.0,0.0,0.0,0.0,0.0,0.0,0.0,0.0396,0.0,0.0551,0.0,0.0,0.0,0.0,0.0,0.0,0.0,0.033,0.0,-0.0143,0.0,0.0,0.0,0.0,0.0,0.0,0.0,0.0,0.0,0.0,0.0,0.0,0.0,0.0,0.0,0.0,0.0,0.0,0.0,0.0,0.0,-0.0028,-0.0224,-0.0168,0.0,0.0,0.0,0.0,0.0,0.0,-0.0112,-0.0866,-0.1229,-0.158,-0.2507,-0.32,-0.3735,-0.4033,-0.4449,-0.486,-0.5042,-0.513,-0.5223,-0.5368,-0.5515,-0.5703,-0.5982,-0.6182,-0.6379,-0.671,-0.6822,-0.6907,-0.6907,-0.6464,-0.6208,-0.6665,-0.6718,-0.6848,-0.72,-0.7859,-0.8433,-0.8698,-1.0024,-1.1045,-1.1315,-1.2311,-1.3079,-1.3427,-1.2726,-1.2203,-1.2016,-1.1293,-1.091,-1.091,-1.1236,-1.1227,-1.0891,-1.108,-1.1113,-1.1006,-0.8875,-0.8418,0.0,0.0,0.0,-0.5132,0.0,0.0,0.0,0.0,-0.2753,0.0,0.0,0.0,0.0,0.0,0.0,0.0,0.0017,0.0,0.0,0.0,0.0,0.0,0.0,0.0,0.0,0.0,-0.0649,-0.0659,-0.0664,-0.0489,-0.0022,0.0,0.0,0.0,0.0,0.0,0.0,0.0,0.0,0.0,0.0,0.0,0.0,0.0,0.0,0.0,0.0,0.0,0.0,0.0,0.0,-0.0084,-0.0783,-0.0615,0.0,0.0,0.0,0.0,0.0,0.0,-0.0112,-0.0866,-0.1591,-0.2329,-0.3283,-0.4074,-0.4685,-0.482,-0.4985,-0.5086,-0.5096,-0.5243,-0.5388,-0.5392,-0.5515,-0.5901,-0.6989,-0.7351,-0.7797,-0.8967,-0.9205,-0.921,-0.921,-0.7583,-0.6637,-0.7591,-0.7744,-0.8189,-0.9428,-0.9615,-1.0006,-1.0983,-1.1144,-1.1607,-1.2649,-1.3013,-1.344,-1.4021,-1.2972,-1.2279,-1.2273,-1.2273,-1.2225,-1.2225,-1.362,-1.3804,-1.2724,-1.2995,-1.2995,-1.2686,-1.1175,-1.0519,0.0,0.0,-0.3296,-0.4795,0.0,0.0,0.0,0.0,0.0,0.0,0.0,0.0,0.0,0.0,-0.0921,-0.0128,0.0,-0.0067,0.0,0.0,0.0,0.0,0.0,0.0,0.0,0.0,0.0,-0.1056,-0.057,-0.0334,-0.058,-0.0225,0.0,0.0,0.0,0.0,0.0,0.0,0.0,0.0,0.0,0.0,0.0,0.0,0.0,0.0,0.0,-0.028,-0.0727,-0.0727,-0.1006,-0.148,-0.173,-0.1675,-0.1452,-0.1452,-0.1146,-0.0727,-0.0727,-0.1062,-0.1507,-0.1758,-0.2407,-0.3304,-0.4195,-0.463,-0.4894,-0.5142,-0.5172,-0.5147,-0.5382,-0.5433,-0.5582,-0.6217,-0.6423,-0.6785,-0.7913,-0.8253,-0.854,-0.9175,-0.9296,-0.9296,-0.9296,-0.8732,-0.8389,-0.8732,-0.8808,-0.8946,-0.9397,-1.0159,-1.0801,-1.1155,-1.1986,-1.2654,-1.3014,-1.3327,-1.3667,-1.4062,-1.3737,-1.347,-1.347,-1.347,-1.356,-1.3739,-1.4245,-1.4434,-1.4257,-1.436,-1.436,-1.425,-1.3523,-1.2677,-0.347,-0.2931,0.0,-0.3964,-0.3304,0.0,-0.3967,0.0,0.0,0.0,0.0,0.0,0.0,0.0,-0.1576,-0.0212,-0.0217,-0.0437,0.0,-0.0912,0.0,0.0,-0.0902,-0.0793,0.0,-0.0698,-0.068,-0.1349,-0.0819,-0.0595,0.0,0.0,-0.0225,0.0,0.0,0.0,0.0,0.0,0.0,0.0,0.0,0.0,0.0,0.0,0.0,0.0,0.0,-0.042,-0.109,-0.109,-0.1535,-0.2232,-0.248,-0.2471,-0.2296,-0.2212,-0.1898,-0.148,-0.148,-0.1856,-0.2358,-0.261,-0.3136,-0.3838,-0.47,-0.4965,-0.5047,-0.5324,-0.5324,-0.5257,-0.5457,-0.5698,-0.6039,-0.6676,-0.7089,-0.765,-0.8753,-0.9202,-0.9535,-1.0109,-1.0289,-1.0412,-1.0502,-1.0557,-1.0405,-1.003,-0.9986,-1.0165,-1.0767,-1.1567,-1.207,-1.207,-1.2842,-1.3327,-1.3327,-1.3593,-1.3881,-1.4075,-1.4088,-1.4088,-1.4088,-1.4088,-1.4222,-1.4466,-1.4623,-1.4823,-1.5117,-1.5217,-1.5217,-1.5156,-1.4917,-1.4267]},{"header":{"parameterUnit":"m.s-1","parameterCategory":1,"la1":30.6,"la2":29.2853,"lo1":-89.7004,"lo2":-87.6739,"dy":0.0162,"dx":0.0183,"nx":112,"ny":82,"refTime":"2024-03-02T18:00:00:Z","depth":0,"parameterNumber":3,"parameterNumberName":"V-component_of_WINDS"},"data":[0.0,0.0,0.0,0.0,0.0,0.0,0.0,0.0,0.0,0.0,0.0,0.0,0.0,0.0,0.0,0.0,0.0,0.0,0.0,0.0,0.0,0.0,0.0,0.0,0.0,0.0,0.0,0.0,0.0,0.0,0.0,0.0,0.0,0.0,0.0,0.0,0.0,0.0,0.0,0.0,0.0,0.0,0.0,0.0,0.0,0.0,0.0,0.0,0.0,0.0,0.0,0.0,0.0,0.0,0.0,0.0,0.0,0.0,0.0,0.0,0.0,0.0,0.0,0.0,0.0,0.0,0.0,0.0,0.0,0.0,0.0,0.0,0.0,0.0,0.0,0.0,0.0,0.0,0.0,0.0,0.0,0.0,0.0,0.0,0.0,0.0,0.0,0.0,0.0,0.0,0.586,0.7123,0.6993,0.6495,0.5719,0.5685,0.5741,0.583,0.0,0.0,0.0,0.0,0.0,0.0,0.0,0.0,0.0,0.0,0.0,0.0,0.0,0.0,0.0,0.0,0.0,0.0,0.0,0.0,0.0,0.0,0.0,0.0,0.0,0.0,0.0,0.0,0.0,0.0,0.0,0.0,0.0,0.0,0.0,0.0,0.0,0.0,0.0,0.0,0.0,0.0,0.0,0.0,0.0,0.0,0.0,0.0,0.0,0.0,0.0,0.0,0.0,0.0,0.0,0.0,0.0,0.0,0.0,0.0,0.0,0.0,0.0,0.0,0.0,0.0,0.0,0.0,0.0,0.0,0.0,0.0,0.0,0.0,0.0,0.0,0.0,0.0,0.0,0.0,0.0,0.0,0.0,0.0,0.0,0.0,0.0,0.0,0.0,0.0,0.0,0.0,0.0,0.0,0.0,0.0,0.0,0.0,0.0,0.0,0.0,0.0,0.0,0.0,0.6554,0.7436,0.6847,0.6126,0.5494,0.5041,0.5132,0.5918,0.0,0.0,0.0,0.0,0.0,0.0,0.0,0.0,0.0,0.0,0.0,0.0,0.0,0.0,0.0,0.0,0.0,0.0,0.0,0.0,0.0,0.0,0.0,0.0,0.0,0.0,0.0,0.0,0.0,0.0,0.0,0.0,0.0,0.0,0.0,0.0,0.0,0.0,0.0,0.0,0.0,0.0,0.0,0.0,0.0,0.0,0.0,0.0,0.0,0.0,0.0,0.0,0.0,0.0,0.0,0.0,0.0,0.0,0.0,0.0,0.0,0.0,0.0,0.0,0.0,0.0,0.0,0.0,0.0,0.0,0.0,0.0,0.0,0.0,0.0,0.0,0.0,0.0,0.0,0.0,0.0,0.0,0.0,0.0,0.0,0.0,0.0,0.0,0.0,0.0,0.0,0.0,0.0,0.0,0.0,0.0,0.0,0.0,0.0,0.0,0.0,0.0,0.0,0.6275,0.6849,0.7328,0.6764,0.6131,0.556,0.5085,0.5146,0.5901,0.6025,0.0,0.0,0.0,0.0,0.0,0.0,0.0,0.0,0.0,0.0,0.0,0.0,0.0,0.0,0.0,0.0,0.0,0.0,0.0,0.0,0.0,0.0,0.0,0.0,0.0,0.0,0.0,0.0,0.0,0.0,0.0,0.0,0.0,0.0,0.0,0.0,0.0,0.0,0.0,0.0,0.0,0.0,0.0,0.0,0.0,0.0,0.0,0.0,0.0,0.0,0.0,0.0,0.0,0.0,0.0,0.0,0.0,0.0,0.0,0.0,0.0,0.0,0.0,0.0,0.0,0.0,0.0,0.0,0.0,0.0,0.0,0.0,0.0,0.0,0.0,0.0,0.0,0.0,0.0,0.0,0.0,0.0,0.0,0.0,0.0,0.0,0.0,0.0,0.0,0.0,0.0,0.0,0.0,0.0,0.0,0.0,0.0,0.0,0.0,0.0,0.0,0.0,0.6687,0.6689,0.7144,0.6581,0.6009,0.5639,0.5068,0.5095,0.5923,0.578,0.0,0.0,0.0,0.0,0.0,0.0,0.0,0.0,0.0,0.0,0.0,0.0,0.0,0.0,0.0,0.0,0.0,0.0,0.0,0.0,0.0,0.0,0.0,0.0,0.0,0.0,0.0,0.0,0.0,0.0,0.0,0.0,0.0,0.0,0.0,0.0,0.0,0.0,0.0,0.0,0.0,0.0,0.0,0.0,0.0,0.0,0.0,0.0,0.0,0.0,0.0,0.0,0.0,0.0,0.0,0.0,0.0,0.0,0.0,0.0,0.0,0.0,0.0,0.0,0.0,0.0,0.0,0.0,0.0,0.0,0.0,0.0,0.0,0.0,0.0,0.0,0.0,0.0,0.0,0.0,0.0,0.0,0.0,0.0,0.0,0.0,0.0,0.0,0.0,0.0,0.0,0.0,0.0,0.0,0.0,0.0,0.0,0.0,0.0,0.0,0.0,0.0,0.6026,0.5868,0.7077,0.616,0.5511,0.5596,0.461,0.4606,0.6088,0.5981,0.0,0.0,0.0,0.0,0.0,0.0,0.0,0.0,0.0,0.0,0.0,0.0,0.0,0.0,0.0,0.0,0.0,0.0,0.0,0.0,0.0,0.0,0.0,0.0,0.0,0.0,0.0,0.0,0.0,0.0,0.0,0.0,0.0,0.0,0.0,0.0,0.0,0.0,0.0,0.0,0.0,0.0,0.0,0.0,0.0,0.0,0.0,0.0,0.0,0.0,0.0,0.0,0.0,0.0,0.0,0.0,0.0,0.0,0.0,0.0,0.0,0.0,0.0,0.0,0.0,0.0,0.0,0.0,0.0,0.0,0.0,0.0,0.0,0.0,0.0,0.0,0.0,0.0,0.0,0.0,0.0,0.0,0.0,0.0,0.0,0.0,0.0,0.0,0.0,0.0,0.0,0.0,0.0,0.0,0.0,0.0,0.0,0.0,0.0,0.0,0.0,0.0,0.6432,0.6289,0.6776,0.5822,0.5285,0.5627,0.4466,0.4011,0.4726,0.0,0.0,0.0,0.0,0.0,0.0,0.0,0.0,0.0,0.0,0.0,0.0,0.0,0.0,0.0,0.0,0.0,0.0,0.0,0.0,0.0,0.0,0.0,0.0,0.0,0.0,0.0,0.0,0.0,0.0,0.0,0.0,0.0,0.0,0.0,0.0,0.0,0.0,0.0,0.0,0.0,0.0,0.0,0.0,0.0,0.0,0.0,0.0,0.0,0.0,0.0,0.0,0.0,0.0,0.0,0.0,0.0,0.0,0.0,0.0,0.0,0.0,0.0,0.0,0.0,0.0,0.0,0.0,0.0,0.0,0.0,0.0,0.0,0.0,0.0,0.0,0.0,0.0,0.0,0.0,0.0,0.0,0.0,0.0,0.0,0.0,0.0,0.0,0.0,0.0,0.0,0.0,0.0,0.0,0.0,0.0,0.0,0.0,0.0,0.0,0.0,0.0,0.6681,0.6561,0.644,0.6574,0.5632,0.5195,0.5657,0.4044,0.3297,0.3988,0.0,0.0,0.0,0.0,0.0,0.0,0.0,0.0,0.0,0.0,0.0,0.0,0.0,0.0,0.0,0.0,0.0,0.0,0.0,0.0,0.0,0.0,0.0,0.0,0.0,0.0,0.0,0.0,0.0,0.0,0.0,0.0,0.0,0.0,0.0,0.0,0.0,0.0,0.0,0.0,0.0,0.0,0.0,0.0,0.0,0.0,0.0,0.0,0.0,0.0,0.0,0.0,0.0,0.0,0.0,0.0,0.0,0.0,0.0,0.0,0.0,0.0,0.0,0.0,0.0,0.0,0.0,0.0,0.0,0.0,0.0,0.0,0.0,0.0,0.0,0.0,0.0,0.0,0.0,0.0,0.0,0.0,0.0,0.0,0.0,0.0,0.0,0.0,0.0,0.0,0.0,0.0,0.0,0.0,0.0,0.0,0.0,0.0,0.0,0.0,0.0,0.0,0.6491,0.6188,0.6092,0.6545,0.5644,0.5195,0.5657,0.3245,0.2438,0.0,0.0,0.0,0.0,0.0,0.0,0.0,0.0,0.0,0.0,0.0,0.0,0.0,0.0,0.0,0.0,0.0,0.0,0.0,0.0,0.0,0.0,0.0,0.0,0.0,0.0,0.0,0.0,0.0,0.0,0.0,0.0,0.0,0.0,0.0,0.0,0.0,0.0,0.0,0.0,0.0,0.0,0.0,0.0,0.0,0.0,0.0,0.0,0.0,0.0,0.0,0.0,0.0,0.0,0.0,0.0,0.0,0.0,0.0,0.0,0.0,0.0,0.0,0.0,0.0,0.0,0.0,0.0,0.0,0.0,0.0,0.0,0.0,0.0,0.0,0.0,0.0,0.0,0.0,0.0,0.0,0.0,0.0,0.0,0.0,0.0,0.0,0.0,0.0,0.0,0.0,0.0,0.0,0.0,0.0,0.0,0.0,0.0,0.0,0.0,0.0,0.0,0.0,0.6884,0.6655,0.6453,0.6586,0.5976,0.5464,0.5221,0.3052,0.2363,0.392,0.0,0.0,0.0,0.0,0.0,0.0,0.0,0.0,0.0,0.0,0.0,0.0,0.0,0.0,0.0,0.0,0.0,0.0,0.0,0.0,0.0,0.0,0.0,0.0,0.0,0.0,0.0,0.0,0.0,0.0,0.0,0.0,0.0,0.0,0.0,0.0,0.0,0.0,0.0,0.0,0.0,0.0,0.0,0.0,0.0,0.0,0.0,0.0,0.0,0.0,0.0,0.0,0.0,0.0,0.0,0.0,0.0,0.0,0.0,0.0,0.0,0.0,0.0,0.0,0.0,0.0,0.0,0.0,0.0,0.0,0.0,0.0,0.0,0.0,0.0,0.0,0.0,0.0,0.0,0.0,0.0,0.0,0.0,0.0,0.0,0.0,0.0,0.0,0.0,0.0,0.0,0.0,0.0,0.0,0.0,0.0,0.0,0.0,0.0,0.0,0.0,0.0,0.6931,0.6803,0.6599,0.6599,0.6127,0.5757,0.5644,0.3214,0.1878,0.2315,0.0,0.0,0.0,0.0,0.0,0.0,0.0,0.0,0.0,0.0,0.0,0.0,0.0,0.0,0.0,0.0,0.0,0.0,0.0,0.0,0.0,0.0,0.0,0.0,0.0,0.0,0.0,0.0,0.0,0.0,0.0,0.0,0.0,0.0,0.0,0.0,0.0,0.0,0.0,0.0,0.0,0.0,0.0,0.0,0.0,0.0,0.0,0.0,0.0,0.0,0.0,0.0,0.0,0.0,0.0,0.0,0.0,0.0,0.0,0.0,0.0,0.0,0.0,0.0,0.0,0.0,0.0,0.0,0.0,0.0,0.0,0.0,0.0,0.0,0.0,0.0,0.0,0.0,0.0,0.0,0.0,0.0,0.0,0.0,0.0,0.0,0.0,0.0,0.0,0.0,0.0,0.0,0.0,0.0,0.0,0.0,0.0,0.0,0.0,0.0,0.0,0.0,0.6839,0.6782,0.6655,0.6655,0.6169,0.6053,0.6557,0.3678,0.1316,0.0076,0.0,0.0,0.0,0.0,0.0,0.0,0.0,0.0,0.0,0.0,0.0,0.0,0.0,0.0,0.0,0.0,0.0,0.0,0.0,0.0,0.0,0.0,0.0,0.0,0.0,0.0,0.0,0.0,0.0,0.0,0.0,0.0,0.0,0.0,0.0,0.0,0.0,0.0,0.0,0.0,0.0,0.0,0.0,0.0,0.0,0.0,0.0,0.0,0.0,0.0,0.0,0.0,0.0,0.0,0.0,0.0,0.0,0.0,0.0,0.0,0.7145,0.0,0.0,0.0,0.0,0.0,0.0,0.0,0.0,0.0,0.0,0.0,0.0,0.0,0.0,0.0,0.0,0.0,0.0,0.0,0.0,0.0,0.0,0.0,0.0,0.0,0.0,0.0,0.0,0.0,0.0,0.0,0.0,0.0,0.0,0.0,0.0,0.0,0.0,0.0,0.0,0.0,0.7297,0.7223,0.7066,0.7066,0.655,0.6307,0.6574,0.4356,0.2107,0.0126,0.0831,0.0,0.0,0.0,0.0,0.0,0.0,0.0,0.0,0.0,0.0,0.0,0.0,0.0,0.0,0.0,0.0,0.0,0.0,0.0,0.0,0.0,0.0,0.0,0.0,0.0,0.0,0.0,0.0,0.0,0.0,0.0,0.0,0.0,0.0,0.0,0.0,0.0,0.0,0.0,0.0,0.0,0.0,0.0,0.0,0.0,0.0,0.0,0.0,0.0,0.0,0.0,0.0,0.0,0.0,0.0,0.0,0.0,0.0,0.0,0.0,0.768,0.0,0.0,0.0,0.0,0.0,0.0,0.0,0.0,0.0,0.0,0.0,0.0,0.0,0.0,0.0,0.0,0.0,0.0,0.0,0.0,0.0,0.0,0.0,0.0,0.0,0.0,0.0,0.0,0.0,0.0,0.0,0.0,0.0,0.0,0.0,0.0,0.0,0.0,0.0,0.0,0.7584,0.7403,0.7195,0.7195,0.6918,0.6465,0.579,0.4234,0.236,0.0139,0.0,0.0,0.0,0.0,0.0,0.0,0.0,0.0,0.0,0.0,0.0,0.0,0.0,0.0,0.0,0.0,0.0,0.0,0.0,0.0,0.0,0.0,0.0,0.0,0.0,0.0,0.0,0.0,0.0,0.0,0.0,0.0,0.0,0.0,0.0,0.0,0.0,0.0,0.0,0.0,0.0,0.0,0.0,0.0,0.0,0.0,0.0,0.0,0.0,0.0,0.0,0.0,0.0,0.0,0.95,0.9787,1.0265,0.9593,0.9208,0.9069,0.9043,0.9355,0.981,0.8971,0.0,0.0,0.0,0.0,0.0,0.0,0.0,0.0,0.0,0.0,0.0,0.0,0.0,0.0,0.0,0.0,0.0,0.0,0.0,0.0,0.0,0.0,0.0,0.0,0.8999,0.8963,0.0,0.0,0.0,0.0,0.0,0.0,0.0,0.0,0.0,0.0,0.0,0.0,0.775,0.7517,0.7318,0.7318,0.7213,0.6659,0.544,0.4147,0.2425,0.0143,0.0,0.0,0.0,0.0,0.0,0.0,0.0,0.0,0.0,0.0,0.0,0.0,0.0,0.0,0.0,0.0,0.0,0.0,0.0,0.0,0.0,0.0,0.0,0.0,0.0,0.0,0.0,0.0,0.0,0.0,0.0,0.0,0.0,0.0,0.7726,0.9675,0.0,0.0,0.0,0.0,0.0,0.0,0.0,0.0,0.0,0.0,0.0,0.0,0.0,0.9941,1.0716,1.0955,1.1403,1.21,1.2271,1.203,1.1384,1.1287,1.0819,1.0097,1.0031,0.0,0.8959,0.8834,0.0,0.0,0.0,0.0,0.0,0.0,0.0,0.0,0.0,0.0,0.0,0.0,0.0,0.0,0.0,0.0,0.0,0.0,0.0,0.0,0.0,0.0,0.9996,0.9886,0.936,0.8908,0.0,0.9043,0.888,0.8074,0.7946,0.0,0.0,0.0,0.0,0.0,0.0,0.0,0.7838,0.7834,0.7805,0.7805,0.7287,0.7086,0.7455,0.5228,0.2721,0.0161,0.0,0.0,0.0,0.0533,0.0,0.0,0.0,0.0,0.0,0.0,0.0,0.0,0.0,0.0,0.0,0.0,0.0,0.0,0.0,0.0,0.0,0.0,0.0,0.0,0.0,0.0,0.0,0.0,0.0,0.0,0.0,0.0,0.0,0.8599,0.905,1.0668,1.0353,0.9994,0.0,0.0,0.0,0.0,0.0,0.0,0.0,0.0,0.0,1.1403,1.1427,1.1613,1.2042,1.209,1.2311,1.2659,1.2758,1.2596,1.2205,1.1759,1.1331,1.0959,1.0428,0.9947,0.9537,0.9537,0.9457,0.9337,0.0,0.0,0.0,0.0,1.0164,1.0645,1.1443,1.1425,0.0,1.0954,0.0,0.0,0.0,0.0,0.0,0.0,0.0,0.0,0.0,0.0,1.1001,1.0831,1.0273,0.9753,0.9553,0.9292,0.8976,0.0,0.906,0.922,0.8058,0.0,0.0,0.0,0.0,0.8149,0.8323,0.8252,0.8135,0.8016,0.7852,0.7631,0.7366,0.6598,0.4713,0.1342,0.0417,0.0,0.0,0.0,0.1094,0.0,0.0,0.0,0.0,0.0,0.0,0.0,0.0,0.0,0.0,0.0,0.0,0.0,0.0,0.0,0.0,0.0,0.0,0.0,0.0,0.0,0.0,0.0,0.0,0.0,0.0,0.0,0.0,0.9713,1.064,1.1389,1.1,1.0596,0.0,0.0,0.0,0.0,0.0,0.0,1.1876,1.2633,1.3147,1.3253,1.3274,1.3291,1.3334,1.3561,1.3568,1.3375,1.3598,1.3467,1.3002,1.2191,1.1702,1.1421,1.0542,1.0135,1.0057,1.009,1.0016,0.99,1.0107,1.0473,1.0939,1.1189,1.163,1.2191,1.2784,1.2595,1.2127,1.227,0.0,1.1409,1.148,0.0,0.0,0.0,0.0,1.1175,1.1851,1.1893,1.1746,1.1756,1.1271,1.0717,1.0413,1.0109,0.9715,0.0,0.9708,1.0042,0.9031,0.0,0.0,0.0,0.0,0.8706,0.8628,0.8492,0.8348,0.8191,0.8306,0.809,0.7343,0.7663,0.635,0.2713,0.0923,0.0,0.0,0.0,0.0,0.0,0.0,0.0,0.0,0.0,0.0,0.0,0.0,0.0,0.0,0.0,0.0,0.0,0.0,0.0,0.0,0.0,0.0,0.0,0.0,0.0,0.0,0.0,0.0,0.0,0.0,0.0,0.0,0.0,0.0,1.1167,1.1976,0.0,0.0,0.0,0.0,1.2371,1.3179,1.366,1.366,1.4491,1.5002,1.5074,1.5077,1.508,1.5066,1.5908,1.5937,1.5186,1.6004,1.5535,1.3905,1.3093,1.2243,1.1367,1.0473,1.0033,0.9923,1.0055,0.9991,0.9876,1.0655,1.092,1.0985,1.1769,1.2063,1.2113,1.215,1.2132,1.2181,1.2772,1.2837,1.2757,1.3072,1.2474,0.0,0.0,1.1943,1.2019,1.2739,1.2408,1.203,1.2607,1.2163,1.1582,1.136,1.1716,1.1454,0.0,0.9142,0.9213,0.9255,0.0,0.9161,0.884,0.8796,0.8705,0.8444,0.8415,0.8403,0.838,0.8387,0.8387,0.8319,0.8066,0.6724,0.3984,0.1416,0.0,0.0,0.0,0.0,0.0,0.5201,0.0,0.0,0.0,0.0,0.0,0.0,0.0,0.0,0.0,0.0,0.0,0.0,0.0,0.0,0.0,0.0,0.0,0.0,0.0,0.0,0.0,0.0,0.0,0.0,0.0,0.0,0.0,0.0,1.2854,1.3679,0.0,1.3863,1.4137,1.4283,1.4241,1.505,1.5533,1.5533,1.6324,1.6775,1.6811,1.6811,1.6811,1.6811,1.7128,1.683,1.5946,1.6784,1.6268,1.4568,1.4242,1.3627,1.2763,1.1892,1.1392,1.1191,1.1242,1.0905,1.0519,1.1988,1.2649,1.2882,1.381,1.4079,1.3962,1.3962,1.3406,1.2655,1.248,1.2742,1.3059,1.2638,1.2618,1.274,1.2855,1.285,1.2978,1.376,1.3766,1.3591,1.3676,1.319,1.263,1.219,1.1949,1.1555,1.0677,1.0713,1.0653,0.9893,0.9811,0.966,0.9027,0.9048,0.9061,0.888,0.8923,0.8901,0.8681,0.8773,0.8756,0.8553,0.854,0.7206,0.4103,0.1446,0.0,0.0,0.0,0.0,0.0,0.3513,0.4455,0.0,0.0,0.0,0.0,0.0,0.0,0.0,0.0,0.0,0.0,0.0,0.0,0.0,0.0,0.0,0.0,0.0,0.0,0.0,0.0,0.0,0.0,0.0,0.0,0.0,1.3387,1.4402,1.5007,1.5866,1.6314,1.6077,1.6577,1.6808,1.6503,1.7542,1.8061,1.7792,1.8542,1.885,1.8581,1.8509,1.8375,1.8138,1.8317,1.7839,1.6715,1.7477,1.7094,1.5692,1.5358,1.4715,1.3831,1.3013,1.2322,1.1785,1.2138,1.1879,1.1404,1.2671,1.3418,1.3908,1.473,1.519,1.5388,1.5165,1.4355,1.3353,1.302,1.3269,1.3605,1.3068,1.3269,1.3697,1.3697,1.3697,1.3826,1.4365,1.4493,1.4464,1.4326,1.4003,1.3573,1.3084,1.2659,1.2297,1.2068,1.184,1.1383,1.0375,1.0273,1.0116,0.9444,0.9359,0.9354,0.9342,0.9321,0.9223,0.8997,0.9086,0.9083,0.8852,0.8813,0.7464,0.43,0.1518,0.0794,0.2593,0.2668,0.2668,0.2668,0.3062,0.3056,0.2636,0.0,0.0,0.0,0.0,0.0,0.0,0.0,0.0,0.0,0.0,0.0,0.0,0.0,0.0,0.0,0.0,0.0,0.0,0.0,0.0,0.0,0.0,0.0,1.4881,1.5095,1.5856,1.7457,1.8517,1.878,1.7891,1.9369,2.0023,1.9146,2.0604,2.1196,2.0385,2.1077,2.1135,2.0342,2.0111,1.9719,1.9066,1.9585,1.9076,1.7584,1.8283,1.817,1.7297,1.6474,1.5503,1.4443,1.3797,1.28,1.1734,1.2699,1.2858,1.2525,1.2704,1.3222,1.3926,1.4408,1.5263,1.6131,1.5535,1.4846,1.4268,1.4477,1.453,1.4493,1.4493,1.453,1.4548,1.4548,1.4567,1.4567,1.4548,1.4548,1.453,1.4512,1.4493,1.4387,1.3997,1.3931,1.384,1.3521,1.2346,1.1259,1.0754,1.067,1.0523,1.0088,0.9743,0.0,0.9764,0.9505,0.9312,0.9316,0.9316,0.9316,0.9316,0.8902,0.7472,0.4796,0.172,0.2308,0.7435,0.7809,0.7899,0.7899,0.3976,0.2591,0.3906,0.0,0.0,0.0,0.0,0.0,0.0,0.0,0.0,0.0,0.0,0.0,0.0,0.0,0.0,0.0,0.0,0.0,0.0,0.0,0.0,0.0,1.4337,1.483,1.4266,1.6884,1.8805,1.8632,2.0477,2.1412,2.0542,2.1466,2.1754,2.0869,2.1831,2.2062,2.1216,2.1389,2.1323,2.0962,2.0478,2.0344,2.0589,2.0733,2.0256,1.9174,2.0438,1.9934,1.7883,1.8246,1.7596,1.62,1.6023,1.5565,1.5005,1.5287,1.5119,1.4697,1.452,1.4701,1.5205,1.6074,1.645,1.6505,1.6139,1.5472,1.4856,1.5244,1.4976,1.4493,1.4493,1.4921,1.5362,1.5362,1.5796,1.6101,1.5527,1.5362,1.5215,1.464,1.4493,1.4441,1.4169,1.4585,1.4913,1.4677,1.4317,1.363,1.2361,1.2113,1.1789,1.0802,1.0576,0.0,0.9668,0.9582,0.9637,0.9782,0.9812,0.9812,0.9812,0.9383,0.8598,0.7405,0.2712,0.066,0.2113,0.5861,0.7899,0.7899,0.3055,0.1655,0.0,0.0,0.0,0.0,0.0,0.0,0.0,0.0,0.0,0.0,0.0,0.0,0.0,0.0,0.0,0.0,0.0,0.0,0.0,0.0,0.0,0.0,1.6578,1.7199,1.7123,1.8955,2.0504,2.107,2.2436,2.3102,2.2523,2.3232,2.3341,2.2408,2.3157,2.3253,2.2383,2.234,2.2125,2.163,2.1229,2.121,2.1611,2.1506,2.1202,2.0732,2.1529,2.1129,1.9675,2.0123,1.9607,0.0,1.8382,1.7996,1.7346,1.7294,1.7134,0.0,0.0,0.0,0.0,0.0,1.7175,1.668,1.6826,1.6344,1.5737,1.6096,1.5888,1.5515,1.5515,1.5833,1.62,1.62,1.6548,1.6818,1.6436,1.6337,1.6225,1.5804,1.5714,1.5657,1.5459,1.5746,1.5969,1.5764,1.5388,0.0,1.3975,1.3267,1.2543,1.1738,1.1491,1.1123,1.0387,1.0231,1.0117,0.9905,0.9875,0.9875,0.9875,0.9501,0.0,0.0,0.0,0.2878,0.3781,0.6694,0.0,0.0,0.0,0.2965,0.2266,0.0,0.0,0.0,0.3339,0.367,0.0,0.0,0.0,0.0,0.0,0.0,0.0,0.0,0.0,0.0,0.0,0.0,0.0,0.0,0.0,0.0,1.9339,2.0785,2.1728,2.1186,2.1522,2.3798,2.4144,2.4091,2.3799,2.4498,2.4569,2.3568,2.4318,2.4412,2.3554,0.0,0.0,0.0,0.0,2.2126,2.2318,2.2068,2.2023,2.2131,2.209,2.2014,2.1941,2.1941,2.1404,2.048,2.0599,2.0061,1.9084,1.8964,1.8964,1.885,1.6862,1.6376,1.6925,1.7987,1.7725,1.6925,1.7612,0.0,0.0,1.6963,1.6963,1.6908,1.6908,1.6963,1.7037,1.7037,1.7124,1.7221,1.7311,1.7352,1.7371,1.7387,1.7402,1.7354,1.7176,1.7106,1.7039,1.687,1.6117,1.553,1.5603,1.4234,1.3028,1.2713,1.243,1.2051,1.1541,1.1229,1.0738,0.9981,0.0,0.0,0.9757,0.9502,0.8601,0.6877,0.649,0.7267,0.9344,0.9087,0.7438,0.4351,0.6086,0.4692,0.0,0.119,0.2331,0.3388,0.229,0.2383,0.0,0.0,0.0,0.0,0.0,0.0,0.0,0.0,0.0,0.0,0.0,0.0,0.0,0.0,0.0,2.0127,2.097,2.1845,2.3263,2.3255,2.3316,2.3799,2.4435,2.4491,2.3636,2.4329,2.4473,2.3561,2.4318,2.4412,2.3554,2.3498,2.3344,2.3013,2.2465,2.2435,2.3005,2.2959,2.2935,2.2967,0.0,0.0,2.2767,2.2767,2.23,2.1512,2.1538,2.1297,2.0905,2.0868,2.0745,2.0469,1.9456,1.8372,1.7514,1.8963,1.8951,1.8252,1.8627,1.819,1.7527,1.7786,1.7429,1.6908,1.6908,1.7348,0.0,1.7869,1.8442,1.8942,1.8329,1.825,1.8162,1.7557,1.7402,1.7397,1.7354,1.7836,1.8264,1.8217,1.8063,1.7708,1.7045,1.5281,1.3799,1.3251,1.3115,1.2795,1.2066,1.191,1.1663,1.1121,1.107,1.0817,1.0165,1.014,0.9848,0.9107,0.9008,0.9725,1.1446,1.0249,0.8624,0.6682,0.328,0.1019,0.0,0.0253,0.4413,1.1898,0.4046,0.0521,0.0,0.0,0.0,0.0,0.0,0.0,0.0,0.0,0.0,0.0,0.0,1.6196,1.8265,0.0,2.0237,2.2315,2.2757,2.3219,2.429,2.441,2.4377,2.4309,2.4669,2.4652,2.4065,2.4395,2.4431,2.3882,2.4244,2.4309,2.3874,2.3855,2.3805,2.3702,2.3382,2.3353,2.3702,2.3693,2.3693,2.3693,2.4035,2.3988,2.3602,2.3602,2.3382,2.3006,2.3006,2.2923,2.2792,2.2792,2.2393,2.1765,2.1972,2.0892,1.9356,2.0274,2.0339,1.9981,1.9819,1.9751,1.963,1.8929,1.8695,1.8705,1.8705,1.8981,1.9323,1.9427,1.9817,2.004,1.9371,1.9244,1.9215,1.8915,1.8856,1.8973,1.9411,1.942,1.9473,1.9916,1.9264,1.8502,1.8029,1.6761,1.541,1.4273,1.4097,1.3803,1.2954,1.2846,1.2607,1.1976,1.1907,1.1741,1.1347,1.1339,1.1245,1.1014,1.0562,1.0847,1.204,1.1586,1.0668,0.9335,0.7947,0.6075,0.3643,0.1196,0.3744,1.0792,0.8384,0.4642,0.0,0.0,0.0,0.0,0.0,0.0,0.0,1.4159,1.4795,1.659,1.7618,1.8901,2.1249,2.1819,2.2456,2.4077,2.4336,2.4485,2.4933,2.498,2.4917,2.4768,2.4746,2.4662,2.4461,2.4435,2.4375,2.4209,2.419,2.419,2.419,2.419,2.419,2.419,2.419,2.419,2.419,2.419,2.419,2.419,2.419,2.4218,2.4266,2.4218,2.4218,2.4266,2.4218,2.419,2.419,2.419,2.3661,2.2908,2.3838,2.3145,2.1642,2.1694,2.1615,2.1416,2.0919,2.1106,2.1317,1.9976,1.9968,2.0503,2.0503,2.0635,2.0818,2.0986,2.108,2.1047,2.0641,2.0532,2.0619,2.0781,2.0822,2.102,2.1718,2.1233,2.0874,2.1564,2.0404,1.9215,1.8997,1.8272,1.7217,1.5614,1.5233,1.4879,1.4182,1.3955,1.3543,1.2728,1.2633,1.2577,1.241,1.2335,1.2306,1.2306,1.1573,1.1485,1.2302,1.259,1.248,1.193,1.3411,1.2388,0.8695,0.4739,0.4809,0.8721,1.2659,0.9283,1.6931,1.5088,1.3984,1.6105,1.5137,1.4795,0.0,1.8579,1.7614,1.9315,2.0395,2.1368,2.2457,2.3288,2.4096,2.5019,2.5173,2.5128,2.5028,2.4897,2.4741,2.4569,2.4518,2.4452,2.4238,2.4237,2.4218,2.419,2.419,2.419,2.419,2.419,2.419,2.419,2.419,2.419,2.419,2.419,2.419,2.419,2.419,2.4294,2.4452,2.4275,2.4294,2.4452,2.4275,2.419,2.419,2.419,2.4115,2.4023,2.4143,2.4051,2.3756,2.3079,2.2374,2.175,2.1675,2.1216,2.0621,2.0437,2.0437,2.0503,2.0503,2.1124,2.1839,2.1861,2.2123,2.2402,2.2406,2.2489,2.2608,2.269,2.2704,2.2726,2.281,2.2749,2.2706,2.2803,2.2036,2.1113,2.0333,1.9532,1.8568,1.731,1.6451,1.5931,1.5837,1.52,1.4426,1.3562,1.3471,1.3172,1.2466,1.2335,1.2306,1.2306,1.2091,1.2338,1.3133,1.254,1.2811,1.4126,1.3429,1.3283,1.3686,1.3136,1.3154,1.3704,1.4237,0.9283,1.73,1.6972,1.7074,1.7176,1.7245,1.7862,2.0024,2.0151,2.0182,2.141,2.2391,2.3278,2.4101,2.4543,2.4909,2.525,2.5308,2.5224,2.5028,2.4543,2.4136,2.3938,2.3806,2.3864,2.4182,2.4312,2.4375,2.4375,2.4486,2.4561,2.4561,2.4561,2.4561,2.4561,2.4561,2.4561,2.4561,2.4426,2.4426,2.4553,2.4418,2.4478,2.467,2.4583,2.461,2.467,2.4602,2.4478,2.4384,2.4503,2.4419,2.4209,2.4339,2.4303,2.4153,2.3823,2.3492,2.3153,2.2795,2.2403,2.194,2.1126,2.1162,2.1547,2.1547,2.218,2.2898,2.3012,2.3208,2.3275,2.2918,2.29,2.2963,2.2989,2.2995,2.3141,2.3692,2.3422,2.3208,2.3716,2.3109,2.2399,2.1988,2.163,2.1079,2.0044,1.8294,1.7096,1.7096,1.6344,1.5497,1.4625,1.4529,1.438,1.4064,1.3906,1.3802,1.3802,1.3165,1.3165,1.3967,1.3238,1.333,1.4475,1.4053,1.4053,1.4493,1.4493,1.4493,1.4493,1.4493,1.0828,1.8063,1.8652,1.9494,1.8585,1.9368,2.0497,2.1072,2.1694,2.2345,2.3019,2.3663,2.4202,2.4543,2.4759,2.4903,2.4957,2.5105,2.5198,2.5094,2.4287,2.374,2.3846,2.3444,2.3433,2.4211,2.44,2.4528,2.4575,2.4716,2.4804,2.4804,2.4804,2.4804,2.4804,2.4804,2.4804,2.4804,2.4654,2.4654,2.4797,2.4654,2.4685,2.4862,2.4862,2.4828,2.4804,2.4804,2.4716,2.4591,2.4738,2.4623,2.4384,2.4528,2.4495,2.4366,2.4366,2.4339,2.4211,2.3775,2.3327,2.2776,2.1758,2.167,2.1934,2.1934,2.2716,2.3619,2.3762,2.4042,2.4218,2.3747,2.3672,2.3719,2.3731,2.3734,2.3936,2.4617,2.4268,2.3995,2.464,2.4053,2.3444,2.3386,2.3187,2.2815,2.2207,2.0469,1.8976,1.8259,1.718,1.6253,1.5635,1.5346,1.5192,1.5192,1.5027,1.4904,1.4904,1.4094,1.3893,1.4475,1.393,1.3917,1.4493,1.4539,1.4561,1.4561,1.46,1.4616,1.4616,1.4571,1.2188,1.9741,1.9745,2.0198,2.1063,2.1363,2.19,2.3586,2.4009,2.4028,2.4052,2.4072,2.386,2.3028,2.3417,2.3905,2.4106,2.4629,2.5082,2.5264,2.425,2.3817,2.4672,2.3719,2.3409,2.4395,2.4495,2.4575,2.4775,2.4797,2.4804,2.4804,2.4804,2.4804,2.4804,2.4804,2.4804,2.4804,2.4797,2.4797,2.4804,2.4797,2.485,2.4979,2.4979,2.4911,2.4804,2.4804,2.4797,2.479,2.4797,2.4797,2.4782,2.479,2.479,2.4782,2.4782,2.4654,2.4495,2.4466,2.3521,2.2324,2.2274,2.1702,2.1036,2.1036,2.233,2.3786,2.3791,2.4553,2.5362,2.5412,2.5473,2.5549,2.5604,2.5625,2.5625,2.5644,2.5644,2.5625,2.5664,2.4961,2.4355,2.4355,2.3652,2.3105,2.3144,2.2978,2.193,1.9397,1.7564,1.6487,1.6465,1.5692,1.5192,1.5192,1.5027,1.4904,1.4904,1.4622,1.4475,1.4493,1.4475,1.4475,1.4493,1.4624,1.4683,1.4683,1.4818,1.4891,1.4891,1.4757,1.2863,1.9976,2.0736,2.1802,2.2119,2.2714,2.3528,2.4639,2.449,2.3937,2.3355,2.324,2.3144,2.2855,2.291,2.3419,2.4697,2.45,2.4462,2.5197,2.4493,2.4014,2.4296,2.3854,2.3725,2.418,2.4403,2.4612,2.4904,2.4924,2.4987,2.5126,2.5132,2.5132,2.5132,2.5692,2.5979,2.5979,2.6435,2.6727,2.6852,2.6272,2.6315,2.6883,2.5726,2.5814,2.6795,2.5635,2.5379,2.5748,2.5321,2.5013,2.4811,2.4897,2.4871,2.4804,2.4804,2.4802,2.4831,2.4831,2.4163,2.3314,2.3447,2.2899,2.2306,2.2885,2.349,2.4115,2.4647,2.5116,2.5479,2.5486,2.5573,2.5662,2.5683,2.5703,2.5703,2.5703,2.5703,2.5703,2.5703,2.5469,2.5254,2.5254,2.5019,2.4627,2.4014,2.2911,2.1588,2.0092,1.8871,1.7933,1.7353,1.7026,1.6849,1.6849,1.6223,1.5836,1.5836,1.516,1.4775,1.4775,1.4775,1.4775,1.4775,1.4804,1.4827,1.4827,1.4882,1.4904,1.4923,1.5689,1.5413,2.1242,2.2206,2.3208,2.352,2.4098,2.4623,2.4841,2.4269,2.3245,2.1772,2.1658,2.1625,2.1026,2.1262,2.2157,2.3949,2.3671,2.3684,2.5009,2.4438,2.4121,2.4814,2.445,2.4472,2.5269,2.5449,2.5386,2.514,2.5105,2.5297,2.5745,2.5769,2.5904,2.6212,2.6774,2.7063,2.7063,2.7499,2.7777,2.7933,2.7385,2.7426,2.7924,2.6798,2.6891,2.7851,2.6391,2.6011,2.6355,2.5618,2.5165,2.5,2.5065,2.5041,2.4987,2.4987,2.5037,2.5099,2.5028,2.4524,2.3929,2.4063,2.3509,2.2893,2.3471,2.386,2.4206,2.4736,2.5163,2.5477,2.5484,2.5572,2.5662,2.5683,2.5703,2.5703,2.5703,2.5703,2.5703,2.5703,2.5703,2.5703,2.5703,2.5683,2.5457,2.483,2.3512,2.2133,2.0893,1.9985,1.9123,1.8261,1.7891,1.7699,1.7699,1.6846,1.6307,1.6307,1.5426,1.4904,1.4904,1.4904,1.4904,1.4904,1.4923,1.51,1.5403,1.5444,1.562,1.5929,1.6709,1.7037,2.3436,2.4071,2.4493,2.5271,2.5475,2.5243,2.4335,2.3434,2.2065,1.9591,1.9504,1.9411,1.7841,1.872,2.0282,2.2023,2.2261,2.2886,2.4802,2.4265,2.434,2.6225,2.555,2.5663,2.7504,2.7462,2.6806,2.5538,0.0,2.5783,2.6621,2.6678,2.7044,2.7876,2.7939,2.7964,2.7964,2.8007,2.8078,2.8136,2.8157,2.8194,2.8211,2.8126,2.8098,2.8071,2.7147,2.6742,2.666,2.5755,2.5385,2.5366,2.5327,2.5308,2.5308,2.5308,2.5303,2.5284,2.5086,2.4645,2.4168,2.4168,2.3567,2.2874,2.2913,2.3471,2.411,2.4149,2.4767,2.5401,2.5488,2.5551,2.5628,2.5683,2.5703,2.5703,2.5703,2.5703,2.5703,2.5703,2.5703,2.5703,2.5703,2.5637,2.557,2.5505,2.4799,2.3626,2.1867,2.0885,2.0042,1.9223,1.8353,1.7834,1.7834,1.6926,1.6372,1.6372,1.5458,1.4921,1.4921,1.4921,1.4921,1.493,1.503,1.5479,1.6304,1.6486,1.6949,1.7699,1.7757,1.7734,2.4614,2.5947,2.6892,2.6479,2.6411,2.5874,2.3717,2.2086,2.0627,1.9177,1.847,1.817,1.8297,1.9114,2.0384,2.2225,2.2505,2.3364,2.5841,2.5965,2.6439,2.8186,2.7626,2.7524,2.8608,2.8138,2.7606,0.0,2.7104,2.7182,2.7538,2.7563,2.7659,2.7895,2.8536,2.8872,2.8872,2.9555,2.9913,2.9936,2.9358,2.9388,2.9947,2.9322,2.9368,2.9898,2.9059,2.8699,2.857,2.7035,2.6417,2.6356,2.5709,2.5453,2.5453,2.5453,2.5415,2.5376,2.5369,2.5205,2.4981,2.4981,2.4447,2.3875,2.4485,2.4389,2.4221,2.4832,2.5183,2.5406,2.5418,2.5503,2.5603,2.561,2.5661,2.5703,2.5703,2.5703,2.5703,2.5703,2.5703,2.5703,2.5703,2.5637,2.5598,2.559,2.5334,2.4739,2.3598,2.212,2.1119,2.0889,2.0139,1.9638,1.9638,1.8236,1.7338,1.7338,1.5951,1.513,1.513,1.513,1.5143,1.5204,1.5802,1.6234,1.6444,1.7083,1.7507,1.7718,1.8376,1.8654,2.6624,2.7474,2.7803,2.696,2.6512,2.5675,2.3383,2.1543,1.9792,1.7983,1.7468,1.7223,1.6902,1.7573,1.8977,2.1403,2.1616,2.2623,2.6,2.6797,2.7564,2.8975,2.9086,2.9226,2.9702,2.968,2.9477,2.9107,2.8247,2.7946,2.8409,2.8434,2.8615,2.9028,2.9519,2.9772,2.9814,3.0367,3.0633,3.0633,3.025,3.0494,3.1271,3.0773,3.078,3.1178,0.0,2.9747,2.9269,2.7522,2.6805,2.6707,2.5844,2.5491,2.5491,2.5491,2.5488,2.5456,2.5498,2.5456,2.5379,2.5346,2.5028,2.4716,2.5154,2.4981,2.4716,2.5173,2.5336,2.5363,2.5398,2.5488,2.5561,2.5598,2.5658,2.5703,2.5703,2.5703,2.5703,2.5703,2.5703,2.5703,2.5703,2.5637,2.5602,2.5602,2.5547,2.531,2.477,2.3227,2.2004,2.164,2.0827,2.0294,2.0294,1.9051,1.8276,1.8273,1.7023,1.6134,1.5783,1.5763,1.5799,1.5866,1.6301,1.6902,1.7641,1.8086,1.8506,1.885,1.9334,1.9565,2.8744,2.881,2.8263,2.7246,2.6375,2.5229,2.3118,2.1204,1.9181,1.6735,1.652,1.6375,1.5022,1.5695,1.7387,2.0245,2.0528,2.1819,2.5943,2.728,2.8299,2.9577,3.0393,3.0871,3.0947,3.1453,3.1475,3.0655,2.9141,2.8548,2.9263,2.9401,2.9887,3.0835,3.0762,3.0787,3.0967,3.092,3.0956,3.1054,3.1072,3.1523,3.2363,3.2354,3.2304,3.2147,3.1391,0.0,2.9647,2.7898,2.718,2.7082,2.6219,2.5868,2.5868,2.5868,2.5862,2.5857,2.5864,2.578,2.5637,2.5453,2.5359,2.5313,2.5293,2.5308,2.5308,2.5308,2.5308,2.5313,2.5364,2.5441,2.5496,2.5566,2.5636,2.5683,2.5703,2.5703,2.5703,2.5703,2.5703,2.5703,2.5703,2.5658,2.5607,2.5607,2.5561,2.5535,2.5535,2.4159,2.2847,2.1973,2.1048,2.0444,2.0324,1.9516,1.9027,1.9036,1.8217,1.7401,1.6704,1.6687,1.6718,1.6771,1.6877,1.7645,1.9106,1.9204,1.9619,2.0308,2.0308,2.0308,2.9284,3.0184,3.0694,2.8499,2.735,2.5873,2.2492,1.9852,1.791,1.71,1.6006,1.5295,1.5617,1.7125,1.875,2.0016,2.1402,2.3576,2.7207,2.8451,2.988,3.223,3.2639,3.2743,3.2746,3.2167,3.1468,3.0655,3.0254,3.0124,3.0325,3.0978,3.1786,3.2781,3.212,3.2119,3.2907,3.2264,3.2265,3.2929,3.2285,3.2402,3.3223,3.3906,3.3847,3.3144,3.3006,0.0,3.1579,2.9822,2.9119,2.9021,2.8142,2.781,2.781,2.781,2.7783,2.7747,2.7806,2.7279,2.6439,2.5667,2.5391,2.5368,2.5322,2.5308,2.5308,2.5308,2.5308,2.5293,2.5317,2.5375,2.5438,2.5493,2.5564,2.5633,2.5683,2.5703,2.5703,2.5703,2.5703,2.5703,2.5703,2.5683,2.5683,2.5683,2.5662,2.5661,2.5661,2.473,2.3744,2.2864,2.1982,2.118,2.0435,1.9634,1.9163,1.9163,1.8356,1.7803,1.7654,1.7656,1.7651,1.7677,1.8331,1.8802,1.9103,1.9764,2.0154,2.0308,2.0308,2.0308,3.0524,3.1239,3.1345,2.8832,2.6901,2.4909,2.2058,1.9393,1.7331,1.6624,1.5887,1.5368,1.538,1.6531,1.7914,1.92,2.022,2.2342,2.6711,2.807,2.9581,3.2208,3.331,3.3718,3.3283,3.3223,3.2704,3.1511,3.2158,3.2006,3.0661,3.1432,3.2328,3.3274,3.2938,3.2946,3.3398,3.3027,3.3027,3.3398,3.3008,3.3262,3.4082,3.4512,3.4473,3.4082,3.4082,0.0,3.2109,3.0801,3.0019,2.9512,2.8633,2.8301,2.8301,2.8301,2.828,2.8258,2.8281,2.7984,2.7436,2.6492,2.5843,2.5453,2.5408,2.539,2.5402,2.5367,2.5346,2.5444,2.5866,2.6037,2.6086,2.6168,2.5918,2.5661,2.5683,2.5703,2.5703,2.5703,2.5703,2.5703,2.5703,2.5703,2.5703,2.5703,2.5703,2.5703,2.5703,2.5306,2.4688,2.3828,2.2547,2.1579,2.1168,2.0331,1.9828,1.9828,1.9425,1.901,1.8581,1.8581,1.8594,1.863,1.8965,1.9358,1.9782,2.0133,2.0303,2.0308,2.0308,2.0308,3.1157,3.1649,3.1397,2.8838,2.6134,2.3624,2.1717,1.915,1.6943,1.6074,1.5804,1.5545,1.5016,1.57,1.6908,1.8589,1.9243,2.1166,2.5816,2.7518,2.9214,3.167,3.349,3.4289,3.3665,3.4153,3.3947,3.2558,3.3427,3.3181,3.1276,3.1721,3.2523,3.3578,3.365,3.3769,3.3965,3.3769,3.3769,3.3945,3.3769,3.4141,3.498,3.498,3.498,3.4961,3.4785,0.0,0.0,3.1797,3.0937,3.0098,2.9394,2.9023,2.8867,2.8867,2.8867,2.8867,2.8867,2.873,2.8457,2.7726,2.6723,2.5762,2.5554,2.5491,2.5481,2.5441,2.5418,2.5607,2.644,2.6675,2.6792,2.7045,2.6521,2.5977,2.5977,2.582,2.5703,2.5703,2.5703,2.5703,2.5703,2.5703,2.5703,2.5703,2.5703,2.5703,2.5703,2.5703,2.5449,2.4746,2.3297,2.2215,2.1844,2.1142,2.0714,2.0714,2.0714,2.0433,1.9791,1.9772,1.972,1.957,1.9498,1.9761,2.0408,2.0504,2.0555,2.0558,2.0558,2.0558,2.9799,3.0786,3.139,2.8842,2.5687,2.2873,2.1521,1.8755,1.6382,1.5977,1.5466,1.5061,1.4996,1.5804,1.7042,1.8794,2.0306,2.2313,2.5285,2.7768,2.9985,3.1931,3.3651,3.4647,3.4589,3.4577,3.4222,3.3359,3.2734,3.2592,3.3038,3.2494,3.2929,3.4511,3.457,3.4961,3.5742,3.498,3.498,3.5742,3.4961,3.5039,3.5879,3.5879,3.5879,3.584,3.5039,0.0,0.0,3.3535,3.2695,3.1953,3.1875,3.1367,3.0664,3.0664,3.0664,3.0664,3.0664,3.0137,2.9473,2.9375,2.8177,2.6607,2.5762,2.5491,2.551,2.5484,2.5481,2.5695,2.6551,2.679,2.7004,2.7875,2.7454,2.6875,2.6875,2.6269,2.5703,2.5703,2.5703,2.5703,2.5703,2.5703,2.5703,2.5703,2.5703,2.5703,2.5703,2.5703,2.5664,2.5586,2.4726,2.3535,2.2012,2.1816,2.1757,2.1757,2.1757,2.1738,2.164,2.164,2.1289,2.0508,2.0359,2.0336,2.0408,2.1065,2.1397,2.1389,2.1389,2.1389,2.8573,2.9567,2.9914,2.7289,2.4819,2.2461,2.0314,1.8017,1.6151,1.5489,1.5174,1.5028,1.5117,1.5885,1.6885,1.8075,1.8782,2.0334,2.3572,2.5352,2.7569,3.09,3.2818,3.4263,3.5319,3.5407,3.5276,3.498,3.3242,3.2773,3.4079,3.3378,3.3476,3.4668,3.5215,3.5391,3.5215,3.5391,3.5664,3.5996,3.5644,3.5664,3.5996,3.5996,3.5996,3.5976,3.5625,0.0,0.0,3.4336,3.3672,3.293,3.293,3.2402,3.168,3.168,3.1307,3.0793,3.0878,3.0623,3.0187,2.9746,2.9082,2.8202,2.6829,2.604,2.5606,2.5566,2.5931,2.6529,2.7369,2.7994,2.851,2.8897,2.8373,2.7773,2.7773,2.7109,2.6484,2.6484,2.6055,2.5703,2.5703,2.5703,2.5703,2.5703,2.5703,2.5703,2.5703,2.5703,2.5703,2.5703,2.4922,2.4121,2.3457,2.248,2.1894,2.1894,2.1894,2.1894,2.1894,2.2363,2.2461,2.2109,2.2055,2.2002,2.1967,2.2223,2.2057,2.1504,2.1504,2.1504,2.7023,2.7842,2.7901,2.5728,2.369,2.1578,1.9088,1.7408,1.6097,1.5189,1.5032,1.5088,1.5183,1.5695,1.6477,1.7545,1.7931,1.9155,2.2203,2.3583,2.5504,2.8823,3.0726,3.256,3.4609,3.549,3.583,3.5625,3.3691,3.3046,3.4258,3.371,3.3788,3.4668,3.5547,3.5703,3.5098,3.5684,3.5996,3.5996,3.5996,3.5996,3.5996,3.5996,3.5996,3.5996,3.5996,0.0,0.0,3.5056,3.4525,3.3737,3.3737,3.323,3.2506,3.2506,3.2044,3.1455,3.1542,3.134,3.0971,3.045,2.9896,2.9214,2.8049,2.7103,2.6425,2.6401,2.704,2.7836,2.8393,2.9227,2.9908,2.9908,2.9274,2.8672,2.8672,2.7793,2.6992,2.6992,2.6309,2.5703,2.5703,2.5703,2.5703,2.5703,2.5703,2.5703,2.5703,2.5703,2.5703,2.5703,2.5156,2.4668,2.4392,2.3298,2.2615,2.2615,2.2615,2.2616,2.2637,2.3184,2.3359,2.3105,2.3097,2.3076,2.3024,2.3225,2.2953,2.2292,2.2292,2.2157,2.5013,2.5526,2.5412,2.4441,2.2319,1.9933,1.8045,1.7021,1.6212,1.5204,1.5117,1.5192,1.5192,1.5212,1.5785,1.751,1.8477,1.9654,2.1552,2.319,2.4591,2.5624,2.7162,2.9221,3.1972,3.4512,3.5644,3.4785,3.3838,0.0,3.3418,3.335,3.3738,3.4668,3.5547,3.5996,3.5996,3.5996,3.5996,3.5996,3.5996,3.5996,3.5996,3.5996,3.5996,0.0,0.0,0.0,0.0,3.5884,3.5325,3.4494,3.4494,3.3962,3.3197,3.3197,3.3177,3.3177,3.3177,3.2616,3.1881,3.1884,3.0713,2.9291,2.9271,2.8758,2.8181,2.8241,2.8906,2.957,2.957,3.0234,3.0898,3.0898,3.0215,2.959,2.959,2.8223,2.6992,2.6992,2.6309,2.5703,2.5703,2.5703,2.5703,2.5703,2.5703,2.5703,2.5703,2.5703,2.5703,2.5703,2.5684,2.5311,2.4372,2.4292,2.4273,2.4273,2.4273,2.4304,2.4375,2.4375,2.3984,2.3125,2.3097,2.3107,2.3107,2.3908,2.4258,2.4177,2.4177,2.3678,2.1856,2.2452,2.2586,2.1087,2.0116,1.9043,1.7253,1.6679,1.6247,1.5335,1.5174,1.5192,1.5192,1.5192,1.5951,1.8252,1.8862,1.9687,2.1473,2.3195,2.5071,2.7226,3.1033,3.361,3.3887,0.0,3.5898,3.5605,3.4218,3.3631,3.4258,3.3183,3.2674,3.2988,3.4375,3.4551,3.3418,3.4531,3.5117,3.5117,3.5723,3.5996,3.5996,3.5996,3.5974,0.0,0.0,0.0,0.0,3.6014,3.594,3.6144,3.5544,3.4824,3.4098,3.4098,3.3647,3.3085,3.3172,3.2959,3.2561,3.2055,3.149,3.0905,3.0367,2.9264,2.8337,2.9003,2.9394,2.9746,3.0332,3.1133,3.1641,3.1035,3.1133,3.1211,3.0625,2.959,2.8789,2.8789,2.7598,2.6582,2.6582,2.6051,2.5657,2.5683,2.5661,2.5658,2.5683,2.5703,2.5703,2.5703,2.5703,2.5586,2.5271,2.4674,2.4292,2.4292,2.4292,2.4315,2.4324,2.4959,2.5156,2.4883,2.4882,2.4857,2.4803,2.5066,2.4843,2.4196,2.4196,2.4026,1.9732,2.0055,1.9935,1.8841,1.8576,1.8117,1.6406,1.6253,1.6253,1.5385,1.5192,1.5192,1.5192,1.5192,1.5827,1.775,1.8366,1.9219,2.0951,2.2681,2.4746,2.7382,3.1465,3.3984,0.0,3.5097,3.5996,3.5996,3.4354,3.3612,3.418,3.2889,3.199,3.1719,3.3652,3.4355,3.3633,3.4646,3.5151,3.5151,3.5651,3.5899,3.5899,3.5899,3.604,0.0,0.0,0.0,0.0,3.6017,3.5972,3.6372,3.5834,3.5325,3.487,3.487,3.4487,3.392,3.3655,3.3519,3.3327,3.2541,3.2034,3.1666,3.1204,3.0163,2.9273,2.9856,3.0057,3.0215,3.0762,3.1309,3.166,3.1445,3.1543,3.1641,3.1445,3.0449,2.9609,2.9609,2.8457,2.7383,2.7029,2.6498,2.6028,2.5719,2.5658,2.5658,2.5683,2.5703,2.5703,2.5703,2.5703,2.5703,2.5703,2.5119,2.4765,2.4799,2.4768,2.4772,2.4834,2.5389,2.5703,2.5703,2.5703,2.5683,2.5635,2.5606,2.5306,2.4732,2.4671,2.4625,0.0,1.8242,1.7603,1.7545,1.7526,1.7103,1.5558,1.583,0.0,1.5365,1.5192,1.5212,1.5288,1.5231,1.5541,1.659,1.7462,1.8606,2.0331,2.2134,2.4157,2.6537,2.9394,3.1425,3.2056,3.4451,3.5976,3.5918,3.4287,3.3307,3.33,3.2411,3.1645,3.1073,3.3359,3.4941,3.5703,3.5784,3.5802,3.5798,3.5722,3.5707,3.5707,3.5707,3.6147,0.0,0.0,0.0,0.0,3.5943,3.5589,3.5577,3.5519,3.55,3.55,3.55,3.55,3.5385,3.4564,3.4302,3.4148,3.3276,3.2449,3.18,3.1859,3.1323,3.0687,3.0693,3.0793,3.0898,3.0898,3.0957,3.1172,3.1934,3.1543,3.1191,3.1953,3.084,2.9687,2.9687,2.8984,2.8124,2.7231,2.7046,2.6697,2.5821,2.5697,2.5683,2.5683,2.5683,2.5683,2.5683,2.5683,2.5683,2.5683,2.557,2.552,2.5599,2.5543,2.5556,2.5683,2.5683,2.5683,2.5683,2.5703,2.5703,2.5703,2.5635,2.5603,2.5599,2.5477,2.5397,1.6151,0.0,1.6619,1.5945,1.5788,1.5673,0.0,1.5365,1.5442,1.5231,1.5192,1.5404,1.6061,1.5654,1.612,1.8943,1.966,2.045,2.2143,2.5018,2.7177,2.7784,3.1366,3.3379,3.2284,3.4447,3.5672,3.5058,3.3951,3.3018,3.2367,3.1481,3.1503,3.262,3.3246,3.3364,3.2946,3.4246,3.4885,3.4834,3.5421,3.5707,3.5707,3.5707,3.578,0.0,0.0,0.0,3.6684,3.5856,3.5887,3.6365,3.5731,3.55,3.55,3.55,3.55,3.5462,3.5269,3.5192,3.5045,3.418,3.3314,3.2628,3.2645,3.1661,3.0568,3.0677,3.0721,3.077,3.0878,3.1387,3.1777,3.1328,3.1562,3.1777,3.1309,3.0879,3.0586,3.0586,2.9883,2.9219,2.9003,2.7826,2.684,2.6638,2.5996,2.5551,2.5551,2.5551,2.5551,2.5551,2.5598,2.5611,2.5611,2.5599,2.5573,2.5601,2.5543,2.5505,2.5549,2.5551,2.5566,2.5611,2.5662,2.5703,2.5703,2.5683,2.5658,2.5601,2.5524,2.5453,1.5296,1.5953,1.6433,1.5912,1.5791,1.5807,1.5801,1.5481,1.5192,1.5192,1.5192,1.5476,1.6331,1.6444,1.7134,1.9381,2.0513,2.1826,2.3902,2.6184,2.7915,2.8618,3.1172,3.2803,0.0,3.3877,3.4655,3.4602,3.3407,3.2454,3.1971,3.1131,3.1247,3.2568,3.2999,3.3367,3.3692,3.4597,3.504,3.5005,3.5418,3.5606,3.5606,3.5606,3.5797,0.0,0.0,0.0,3.6673,3.6231,3.6096,3.6135,3.6077,3.5827,3.55,3.55,3.55,3.5442,3.5045,3.4911,3.4891,3.4814,3.4218,3.3506,3.3506,3.2605,3.1555,3.1278,3.1241,3.1223,3.0889,3.1209,3.1582,3.1504,3.1543,3.1582,3.1504,3.1172,3.0898,3.0898,3.0527,3.0058,2.9625,2.8432,2.7389,2.6911,2.6119,2.5522,2.5496,2.5491,2.5491,2.5491,2.5539,2.5563,2.5601,2.5602,2.5607,2.5637,2.5573,2.5559,2.5597,2.5561,2.5561,2.5601,2.5635,2.5662,2.5703,2.5703,2.5683,2.5637,2.5549,2.549,1.5321,1.6186,1.672,1.64,1.6411,1.6462,1.6335,1.5734,1.5192,1.5192,1.53,1.5664,1.6546,1.7417,1.8336,1.9345,2.1222,2.3495,2.6173,2.7246,2.8179,2.936,3.044,0.0,3.2694,3.3038,3.3446,3.4059,0.0,3.1838,3.1683,3.0999,3.1044,3.2015,3.278,3.3969,3.564,3.5616,3.56,3.5574,3.5534,3.55,3.55,3.55,3.5865,3.6481,0.0,0.0,3.6692,3.6692,3.6308,3.575,3.6423,3.6212,3.55,3.55,3.55,3.5385,3.4641,3.4398,3.4526,3.525,3.5007,3.4398,3.4398,3.3872,3.3147,3.239,3.2087,3.1828,3.1081,3.0891,3.1094,3.1836,3.1445,3.1094,3.1836,3.1426,3.0898,3.0898,3.0898,3.0644,2.9852,2.8923,2.8004,2.7145,2.6208,2.5566,2.5484,2.5476,2.5471,2.5479,2.5488,2.5517,2.5563,2.557,2.5605,2.5661,2.5632,2.5628,2.5658,2.5605,2.5575,2.5575,2.5599,2.5634,2.5703,2.5703,2.5703,2.5703,2.5561,2.5491,1.6054,1.7082,1.7346,1.5868,1.6006,1.6307,1.5562,1.5308,1.5192,1.5192,1.5798,1.6563,1.7445,1.8312,1.9452,2.1113,2.3993,2.7186,3.0461,3.1001,3.0909,3.0445,0.0,3.233,3.1112,3.2272,3.2885,3.234,0.0,3.1493,3.0741,3.0586,3.1192,3.2694,3.2887,3.3774,3.5502,3.5577,3.5566,3.5521,3.5494,3.55,3.55,3.55,3.5577,3.5673,0.0,3.5962,3.6692,3.6692,3.6635,3.6519,3.6654,3.6212,3.55,3.55,3.55,3.5481,3.5346,3.5308,3.5327,3.5462,3.5404,3.5308,3.5308,3.5212,3.4911,3.4077,3.2909,3.1893,3.1828,3.1357,3.0937,3.1074,3.0996,3.0937,3.1074,3.0996,3.0898,3.0898,3.0898,3.0859,3.0703,2.9355,2.8221,2.8024,2.6615,2.5554,2.5425,2.5427,2.5398,2.5339,2.5379,2.5418,2.5431,2.5473,2.5529,2.5537,2.5567,2.5554,2.5456,2.5481,2.5524,2.5524,2.5566,2.5634,2.5703,2.5703,2.5703,2.5703,2.5561,2.5491,1.5644,1.6617,1.695,1.5675,1.6666,1.7855,1.7456,1.7364,1.7342,1.7301,1.7629,1.8166,1.9046,1.9923,2.1551,2.4745,2.6916,2.8911,3.0915,3.0392,2.9997,0.0,0.0,3.1087,3.1182,3.1477,3.1684,0.0,0.0,0.0,3.0471,3.0451,3.0998,3.2218,3.2679,3.3506,3.4795,3.5297,3.5522,3.55,3.55,3.55,3.55,3.55,3.55,3.55,0.0,3.5712,3.6096,3.6519,3.6442,3.6096,3.6519,3.6212,3.55,3.55,3.55,3.55,3.55,3.55,3.55,3.55,3.55,3.55,3.55,3.55,3.5423,3.5026,3.4138,3.3096,3.2174,3.1776,3.1484,3.1016,3.0898,3.0898,3.0898,3.0898,3.0898,3.0898,3.0898,3.0898,3.0898,2.9453,2.828,2.8205,2.6715,2.5552,2.5424,2.5406,2.5368,2.5303,2.5321,2.5363,2.5398,2.5425,2.5465,2.5508,2.5561,2.5545,2.542,2.5491,2.5543,2.5491,2.5563,2.5634,2.5703,2.5703,2.5683,2.5637,2.5549,2.5471,1.5723,1.6342,1.6521,1.5867,1.7151,1.8636,1.8843,1.8887,1.8979,1.9357,1.9595,1.9943,2.0594,2.1767,2.3884,2.7798,2.9283,3.024,3.1033,3.0219,2.9846,3.0675,3.0182,3.0205,3.1281,3.0788,0.0,0.0,0.0,0.0,3.0404,3.0404,3.0808,3.1679,3.2295,3.3122,3.4186,3.4853,3.5288,3.55,3.55,3.55,3.55,3.55,3.55,3.55,3.55,3.5615,3.5827,3.6442,3.6346,3.5846,3.6462,3.6212,3.55,3.55,3.55,3.55,3.55,3.55,3.55,3.55,3.55,3.55,3.55,3.5508,3.5522,3.5522,3.5195,3.4477,3.2918,3.2505,3.2266,3.1406,3.1191,3.1152,3.0937,3.0898,3.0898,3.0898,3.0898,3.0898,3.0898,2.9629,2.8593,2.8545,2.7037,2.5881,2.5751,2.5557,2.5483,2.5605,2.5452,2.5342,2.5427,2.5413,2.5425,2.5506,2.5561,2.5551,2.5431,2.5543,2.5564,2.5493,2.5563,2.5634,2.5703,2.5683,2.5658,2.5601,2.5524,2.5453,1.7363,1.723,1.661,1.6618,1.6649,1.693,1.7795,1.7952,1.8386,2.0046,2.1048,2.1626,2.1685,2.367,2.6161,2.8718,3.0522,3.1889,3.2632,0.0,3.3224,3.1768,3.1557,3.1243,3.0558,0.0,0.0,0.0,0.0,0.0,3.0404,3.0404,3.0808,3.1679,3.1756,3.2564,3.4186,3.4263,3.4699,3.55,3.55,3.55,3.55,3.55,3.55,3.55,3.55,3.5923,3.6615,3.6673,3.6673,3.6615,3.6673,3.6212,3.55,3.55,3.55,3.55,3.55,3.55,3.55,3.55,3.55,3.55,3.55,3.554,3.5595,3.5595,3.5686,3.5574,3.4571,3.3812,3.3105,3.2305,3.2109,3.1875,3.1074,3.0898,3.0898,3.0898,3.0898,3.0898,3.0898,3.0137,2.9492,2.9492,2.8027,2.6848,2.6714,2.5994,2.5771,2.6512,2.5874,2.5418,2.5498,2.5438,2.5431,2.5506,2.5561,2.5564,2.5506,2.5561,2.5564,2.5493,2.5563,2.5634,2.5703,2.5635,2.5603,2.5599,2.5471,2.539,1.6069,1.6482,1.6614,1.6628,1.7794,1.9036,1.9477,2.0791,2.2094,2.277,2.3595,2.401,2.3501,2.5506,2.7677,2.9046,3.0241,3.1444,3.2723,3.2295,3.1795,3.1718,3.1212,3.075,3.0423,0.0,0.0,0.0,0.0,0.0,3.0404,3.0404,3.0558,3.0885,3.1429,3.2006,3.2641,3.3141,3.3564,3.391,3.4981,3.55,3.55,3.55,3.55,3.55,3.55,3.5673,3.5942,3.5942,3.5942,3.5942,3.5942,3.5769,3.55,3.55,3.55,3.5423,3.4872,3.468,3.4603,3.4064,3.4257,3.47,3.4741,3.5143,3.5606,3.5646,3.5385,3.5018,3.4645,3.3987,3.3203,3.2383,3.1797,3.1309,3.0976,3.0898,3.0898,3.0898,3.0898,3.0898,3.0898,3.0176,2.9609,2.9609,2.8083,2.7107,2.7547,2.6367,2.6029,2.7369,2.677,2.6287,2.6313,2.5782,2.5481,2.5558,2.5594,2.5566,2.5493,2.5603,2.5633,2.5561,2.5633,2.5662,2.5703,2.5634,2.5602,2.5599,2.5465,2.5402,1.5303,1.5989,1.6614,1.6622,1.8539,2.0564,2.1247,2.2928,2.4524,2.509,2.5657,2.5951,2.5643,2.7,2.8409,2.9156,3.0163,3.1177,3.198,3.1365,3.0923,3.125,3.0519,2.9981,0.0,0.0,0.0,0.0,0.0,0.0,0.0,2.9981,3.0115,3.0385,3.0981,3.1429,3.1698,3.2256,3.2641,3.291,3.4391,3.5084,3.5103,3.5365,3.55,3.55,3.55,3.55,3.55,3.55,3.55,3.55,3.55,3.55,3.55,3.55,3.55,3.5385,3.4507,3.4205,3.4058,3.3216,3.3344,3.3836,3.3921,3.4585,3.5247,3.5003,3.4792,3.4572,3.4299,3.4019,3.3594,3.2773,3.2129,3.1621,3.1367,3.1054,3.0857,3.0898,3.0856,3.0811,3.0836,3.0349,2.9958,2.9958,2.8679,2.7909,2.8434,2.7218,2.6615,2.7509,2.7355,2.7101,2.6848,2.6028,2.5676,2.6023,2.577,2.5602,2.5522,2.5636,2.5662,2.5602,2.5661,2.5703,2.5703,2.5606,2.557,2.5599,2.5465,2.542,1.5621,1.5985,1.6625,1.6697,1.8596,2.0896,2.2713,2.3732,2.4822,2.664,2.7012,2.7264,2.8043,2.8147,2.834,2.9081,3.0584,3.1371,3.0519,3.1135,3.1352,3.0481,2.9602,2.9088,0.0,0.0,0.0,0.0,0.0,0.0,0.0,2.9088,2.9486,3.0365,3.0385,3.0808,3.1679,3.1698,3.2083,3.2891,3.3763,3.4186,3.4225,3.5103,3.55,3.5481,3.55,3.55,3.55,3.55,3.55,3.55,3.55,3.55,3.55,3.55,3.5481,3.5365,3.4494,3.4186,3.4039,3.3246,3.2977,3.3001,3.3149,3.384,3.4417,3.3557,3.3975,3.4492,3.3613,3.4023,3.4453,3.3594,3.3379,3.3144,3.2363,3.1398,3.0743,3.0878,3.0746,3.0628,3.0687,3.0695,3.0695,3.0695,3.001,2.9468,2.9393,2.8585,2.7698,2.6812,2.756,2.7792,2.6986,2.613,2.6004,2.6953,2.6191,2.5662,2.5603,2.5661,2.5662,2.5603,2.5661,2.5703,2.5703,2.5563,2.5541,2.5601,2.5465,2.5434,1.4641,1.5471,1.6884,1.8082,2.0362,2.2745,2.4462,2.5071,2.5778,2.7558,2.791,2.7967,2.8161,2.8152,2.833,2.9085,2.9587,2.9781,2.9525,2.9698,2.9563,2.8736,2.8409,0.0,0.0,0.0,0.0,0.0,0.0,0.0,0.0,2.8261,2.8626,2.9467,2.9486,2.991,3.0788,3.0788,3.0904,3.1154,3.2025,3.2737,3.3333,3.4827,3.5173,3.4622,3.5231,3.55,3.55,3.55,3.55,3.55,3.55,3.55,3.55,3.55,3.5122,3.4469,3.3641,3.2984,3.2377,3.1577,3.1723,3.2246,3.2331,3.3413,3.4428,3.3555,3.3509,3.3499,3.2571,3.2543,3.2688,3.2463,3.1902,3.1369,3.1133,3.0847,3.0643,3.0681,3.0633,3.0611,3.0633,3.0638,3.0638,3.0638,2.9858,2.9087,2.8492,2.9198,2.9489,2.8749,2.8928,2.9014,2.8825,2.7439,2.6972,2.7851,2.6523,2.5683,2.5662,2.5683,2.5683,2.5662,2.5683,2.5703,2.5703,2.5607,2.5604,2.5661,2.5537,2.5515,1.4237,1.6013,1.8352,1.9406,2.1627,2.3922,2.5253,2.6445,2.7637,2.8981,2.8999,2.8737,2.8617,2.829,0.0,2.9042,2.8867,2.8723,2.9069,2.8819,2.8434,2.7953,2.7582,0.0,0.0,0.0,0.0,0.0,0.0,0.0,0.0,2.7371,2.7755,2.8607,2.8934,2.9198,2.9404,2.9717,2.989,2.989,3.0769,3.1442,3.1968,3.3673,3.4372,3.4225,3.4757,3.5173,3.5462,3.5141,3.5192,3.55,3.55,3.55,3.5468,3.5143,3.4692,3.4079,3.2952,3.2259,3.1701,3.0898,3.0996,3.1439,3.1477,3.2694,3.3906,3.2993,3.2989,3.3041,3.2138,3.1615,3.144,3.1865,3.1539,3.1115,3.1115,3.0814,3.0565,3.0597,3.0567,3.0525,3.0567,3.0554,3.0554,3.0554,3.0079,2.9532,2.9023,2.9863,3.0199,2.9452,2.9443,2.9512,2.9566,2.83,2.7891,2.8769,2.7519,2.6582,2.623,2.5879,2.5703,2.5703,2.5703,2.5703,2.5703,2.5634,2.5634,2.5703,2.5597,2.5588,1.4316,1.7019,2.0141,2.0524,2.2592,2.4739,2.5463,2.7614,2.9626,3.0229,2.9832,2.9314,2.9129,2.8481,2.8225,2.8879,2.8376,2.8126,2.878,2.8242,2.7761,2.7659,2.6967,0.0,0.0,0.0,0.0,0.0,0.0,0.0,0.0,2.6486,2.689,2.7755,2.8492,2.8569,2.7915,2.8626,2.8992,2.8992,2.9871,3.0288,3.0346,3.2102,3.3333,3.409,3.4084,3.4546,3.5213,3.4526,3.4687,3.5412,3.5489,3.5509,3.5412,3.4615,3.4328,3.4095,3.246,3.1912,3.1771,3.0978,3.0701,3.0693,3.0693,3.1918,3.307,3.2068,3.2458,3.2967,3.2016,3.1138,3.0705,3.1563,3.1757,3.1757,3.1757,3.1084,3.0516,3.0565,3.0482,3.0411,3.0482,3.0485,3.0485,3.0485,3.0485,3.0477,3.0402,3.0399,3.0115,2.9396,2.9426,2.9525,2.9612,2.8884,2.8789,2.9668,2.8828,2.7949,2.7148,2.6289,2.5781,2.5703,2.5703,2.5703,2.5703,2.5636,2.5636,2.5703,2.5714,2.5754,1.4879,1.6163,1.8006,2.0819,2.3944,2.6388,2.6551,2.7535,2.8264,2.7743,2.8054,2.8359,2.8287,2.8125,2.8025,2.8147,2.8011,2.7717,2.7217,2.6986,2.664,2.5942,2.5692,0.0,0.0,0.0,0.0,0.0,0.0,0.0,2.5577,2.5577,2.5981,2.6851,2.7044,2.7371,2.7895,2.8068,2.8165,0.0,2.8992,2.9371,2.9448,3.1814,3.3006,3.3186,3.3241,3.3362,3.358,3.4195,3.4544,3.4777,3.5402,3.5659,3.5562,3.4742,3.4462,3.4211,3.2543,3.1982,3.1859,3.1108,3.0781,3.0693,3.07,3.1876,3.2872,3.1263,3.1917,3.2757,3.1133,3.0574,3.0461,3.0672,3.0716,3.0716,3.0716,3.0554,3.0422,3.0436,3.0431,3.0396,3.0431,3.0417,3.0417,3.0417,3.0417,3.0425,3.041,2.9863,2.9691,3.0241,2.9819,2.9807,3.0545,2.9804,2.9687,3.0566,2.916,2.8223,2.8027,2.7187,2.6406,2.5703,2.5703,2.5703,2.5703,2.5683,2.5683,2.5723,2.6386,2.6718,1.4537,1.6187,1.8475,2.1565,2.43,2.6205,2.6146,2.6481,2.6666,2.619,2.7132,2.7893,2.7428,2.7329,2.7325,2.729,2.6928,2.664,2.6621,2.6231,2.5808,2.5346,2.5308,0.0,0.0,0.0,0.0,0.0,0.0,2.5308,2.5308,2.5308,2.5519,2.5962,2.6385,2.6621,2.6659,2.7063,2.7274,2.7274,2.7698,2.8133,2.8652,3.1189,3.2337,3.2386,3.2416,3.2686,3.3106,3.3202,3.3495,3.392,3.4331,3.451,3.4455,3.4063,3.3668,3.3193,3.2381,3.1827,3.1401,3.0955,3.0767,3.0687,3.0614,3.1514,3.233,3.1352,3.1727,3.2218,3.128,3.0712,3.0404,3.0404,3.0404,3.0404,3.0404,3.0404,3.0404,3.0404,3.0404,3.0404,3.0404,3.0404,3.0404,3.0404,3.0038,2.9929,3.0346,2.9371,2.9125,3.0461,2.9574,2.9421,3.0781,3.0098,2.9961,3.084,3.0059,2.9355,2.8945,2.8086,2.7207,2.6348,2.5918,2.5918,2.6328,2.5898,2.5703,2.5723,2.6582,2.6992,1.3903,1.6502,1.9687,2.2088,2.4,2.5287,2.5309,2.535,2.5375,2.5313,2.648,2.7297,2.6525,2.639,2.639,2.639,2.5769,2.5558,2.6269,2.575,2.5308,2.5308,2.5308,0.0,0.0,0.0,0.0,0.0,0.0,2.5308,2.5308,2.5308,2.5308,2.5308,2.6006,2.6054,2.5317,2.6039,2.6414,2.6414,2.6569,2.7116,2.8086,3.0293,3.1235,3.1179,3.1335,3.1836,3.2538,3.213,3.2386,3.3045,3.3181,3.322,3.3229,3.3144,3.2747,3.2224,3.2049,3.1582,3.1053,3.0782,3.0686,3.0635,3.0537,3.1105,3.1738,3.1523,3.1583,3.1679,3.1506,3.0942,3.0404,3.0404,3.0404,3.0404,3.0404,3.0404,3.0404,3.0404,3.0404,3.0404,3.0404,3.0404,3.0404,3.0404,2.9794,2.9583,3.0308,2.9125,2.8757,3.0209,2.9199,2.9029,3.0526,3.0156,3.0137,3.0859,3.0898,3.0508,2.9648,2.8906,2.8105,2.7246,2.6367,2.6289,2.6992,2.6426,2.6152,2.6172,2.7031,2.7441,1.3599,1.6542,1.9604,2.1332,2.3085,2.4555,2.5224,2.5342,2.5308,2.5288,2.5495,2.5621,2.5505,2.5481,2.5481,2.5481,2.5385,2.5346,2.5462,2.5365,2.5308,2.5308,2.5308,0.0,0.0,0.0,0.0,0.0,2.5308,2.5308,2.5308,2.5308,2.5308,2.5308,2.5475,2.5503,2.5399,2.556,2.5657,2.5657,2.6403,2.7239,2.8116,2.9143,2.926,2.8647,2.9442,2.9877,3.01,3.1554,3.2224,3.2399,3.3103,3.3376,3.3298,3.2597,3.2714,3.3007,3.1562,3.1422,3.1737,3.0951,3.0611,3.0521,3.0511,3.1075,3.1549,3.0794,3.1115,3.1525,3.0769,3.0481,3.0404,3.0404,3.0404,3.0404,3.0404,3.0404,3.0404,3.0404,3.0404,3.0404,3.0404,3.0404,3.0404,3.0404,3.0308,3.0269,3.0385,2.9593,2.9139,2.9361,2.935,2.9429,2.9672,3.033,3.0781,3.0898,3.0898,3.0508,2.9648,2.9492,2.9023,2.8144,2.7266,2.6875,2.6992,2.7637,2.7949,2.7969,2.8848,2.9258,1.3527,1.6152,1.8706,1.99,2.1485,2.3077,2.4389,2.4647,2.4755,2.5212,2.5308,2.5308,2.5308,2.5208,2.5163,2.5274,2.5208,2.5168,2.5279,2.4909,2.4793,2.525,2.4909,0.0,0.0,0.0,0.0,0.0,2.5308,2.5308,2.5308,2.5339,2.5354,2.537,2.5418,2.5462,2.5459,2.5495,2.5491,2.5491,2.5895,2.6298,2.6716,2.7069,2.7575,2.8219,2.9102,2.9513,2.9624,3.041,3.1035,3.1504,3.1855,3.1992,3.2012,3.2148,3.2109,3.1953,3.1636,3.141,3.1196,3.0739,3.0559,3.049,3.0452,3.0692,3.0885,3.0519,3.0673,3.0885,3.05,3.0404,3.0404,3.0404,3.0404,3.0404,3.0404,3.0404,3.0404,3.0404,3.0404,3.0404,3.0404,3.0404,3.0404,3.0404,2.9981,2.9852,3.0346,2.9294,2.8896,2.9883,2.9269,2.8986,2.9507,2.9491,2.9434,2.9434,2.9902,3.0,2.9629,2.9609,2.9414,2.9043,2.8164,2.7734,2.7734,2.8105,2.8301,2.832,2.9199,2.9609,1.3203,1.5215,1.7094,1.8183,1.9718,2.141,2.3071,2.345,2.374,2.4774,2.4827,2.4731,2.4942,2.4993,2.5046,2.5203,2.4922,2.4754,2.4896,2.4255,2.399,2.4596,2.4336,0.0,0.0,0.0,0.0,0.0,2.5115,2.5091,2.5317,2.5174,2.5207,2.5418,2.5498,2.5533,2.5533,2.5547,2.5552,2.5552,2.5552,2.559,2.5632,2.5846,2.6548,2.762,2.8499,2.9017,2.9297,2.9512,3.0117,3.0898,3.0898,3.0898,3.0976,3.1621,3.1445,3.0934,3.1486,3.1228,3.0624,3.0537,3.05,3.0472,3.0419,3.0404,3.0404,3.0404,3.0404,3.0404,3.0404,3.0404,3.0404,3.0404,3.0404,3.0404,3.0404,3.0404,3.0404,3.0404,3.0404,3.0404,3.0404,3.0419,3.0422,3.0422,2.9881,2.9714,3.036,2.9406,2.9084,3.0172,2.9421,2.895,2.9217,2.9062,2.8867,2.8633,2.9453,2.9922,2.9922,2.9922,2.9824,2.9609,2.918,2.8848,2.8633,2.8848,2.8965,2.8984,2.9629,2.9922,1.2317,1.3476,1.4616,1.6303,1.7992,1.9667,2.1359,2.1671,2.212,2.3817,2.3509,2.3182,2.4014,2.461,2.4991,2.5016,2.4375,2.3873,2.3879,2.3294,2.2874,2.2932,2.3624,0.0,0.0,0.0,0.0,0.0,2.4582,2.4525,2.534,2.4677,2.4639,2.5464,2.5559,2.5599,2.5599,2.566,2.5683,2.5683,2.5683,2.5683,2.5723,2.6543,2.6523,2.5879,2.6758,2.7598,2.8437,2.9258,3.0117,3.0898,3.0898,3.0898,3.0918,3.0957,3.0855,3.0717,3.0755,3.0647,3.0516,3.0503,3.0457,3.0396,3.0404,3.0404,3.0404,3.0404,3.0404,3.0404,3.0404,3.0404,3.0404,3.0404,3.0404,3.0404,3.0404,3.0404,3.0404,3.0404,3.0404,3.0404,3.0404,3.0447,3.049,3.049,3.0517,3.0532,3.0571,3.0519,3.0214,2.9522,3.0123,2.9956,2.8398,2.9802,3.041,2.957,3.0351,3.082,3.082,3.082,3.0449,2.9629,3.0371,3.0351,2.9531,3.0351,3.0762,3.0762,3.0801,3.082,1.191,1.3349,1.4974,1.5614,1.6639,1.7939,1.9618,1.9943,2.0373,2.2085,2.2177,2.2235,2.3105,2.3272,2.3334,2.3543,2.317,2.2916,2.3126,2.2478,2.2177,2.274,2.2586,0.0,0.0,0.0,0.0,0.0,0.0,2.4525,2.5351,2.4674,2.4413,2.4719,2.4792,2.5095,2.5661,2.5136,2.5156,2.5703,2.5703,2.5703,2.5703,2.6016,2.5996,2.5723,2.6035,2.666,2.7539,2.8418,2.9277,3.0078,3.0078,3.041,3.082,3.0273,3.0327,3.0692,3.0659,3.0578,3.0485,3.0462,3.0411,3.0404,3.0404,3.0404,3.0404,3.0404,3.0404,3.0404,3.0404,3.0404,3.0404,3.0404,3.0404,3.0404,3.0404,3.0846,3.1077,3.0519,3.0846,3.1058,3.05,3.0452,3.0498,3.0498,3.057,3.0603,3.0603,3.0645,3.0554,3.0264,3.059,3.0344,2.9136,2.9664,2.9687,2.8759,2.9568,3.0078,3.0078,3.0605,3.0742,3.0449,3.0742,3.0469,2.9609,3.0469,3.0898,3.0898,3.0898,3.0898,1.1648,1.2938,1.4579,1.5151,1.5522,1.6231,1.8207,1.8399,1.8641,2.0323,2.0427,2.0485,2.137,2.1309,2.1474,2.2527,2.2277,2.2005,2.224,2.159,2.1312,2.1889,2.1696,0.0,0.0,0.0,0.0,0.0,0.0,0.0,2.4558,2.3866,2.3732,2.4325,2.4373,2.4824,2.5684,2.5137,2.5137,2.5703,2.5703,2.5703,2.5703,2.5703,2.5703,2.5703,2.5703,2.6191,2.7031,2.7617,2.8379,2.916,2.916,2.9512,2.9961,2.9375,2.962,3.0217,3.0172,3.0308,3.0457,3.0419,3.0404,3.0404,3.0404,3.0404,3.0404,3.0404,3.0404,3.0404,3.0404,3.0404,3.0404,3.0404,3.0404,3.0404,3.0404,3.0846,3.1096,3.0519,3.0865,3.1077,3.05,3.0452,3.0498,3.0498,3.0578,3.0621,3.0621,3.0708,3.0746,3.0696,3.0771,3.0458,2.9501,2.974,2.9552,2.8682,2.9462,2.9998,3.0039,3.0586,3.0898,3.0898,3.0898,3.0586,2.9977,3.0605,3.0898,3.0898,3.0858,3.0989,0.0,0.0,0.0,1.4801,1.4585,1.4627,1.7121,1.7051,1.6922,1.858,1.8261,1.7965,1.8804,1.8856,1.9559,2.197,2.1687,2.1162,2.1167,2.0665,2.0308,2.0308,2.0981,0.0,0.0,0.0,0.0,0.0,2.204,2.2014,2.2959,2.2249,2.2589,2.4277,2.4297,2.4727,2.5605,2.5605,2.5605,2.5664,2.5664,2.5684,2.5703,2.5703,2.5703,2.5703,2.5703,2.6172,2.6953,2.6992,2.75,2.8262,2.8262,2.8281,2.8301,2.8301,2.8727,2.931,2.9329,2.9806,3.0404,3.0404,3.0385,3.0371,3.039,3.0396,3.0377,3.0396,3.0396,3.041,3.0404,3.0404,3.0404,3.0404,3.0404,3.0404,3.0404,3.0404,3.0404,3.0404,3.0423,3.0423,3.0404,3.0452,3.0498,3.0498,3.0603,3.0693,3.0693,3.0814,3.0837,3.0717,3.0693,3.0322,2.941,3.0113,3.0302,2.9613,3.0302,3.0805,3.0957,3.0937,3.0937,3.0937,3.0898,3.0836,3.0693,3.0836,3.0898,3.0898,3.0786,3.1172,1.2361,0.0,0.0,0.0,0.0,0.0,1.4803,1.5353,1.5864,1.6979,1.7468,1.7776,1.8023,1.804,1.8229,1.8912,1.9763,2.0389,2.0529,2.0418,2.0308,2.0308,2.05,0.0,0.0,0.0,0.0,0.0,2.1768,2.2088,2.3025,2.2314,2.2089,2.2578,2.1973,2.2344,2.3809,2.3242,2.3555,2.4766,2.4766,2.5098,2.5703,2.5703,2.5703,2.5703,2.5703,2.584,2.6113,2.6738,2.7148,2.7363,2.7363,2.7734,2.8301,2.8301,2.8727,2.9388,3.0016,3.0318,3.0404,3.0404,3.0004,2.9656,3.0289,3.0072,2.9741,3.037,3.0511,3.0462,3.0414,3.0404,3.0404,3.0404,3.0404,3.0404,3.0404,3.0404,3.0404,3.0404,3.0904,3.1135,3.0519,3.0452,3.0498,3.0498,3.0571,3.0636,3.0636,3.065,3.0674,3.0638,3.0636,3.0508,3.018,3.0432,3.0763,3.1146,3.1417,3.1863,3.254,3.1958,3.1629,3.1629,3.101,3.0652,3.0636,3.0711,3.0735,3.07,3.1283,3.1965,1.3377,1.3841,1.4468,1.4314,0.0,0.0,1.4726,1.4871,1.4898,1.578,1.6322,1.6657,1.6657,1.6949,1.7199,1.7199,1.8244,1.9088,1.9208,1.9523,1.9754,1.9754,2.0081,0.0,0.0,2.0308,2.0504,2.1017,2.1117,2.1416,2.2021,2.16,2.1523,2.1894,2.1406,2.1777,2.3086,2.2656,2.293,2.3906,2.3867,2.4141,2.4668,2.5,2.5156,2.5176,2.5547,2.5703,2.5742,2.625,2.6465,2.6465,2.6465,2.6992,2.7754,2.7754,2.8414,2.931,2.9491,2.993,3.0346,2.9987,2.9553,2.93,2.9793,2.9652,2.9407,2.9916,3.0268,3.0394,2.9968,2.9871,2.9871,2.9871,2.9871,2.9967,3.0327,3.0404,3.0404,3.0404,3.0808,3.1,3.0481,3.0419,3.0457,3.0457,3.0524,3.0551,3.0551,3.0584,3.0591,3.0554,3.0551,3.0684,3.097,3.1046,3.1403,3.2251,3.2329,3.2613,3.3174,3.271,3.2441,3.2441,3.1939,3.167,3.1608,3.1329,3.1348,3.1627,3.2497,3.3117,1.4666,1.4824,1.55,1.6195,1.464,0.0,1.5592,1.5097,1.4364,1.4951,1.5224,1.5334,1.5237,1.5914,1.6476,1.6377,1.7045,1.7597,1.7683,1.8376,1.8857,1.8857,1.9542,0.0,2.0,2.0,2.0068,2.0161,2.0333,2.0476,2.0586,2.0605,2.0957,2.1738,2.1758,2.2109,2.2812,2.2871,2.2969,2.3047,2.3008,2.3047,2.3223,2.3926,2.4316,2.4434,2.5215,2.5605,2.5703,2.5703,2.5703,2.5703,2.5703,2.623,2.7012,2.7109,2.8004,2.9077,2.846,2.9063,3.0004,2.922,2.8965,2.8966,2.9063,2.9075,2.9057,2.9141,2.9825,3.0277,2.9247,2.9107,2.9223,2.9127,2.9165,2.9467,3.0231,3.0404,3.0404,3.0404,3.0404,3.0404,3.0404,3.0404,3.0404,3.0404,3.0442,3.0519,3.0616,3.07,3.0738,3.0761,3.0771,3.1071,3.1768,3.1833,3.2214,3.3082,3.3131,3.3238,3.3452,3.3359,3.3301,3.3301,3.3223,3.316,3.3131,3.2388,3.2345,3.3015,3.3977,3.4342,1.6868,1.6599,1.6118,1.5596,1.5077,0.0,1.3646,1.4764,1.5664,1.4482,1.5356,1.6115,1.5405,1.5995,1.6347,1.5659,1.6211,1.6957,1.7616,1.7853,1.7949,1.7949,1.8103,0.0,1.8219,1.8219,1.8538,1.9342,2.0136,2.0565,2.0605,2.0605,2.0684,2.0859,2.0859,2.0937,2.1094,2.1094,2.1465,2.2148,2.2148,2.2519,2.3203,2.3301,2.373,2.4414,2.457,2.5059,2.5703,2.5703,2.5703,2.5703,2.5703,2.623,2.709,2.7793,2.8163,2.8402,2.8955,2.8844,2.8438,2.8264,2.7822,2.7478,2.8184,2.7942,2.7566,2.8179,2.9424,3.0194,2.856,2.914,2.9967,2.928,2.964,3.0192,3.0365,3.0404,3.0404,3.0404,3.0404,3.0404,3.0404,3.0404,3.0404,3.0404,3.0408,3.0662,3.1374,3.148,3.1736,3.2362,3.2434,3.2499,3.2641,3.2679,3.3038,3.3917,3.3974,3.4295,3.5014,3.4383,3.4004,3.4004,3.3329,3.3292,3.3955,3.3118,3.2771,3.2954,3.4526,3.4879,1.8323,1.8049,0.0,1.7199,1.6138,0.0,0.0,1.4607,1.474,1.5153,1.4935,1.479,1.5218,1.5296,1.5296,1.5296,1.5631,1.62,1.7028,1.712,1.6949,1.6503,1.7199,0.0,1.7699,1.7699,1.8122,1.9126,1.9678,2.0137,2.0586,2.0605,2.0605,2.0605,2.0605,2.0605,2.0605,2.0605,2.082,2.125,2.125,2.1484,2.1914,2.2324,2.2969,2.3789,2.4219,2.4883,2.5703,2.5703,2.5703,2.5703,2.5703,2.623,2.7051,2.748,2.7859,2.8158,2.8145,2.8118,2.7976,2.7533,2.7167,2.6981,2.7411,2.7268,2.7194,2.8415,2.9023,2.9097,2.8145,2.8525,2.914,2.9107,2.9429,2.9871,3.0308,3.0404,3.0404,3.0404,3.075,3.1058,3.1058,3.1058,3.1173,3.1596,3.1654,3.1795,3.2237,3.2295,3.2449,3.2852,3.2786,3.2884,3.3312,3.3226,3.3696,3.4973,3.4677,3.507,3.643,3.568,3.5319,3.5449,3.4622,3.441,3.4853,3.4814,3.4795,3.4814,3.5692,3.6103,0.0,0.0,0.0,0.0,0.0,1.6143,0.0,0.0,0.0,1.5663,0.0,0.0,1.5065,0.0,0.0,0.0,0.0,0.0,0.0,1.6209,0.0,1.5532,1.6506,0.0,1.7477,1.7484,1.7893,1.8887,1.9155,1.9668,2.0547,2.0605,2.0605,2.0605,2.0605,2.0605,2.0605,2.0605,2.0605,2.0605,2.0605,2.0605,2.0625,2.1504,2.2344,2.3164,2.4023,2.4883,2.5703,2.5703,2.5703,2.5703,2.5703,2.623,2.6992,2.6992,2.7397,2.7843,2.7145,2.7215,2.7495,2.68,2.6619,2.665,2.665,2.6766,2.7126,2.8296,2.844,2.8139,2.7758,2.8005,2.8506,2.8992,2.9223,2.9583,3.0462,3.0654,3.0692,3.0846,3.1442,3.1891,3.1737,3.1833,3.216,3.2795,3.2891,3.2968,3.3122,3.3141,3.3186,3.33,3.3131,3.3261,3.3913,3.3923,3.4456,3.5805,3.5438,3.5863,3.7442,3.6878,3.6621,3.6845,3.6167,3.5841,3.5885,3.6538,3.681,3.6712,3.7038,3.7488,0.0,0.0,0.0,0.0,1.9276,0.0,0.0,0.0,1.5734,1.4533,0.0,0.0,0.0,0.0,0.0,0.0,0.0,0.0,1.4482,1.4982,1.5692,1.636,1.5862,0.0,0.0,1.6719,1.7083,1.7971,1.8769,1.9624,2.0547,2.0605,2.0605,2.0605,2.0605,2.0605,2.0605,2.0605,2.0605,2.0605,2.0605,2.0605,2.0625,2.1504,2.2363,2.3223,2.4043,2.4883,2.5703,2.5703,2.5703,2.5703,2.5703,2.623,2.6992,2.6992,2.7027,2.7027,2.693,2.6458,2.5867,2.577,2.5733,2.5757,2.5757,2.6242,2.6683,2.6029,2.7393,2.872,2.7161,2.8423,2.9942,2.9261,2.9698,3.0481,3.1371,3.1545,3.1756,3.2487,3.2699,3.2545,3.1814,3.2295,3.2795,3.2891,3.2891,3.3179,3.3955,3.4052,3.4253,3.4792,3.4827,3.4751,3.4603,3.5222,3.5692,3.588,3.6481,3.7024,3.748,3.7413,3.7374,3.742,3.7097,3.703,3.7258,3.7354,3.716,3.6731,3.8277,3.8642,0.0,0.0,0.0,0.0,0.0,0.0,1.6019,0.0,1.5069,0.0,0.0,0.0,0.0,0.0,0.0,0.0,1.5405,0.0,0.0,0.0,1.4672,0.0,0.0,0.0,0.0,0.0,0.0,0.0,1.8262,1.912,2.0527,2.0605,2.0605,2.0605,2.0605,2.0605,2.0605,2.0605,2.0605,2.0605,2.0605,2.0859,2.1367,2.1738,2.2637,2.3926,2.4258,2.4883,2.5703,2.5703,2.5703,2.5703,2.5703,2.5918,2.625,2.625,2.623,2.6207,2.6207,2.5953,2.5658,2.5607,2.5602,2.5772,2.6759,2.6556,2.6201,2.7299,2.7645,2.7755,2.7983,2.8832,2.9679,2.9813,3.0525,3.125,3.1621,3.2064,3.2506,3.2833,3.3314,3.3545,3.3199,3.343,3.3833,3.4327,3.4404,3.4538,3.4911,3.4813,3.4821,3.5075,3.4794,3.4542,3.4423,3.4994,3.559,3.6092,3.7461,3.8102,3.7755,3.7872,3.7957,3.7957,3.7403,3.7165,3.7274,3.7738,3.7838,3.7652,3.8775,3.9272,2.2622,0.0,0.0,0.0,0.0,0.0,0.0,0.0,0.0,0.0,0.0,0.0,0.0,0.0,1.5019,1.5644,0.0,1.5131,0.0,1.4423,0.0,0.0,0.0,0.0,0.0,0.0,0.0,1.777,1.7949,1.8749,2.0508,2.0605,2.0605,2.0605,2.0605,2.0703,2.0957,2.0957,2.1074,2.1289,2.1289,2.1621,2.2246,2.248,2.3242,2.4414,2.4648,2.5117,2.5703,2.5703,2.5703,2.5703,2.5683,2.5683,2.5703,2.5703,2.5703,2.5703,2.5703,2.5703,2.5683,2.561,2.5595,2.5831,2.7287,2.6782,2.616,2.8249,2.8087,2.7563,2.878,2.928,2.9621,3.025,3.1077,3.1738,3.1885,3.2563,3.3201,3.3355,3.391,3.4332,3.4332,3.4457,3.4762,3.5314,3.5383,3.5438,3.5587,3.5448,3.5296,3.5211,3.4816,3.4506,3.4439,3.5008,3.5811,3.689,3.8313,3.8851,3.8255,3.8434,3.8524,3.8524,3.8084,3.7903,3.7981,3.88,3.9076,3.8862,3.9223,3.9603,0.0,0.0,0.0,2.0681,0.0,0.0,0.0,0.0,1.7381,0.0,0.0,0.0,0.0,0.0,1.6621,1.6641,1.5234,0.0,0.0,0.0,0.0,0.0,0.0,0.0,0.0,0.0,1.6081,1.7761,1.7898,1.8685,2.0508,2.0605,2.0605,2.0605,2.0605,2.1016,2.1855,2.1855,2.2246,2.3027,2.3027,2.3027,2.3086,2.3945,2.4355,2.4453,2.5293,2.5664,2.5703,2.5703,2.5703,2.5683,2.5633,2.5637,2.5703,2.5703,2.5703,2.5703,2.5703,2.5703,2.5683,2.561,2.5556,2.5656,2.6497,2.6663,2.6741,2.7689,2.8453,2.903,2.9088,2.9737,3.0365,3.0385,3.1077,3.184,3.2359,3.316,3.394,3.4518,3.4658,3.4676,3.4676,3.5108,3.5379,3.5147,3.5113,3.5293,3.5811,3.5883,3.5776,3.5508,3.5478,3.533,3.4991,3.5752,3.6927,3.8524,3.891,3.9093,3.9075,3.9075,3.9069,3.9069,3.9557,3.9948,4.0202,4.1059,4.1059,4.0235,3.9789,3.9603,0.0,0.0,2.4624,2.2083,0.0,0.0,0.0,0.0,0.0,0.0,0.0,0.0,0.0,0.0,1.7221,1.6777,1.6211,1.5312,0.0,0.0,0.0,0.0,0.0,0.0,0.0,0.0,0.0,1.6959,1.7999,1.9138,2.046,2.0585,2.0605,2.0605,2.1152,2.1602,2.1894,2.2422,2.2832,2.3105,2.3144,2.3457,2.3965,2.4277,2.4707,2.5273,2.5566,2.5662,2.5634,2.5634,2.5605,2.5563,2.5547,2.5551,2.5564,2.5564,2.5599,2.5634,2.5634,2.5603,2.5561,2.5545,2.5884,2.6435,2.7257,2.7484,2.7755,2.9159,2.9333,2.9377,3.0525,3.0615,3.0489,3.0904,3.1221,3.1584,3.2186,3.2947,3.3781,3.4544,3.4694,3.4694,3.4694,3.486,3.4944,3.486,3.4841,3.4907,3.5071,3.5428,3.5605,3.5516,3.5821,3.5984,3.5877,3.6615,3.7551,3.8634,3.8792,3.8844,3.8844,3.8844,3.9102,3.9619,3.9813,4.0202,4.0824,4.1119,4.1119,4.0806,4.0126,3.9602,2.3752,2.4533,0.0,2.2921,2.1782,0.0,1.8366,0.0,0.0,0.0,0.0,0.0,0.0,0.0,1.8017,1.7674,1.6561,1.4837,0.0,1.1918,0.0,0.0,1.3309,1.4236,0.0,1.4866,1.5571,1.7389,1.7872,1.8799,0.0,0.0,2.0585,2.0605,2.1445,2.2051,2.2363,2.3164,2.3711,2.4023,2.4062,2.4355,2.4863,2.4863,2.5176,2.5703,2.5703,2.5661,2.5602,2.5602,2.5559,2.5508,2.5465,2.5662,2.5914,2.5608,2.5535,2.5563,2.5563,2.5734,2.5967,2.5924,2.6495,2.731,2.8086,2.8338,2.8621,3.0,3.0,2.9813,3.0948,3.0746,3.0362,3.0748,3.1016,3.1265,3.1563,3.2492,3.3392,3.3855,3.4188,3.4457,3.4757,3.4801,3.4847,3.4977,3.4969,3.5162,3.5635,3.6,3.6205,3.6205,3.6519,3.674,3.674,3.7474,3.8138,3.867,3.8707,3.8707,3.8707,3.8707,3.9074,3.9879,4.0175,4.0726,4.1534,4.1809,4.1809,4.1499,4.0983,4.0428]}]]